[[{"header":{"parameterUnit":"m.s-1","parameterCategory":1,"la1":31.0,"la2":29.5877,"lo1":-88.7671,"lo2":-86.6584,"dx":0.0162,"dy":0.0185,"nx":115,"ny":88,"refTime":"2023-01-08T06:00:00:Z","depth":0,"parameterNumber":2,"parameterNumberName":"U-component_of_WINDS"},"data":[0.0,0.0,0.0,0.0,0.0,0.0,0.0,0.0,0.0,0.0,0.0,0.0,0.0,0.0,0.0,0.0,0.0,0.0,0.0,0.0,0.0,0.0,0.0,0.0,0.0,0.0,0.0,0.0,0.0,0.0,0.0,0.0,0.0,0.0,0.0,0.0,0.0,0.0,0.0,0.0,0.0,0.0,0.0,0.0,0.0,0.0,0.0,0.0,0.0,0.0,0.0,0.0,0.0,0.0,0.0,0.0,0.0,0.0,0.0,0.0,0.0,0.0,0.0,0.0,0.0,0.0,0.0,0.0,0.0,0.0,0.0,0.0,0.0,0.0,0.0,0.0,0.0,0.0,0.0,0.0,0.0,0.0,0.0,0.0,0.0,0.0,0.0,0.0,0.0,0.0,0.0,0.0,0.0,0.0,0.0,0.0,0.0,0.0,0.0,0.0,0.0,0.0,0.0,0.0,0.0,0.0,0.0,0.0,0.0,0.0,0.0,0.0,0.0,0.0,0.0,0.0,0.0,0.0,0.0,0.0,0.0,0.0,0.0,0.0,0.0,0.0,0.0,0.0,0.0,0.0,0.0,0.0,0.0,0.0,0.0,0.0,0.0,0.0,0.0,0.0,0.0,0.0,0.0,0.0,0.0,0.0,0.0,0.0,0.0,0.0,0.0,0.0,0.0,0.0,0.0,0.0,0.0,0.0,0.0,0.0,0.0,0.0,0.0,0.0,0.0,0.0,0.0,0.0,0.0,0.0,0.0,0.0,0.0,0.0,0.0,0.0,0.0,0.0,0.0,0.0,0.0,0.0,0.0,0.0,0.0,0.0,0.0,0.0,0.0,0.0,0.0,0.0,0.0,0.0,0.0,0.0,0.0,0.0,0.0,0.0,0.0,0.0,0.0,0.0,0.0,0.0,0.0,0.0,0.0,0.0,0.0,0.0,0.0,0.0,0.0,0.0,0.0,0.0,0.0,0.0,0.0,0.0,0.0,0.0,0.0,0.0,0.0,0.0,0.0,0.0,0.0,0.0,0.0,0.0,0.0,0.0,0.0,0.0,0.0,0.0,0.0,0.0,0.0,0.0,0.0,0.0,0.0,0.0,0.0,0.0,0.0,0.0,0.0,0.0,0.0,0.0,0.0,0.0,0.0,0.0,0.0,0.0,0.0,0.0,0.0,0.0,0.0,0.0,0.0,0.0,0.0,0.0,0.0,0.0,0.0,0.0,0.0,0.0,0.0,0.0,0.0,0.0,0.0,0.0,0.0,0.0,0.0,0.0,0.0,0.0,0.0,0.0,0.0,0.0,0.0,0.0,0.0,0.0,0.0,0.0,0.0,0.0,0.0,0.0,0.0,0.0,0.0,0.0,0.0,0.0,0.0,0.0,0.0,0.0,0.0,0.0,0.0,0.0,0.0,0.0,0.0,0.0,0.0,0.0,0.0,0.0,0.0,0.0,0.0,0.0,0.0,0.0,0.0,0.0,0.0,0.0,0.0,0.0,0.0,0.0,0.0,0.0,0.0,0.0,0.0,0.0,0.0,0.0,0.0,0.0,0.0,0.0,0.0,0.0,0.0,0.0,0.0,0.0,0.0,0.0,0.0,0.0,0.0,0.0,0.0,0.0,0.0,0.0,0.0,0.0,0.0,0.0,0.0,0.0,0.0,0.0,0.0,0.0,0.0,0.0,0.0,0.0,0.0,0.0,0.0,0.0,0.0,0.0,0.0,0.0,0.0,0.0,0.0,0.0,0.0,0.0,0.0,0.0,0.0,0.0,0.0,0.0,0.0,0.0,0.0,0.0,0.0,0.0,0.0,0.0,0.0,0.0,0.0,0.0,0.0,0.0,0.0,0.0,0.0,0.0,0.0,0.0,0.0,0.0,0.0,0.0,0.0,0.0,0.0,0.0,0.0,0.0,0.0,0.0,0.0,0.0,0.0,0.0,0.0,0.0,0.0,0.0,0.0,0.0,0.0,0.0,0.0,0.0,0.0,0.0,0.0,0.0,0.0,0.0,0.0,0.0,0.0,0.0,0.0,0.0,0.0,0.0,0.0,0.0,0.0,0.0,0.0,0.0,0.0,0.0,0.0,0.0,0.0,0.0,0.0,0.0,0.0,0.0,0.0,0.0,0.0,0.0,0.0,0.0,0.0,0.0,0.0,0.0,0.0,0.0,0.0,0.0,0.0,0.0,0.0,0.0,0.0,0.0,0.0,0.0,0.0,0.0,0.0,0.0,0.0,0.0,0.0,0.0,0.0,0.0,0.0,0.0,0.0,0.0,0.0,0.0,0.0,0.0,0.0,0.0,0.0,0.0,0.0,0.0,0.0,0.0,0.0,0.0,0.0,0.0,0.0,0.0,0.0,0.0,0.0,0.0,0.0,0.0,0.0,0.0,0.0,0.0,0.0,0.0,0.0,0.0,0.0,0.0,0.0,0.0,0.0,0.0,0.0,0.0,0.0,0.0,0.0,0.0,0.0,0.0,0.0,0.0,0.0,0.0,0.0,0.0,0.0,0.0,0.0,0.0,0.0,0.0,0.0,0.0,0.0,0.0,0.0,0.0,0.0,0.0,0.0,0.0,0.0,0.0,0.0,0.0,0.0,0.0,0.0,0.0,0.0,0.0,0.0,0.0,0.0,0.0,0.0,0.0,0.0,0.0,0.0,0.0,0.0,0.0,0.0,0.0,0.0,0.0,0.0,0.0,0.0,0.0,0.0,0.0,0.0,0.0,0.0,0.0,0.0,0.0,0.0,0.0,0.0,0.0,0.0,0.0,0.0,0.0,0.0,0.0,0.0,0.0,0.0,0.0,0.0,0.0,0.0,0.0,0.0,0.0,0.0,0.0,0.0,0.0,0.0,0.0,0.0,0.0,0.0,0.0,0.0,0.0,0.0,0.0,0.0,0.0,0.0,0.0,0.0,0.0,0.0,0.0,0.0,0.0,0.0,0.0,0.0,0.0,0.0,0.0,0.0,0.0,0.0,0.0,0.0,0.0,0.0,0.0,0.0,0.0,0.0,0.0,0.0,0.0,0.0,0.0,0.0,0.0,0.0,0.0,0.0,0.0,0.0,0.0,0.0,0.0,0.0,0.0,0.0,0.0,0.0,0.0,0.0,0.0,0.0,0.0,0.0,0.0,0.0,0.0,0.0,0.0,0.0,0.0,0.0,0.0,0.0,0.0,0.0,0.0,0.0,0.0,0.0,0.0,0.0,0.0,0.0,0.0,0.0,0.0,0.0,0.0,0.0,0.0,0.0,0.0,0.0,0.0,0.0,0.0,0.0,0.0,0.0,0.0,0.0,0.0,0.0,0.0,0.0,0.0,0.0,0.0,0.0,0.0,0.0,0.0,0.0,0.0,0.0,0.0,0.0,0.0,0.0,0.0,0.0,0.0,0.0,0.0,0.0,0.0,0.0,0.0,0.0,0.0,0.0,0.0,0.0,0.0,0.0,0.0,0.0,0.0,0.0,0.0,0.0,0.0,0.0,0.0,0.0,0.0,0.0,0.0,0.0,0.0,0.0,0.0,0.0,0.0,0.0,0.0,0.0,0.0,0.0,0.0,0.0,0.0,0.0,0.0,0.0,0.0,0.0,0.0,0.0,0.0,0.0,0.0,0.0,0.0,0.0,0.0,0.0,0.0,0.0,0.0,0.0,0.0,0.0,0.0,0.0,0.0,0.0,0.0,0.0,0.0,0.0,0.0,0.0,0.0,0.0,0.0,0.0,0.0,0.0,0.0,0.0,0.0,0.0,0.0,0.0,0.0,0.0,0.0,0.0,0.0,0.0,0.0,0.0,0.0,0.0,0.0,0.0,0.0,0.0,0.0,0.0,0.0,0.0,0.0,0.0,0.0,0.0,0.0,0.0,0.0,0.0,0.0,0.0,0.0,0.0,0.0,0.0,0.0,0.0,0.0,0.0,0.0,0.0,0.0,0.0,0.0,0.0,0.0,0.0,0.0,0.0,0.0,0.0,0.0,0.0,0.0,0.0,0.0,0.0,0.0,0.0,0.0,0.0,0.0,0.0,0.0,0.0,0.0,0.0,0.0,0.0,0.0,0.0,0.0,0.0,0.0,0.0,0.0,0.0,0.0,0.0,0.0,0.0,0.0,0.0,0.0,0.0,0.0,0.0,0.0,0.0,0.0,0.0,0.0,0.0,0.0,0.0,0.0,0.0,0.0,0.0,0.0,0.0,0.0,0.0,0.0,0.0,0.0,0.0,0.0,0.0,0.0,0.0,0.0,0.0,0.0,0.0,0.0,-1.4411,0.0,0.0,0.0,-1.4304,0.0,0.0,0.0,0.0,0.0,0.0,0.0,0.0,0.0,0.0,0.0,0.0,0.0,0.0,0.0,0.0,0.0,0.0,0.0,0.0,0.0,0.0,0.0,0.0,0.0,0.0,0.0,0.0,0.0,0.0,0.0,0.0,0.0,0.0,0.0,0.0,0.0,0.0,0.0,0.0,0.0,0.0,0.0,0.0,0.0,0.0,0.0,0.0,0.0,0.0,0.0,0.0,0.0,0.0,0.0,0.0,0.0,0.0,0.0,0.0,0.0,0.0,0.0,0.0,0.0,0.0,0.0,0.0,0.0,0.0,0.0,0.0,0.0,0.0,0.0,0.0,0.0,0.0,0.0,0.0,0.0,0.0,0.0,0.0,0.0,0.0,0.0,0.0,0.0,0.0,0.0,0.0,0.0,0.0,0.0,0.0,0.0,0.0,0.0,0.0,0.0,0.0,0.0,0.0,0.0,0.0,0.0,0.0,0.0,0.0,-1.435,-1.4343,-1.428,-1.4241,-1.425,0.0,0.0,0.0,0.0,0.0,0.0,0.0,0.0,0.0,0.0,0.0,0.0,0.0,0.0,0.0,0.0,0.0,0.0,0.0,0.0,0.0,0.0,0.0,0.0,0.0,0.0,0.0,0.0,0.0,0.0,0.0,0.0,0.0,0.0,0.0,0.0,0.0,0.0,0.0,0.0,0.0,0.0,0.0,0.0,0.0,0.0,0.0,0.0,0.0,0.0,0.0,0.0,0.0,0.0,0.0,0.0,0.0,0.0,0.0,0.0,0.0,0.0,0.0,0.0,0.0,0.0,0.0,0.0,0.0,0.0,0.0,0.0,0.0,0.0,0.0,0.0,0.0,0.0,0.0,0.0,0.0,0.0,0.0,0.0,0.0,0.0,0.0,0.0,0.0,0.0,0.0,0.0,0.0,0.0,0.0,0.0,0.0,0.0,0.0,0.0,0.0,0.0,0.0,0.0,0.0,0.0,0.0,0.0,0.0,0.0,0.0,0.0,-1.421,-1.4175,-1.4145,0.0,0.0,0.0,0.0,0.0,0.0,0.0,0.0,0.0,0.0,0.0,0.0,0.0,0.0,0.0,0.0,0.0,0.0,0.0,0.0,0.0,0.0,0.0,0.0,0.0,0.0,0.0,0.0,0.0,0.0,0.0,0.0,0.0,0.0,0.0,0.0,0.0,0.0,0.0,0.0,0.0,0.0,0.0,0.0,0.0,0.0,0.0,0.0,0.0,0.0,0.0,0.0,0.0,0.0,0.0,0.0,0.0,0.0,0.0,0.0,0.0,0.0,0.0,0.0,0.0,0.0,0.0,0.0,0.0,0.0,0.0,0.0,0.0,0.0,0.0,0.0,0.0,0.0,0.0,0.0,0.0,0.0,0.0,0.0,0.0,0.0,0.0,0.0,0.0,0.0,0.0,0.0,0.0,0.0,0.0,0.0,0.0,0.0,0.0,0.0,0.0,0.0,0.0,0.0,0.0,0.0,0.0,0.0,0.0,0.0,-1.4249,-1.4125,-1.4134,0.0,-1.3977,0.0,0.0,0.0,0.0,0.0,0.0,0.0,0.0,0.0,0.0,0.0,0.0,0.0,0.0,0.0,0.0,0.0,0.0,0.0,0.0,0.0,0.0,0.0,0.0,0.0,0.0,0.0,0.0,0.0,0.0,0.0,0.0,0.0,0.0,0.0,0.0,0.0,0.0,0.0,0.0,0.0,0.0,0.0,0.0,0.0,0.0,0.0,0.0,0.0,0.0,0.0,0.0,0.0,0.0,0.0,0.0,0.0,0.0,0.0,0.0,0.0,0.0,0.0,0.0,0.0,0.0,0.0,0.0,0.0,0.0,0.0,0.0,0.0,0.0,0.0,0.0,0.0,0.0,0.0,0.0,0.0,0.0,0.0,0.0,0.0,0.0,0.0,0.0,0.0,0.0,0.0,0.0,0.0,0.0,0.0,0.0,0.0,0.0,0.0,0.0,0.0,0.0,0.0,0.0,0.0,0.0,0.0,0.0,0.0,0.0,-1.4139,-1.405,-1.4009,-1.3951,0.0,0.0,0.0,0.0,0.0,0.0,0.0,0.0,0.0,0.0,0.0,0.0,0.0,0.0,0.0,0.0,0.0,0.0,0.0,0.0,0.0,0.0,0.0,0.0,0.0,0.0,0.0,0.0,0.0,0.0,0.0,0.0,0.0,0.0,0.0,0.0,0.0,0.0,0.0,0.0,0.0,0.0,0.0,0.0,0.0,0.0,0.0,0.0,0.0,0.0,0.0,0.0,0.0,0.0,0.0,0.0,0.0,0.0,0.0,0.0,0.0,0.0,0.0,0.0,0.0,0.0,0.0,0.0,0.0,0.0,0.0,0.0,0.0,0.0,0.0,0.0,0.0,0.0,0.0,0.0,0.0,0.0,0.0,0.0,0.0,0.0,0.0,0.0,0.0,0.0,0.0,0.0,0.0,0.0,0.0,0.0,0.0,0.0,0.0,0.0,0.0,0.0,0.0,0.0,0.0,0.0,0.0,0.0,0.0,0.0,-1.4139,-1.4019,-1.3927,-1.3853,-1.3836,-1.3818,0.0,0.0,0.0,0.0,0.0,0.0,0.0,0.0,0.0,0.0,0.0,0.0,0.0,0.0,0.0,0.0,0.0,0.0,0.0,0.0,0.0,0.0,0.0,0.0,0.0,0.0,0.0,0.0,0.0,0.0,0.0,0.0,0.0,0.0,0.0,0.0,0.0,0.0,0.0,0.0,0.0,0.0,0.0,0.0,0.0,0.0,0.0,0.0,0.0,0.0,0.0,0.0,0.0,0.0,0.0,0.0,0.0,0.0,0.0,0.0,0.0,0.0,0.0,0.0,0.0,0.0,0.0,0.0,0.0,0.0,0.0,0.0,0.0,0.0,0.0,0.0,0.0,0.0,0.0,0.0,0.0,0.0,0.0,0.0,0.0,0.0,0.0,0.0,0.0,0.0,0.0,0.0,0.0,0.0,0.0,0.0,0.0,0.0,0.0,0.0,0.0,0.0,0.0,0.0,0.0,0.0,0.0,0.0,-1.4119,-1.4043,-1.3913,-1.3728,-1.3644,-1.3605,0.0,0.0,0.0,0.0,0.0,0.0,0.0,0.0,0.0,0.0,0.0,0.0,0.0,0.0,0.0,0.0,0.0,0.0,0.0,0.0,0.0,0.0,0.0,0.0,0.0,0.0,0.0,0.0,0.0,0.0,0.0,0.0,0.0,0.0,0.0,0.0,0.0,0.0,0.0,0.0,0.0,0.0,0.0,0.0,0.0,0.0,0.0,0.0,0.0,0.0,0.0,0.0,0.0,0.0,0.0,0.0,0.0,0.0,0.0,0.0,0.0,0.0,0.0,0.0,0.0,0.0,0.0,0.0,0.0,0.0,0.0,0.0,0.0,0.0,0.0,0.0,0.0,0.0,0.0,0.0,0.0,0.0,0.0,0.0,0.0,0.0,0.0,0.0,0.0,0.0,0.0,0.0,0.0,0.0,0.0,0.0,0.0,0.0,0.0,0.0,0.0,0.0,0.0,0.0,0.0,0.0,0.0,0.0,0.0,-1.4033,-1.3848,-1.369,-1.3584,-1.3511,-1.3471,0.0,0.0,0.0,0.0,0.0,0.0,0.0,0.0,0.0,0.0,0.0,0.0,0.0,0.0,0.0,0.0,0.0,0.0,0.0,0.0,0.0,0.0,0.0,0.0,0.0,0.0,0.0,0.0,0.0,0.0,0.0,0.0,0.0,0.0,0.0,0.0,0.0,0.0,0.0,0.0,0.0,0.0,0.0,0.0,0.0,0.0,0.0,0.0,0.0,0.0,0.0,0.0,0.0,0.0,0.0,0.0,0.0,0.0,0.0,0.0,0.0,0.0,0.0,0.0,0.0,0.0,0.0,0.0,0.0,0.0,0.0,0.0,0.0,0.0,0.0,0.0,0.0,0.0,0.0,0.0,0.0,0.0,0.0,0.0,0.0,0.0,0.0,0.0,0.0,0.0,0.0,0.0,0.0,0.0,0.0,0.0,0.0,0.0,0.0,0.0,0.0,0.0,0.0,0.0,0.0,0.0,0.0,0.0,0.0,-1.4207,-1.3999,-1.3973,-1.4126,-1.3844,-1.3683,0.0,0.0,0.0,0.0,0.0,0.0,0.0,0.0,0.0,0.0,0.0,0.0,0.0,0.0,0.0,0.0,0.0,0.0,0.0,0.0,0.0,0.0,0.0,0.0,0.0,0.0,0.0,0.0,0.0,0.0,0.0,0.0,0.0,0.0,0.0,0.0,0.0,0.0,0.0,0.0,0.0,0.0,0.0,0.0,0.0,0.0,0.0,0.0,0.0,0.0,0.0,0.0,0.0,0.0,0.0,0.0,0.0,0.0,0.0,0.0,0.0,0.0,0.0,0.0,0.0,0.0,0.0,0.0,0.0,0.0,0.0,0.0,0.0,0.0,0.0,0.0,0.0,0.0,0.0,0.0,0.0,0.0,0.0,0.0,0.0,0.0,0.0,0.0,0.0,0.0,0.0,0.0,0.0,0.0,0.0,0.0,0.0,0.0,0.0,0.0,0.0,0.0,0.0,0.0,0.0,0.0,0.0,0.0,-1.4313,-1.465,-1.4587,-1.4842,-1.5419,-1.4692,-1.4314,0.0,0.0,0.0,0.0,0.0,0.0,0.0,0.0,0.0,0.0,0.0,0.0,0.0,0.0,0.0,0.0,0.0,0.0,0.0,0.0,0.0,0.0,0.0,0.0,0.0,0.0,0.0,0.0,0.0,0.0,0.0,0.0,0.0,0.0,0.0,0.0,0.0,0.0,0.0,0.0,0.0,0.0,0.0,0.0,0.0,0.0,0.0,0.0,0.0,0.0,0.0,0.0,0.0,0.0,0.0,0.0,0.0,0.0,0.0,0.0,0.0,0.0,0.0,0.0,0.0,0.0,0.0,0.0,0.0,0.0,0.0,0.0,0.0,0.0,0.0,0.0,0.0,0.0,0.0,0.0,0.0,0.0,0.0,0.0,0.0,0.0,0.0,0.0,0.0,0.0,0.0,0.0,0.0,0.0,0.0,0.0,0.0,0.0,0.0,0.0,0.0,0.0,0.0,0.0,0.0,0.0,0.0,0.0,0.0,-1.464,-1.5496,-1.5745,-1.5313,-1.5066,-1.4662,0.0,0.0,0.0,0.0,0.0,0.0,0.0,0.0,0.0,0.0,0.0,0.0,0.0,0.0,0.0,0.0,0.0,0.0,0.0,0.0,0.0,0.0,0.0,0.0,0.0,0.0,0.0,0.0,0.0,0.0,0.0,0.0,0.0,0.0,0.0,0.0,0.0,0.0,0.0,0.0,0.0,0.0,0.0,0.0,0.0,0.0,0.0,0.0,0.0,0.0,0.0,0.0,0.0,0.0,0.0,0.0,0.0,0.0,0.0,0.0,0.0,0.0,0.0,0.0,0.0,0.0,0.0,0.0,0.0,0.0,0.0,0.0,0.0,0.0,0.0,0.0,0.0,0.0,0.0,0.0,0.0,0.0,0.0,0.0,0.0,0.0,0.0,0.0,0.0,0.0,0.0,0.0,0.0,0.0,0.0,0.0,0.0,0.0,0.0,0.0,0.0,0.0,0.0,0.0,0.0,0.0,0.0,0.0,0.0,-1.5816,-1.6581,-1.6781,-1.6391,-1.6154,-1.5512,-1.4431,0.0,0.0,0.0,0.0,0.0,0.0,0.0,0.0,0.0,0.0,0.0,0.0,0.0,0.0,0.0,0.0,0.0,0.0,0.0,0.0,0.0,0.0,0.0,0.0,0.0,0.0,0.0,0.0,0.0,0.0,0.0,0.0,0.0,0.0,0.0,0.0,0.0,0.0,0.0,0.0,0.0,0.0,0.0,0.0,0.0,0.0,0.0,0.0,0.0,0.0,0.0,0.0,0.0,0.0,0.0,0.0,0.0,0.0,0.0,0.0,0.0,0.0,0.0,0.0,0.0,0.0,0.0,0.0,0.0,0.0,0.0,0.0,0.0,0.0,0.0,0.0,0.0,0.0,0.0,0.0,0.0,0.0,0.0,0.0,0.0,0.0,0.0,0.0,0.0,0.0,0.0,0.0,0.0,0.0,0.0,0.0,0.0,0.0,0.0,0.0,0.0,0.0,0.0,0.0,0.0,0.0,0.0,0.0,-1.7907,-1.7826,-1.8019,-1.8425,-1.779,-1.6717,0.0,0.0,0.0,0.0,0.0,0.0,0.0,0.0,0.0,0.0,0.0,0.0,0.0,0.0,0.0,0.0,0.0,0.0,0.0,0.0,0.0,0.0,0.0,0.0,0.0,0.0,0.0,0.0,0.0,0.0,0.0,0.0,0.0,0.0,0.0,0.0,0.0,0.0,0.0,0.0,0.0,0.0,0.0,0.0,0.0,0.0,0.0,0.0,0.0,0.0,0.0,0.0,0.0,0.0,0.0,0.0,0.0,0.0,0.0,0.0,0.0,0.0,0.0,0.0,0.0,0.0,0.0,0.0,0.0,0.0,0.0,0.0,0.0,0.0,0.0,0.0,0.0,0.0,0.0,0.0,0.0,0.0,0.0,0.0,0.0,0.0,0.0,0.0,0.0,0.0,0.0,0.0,0.0,0.0,0.0,0.0,0.0,0.0,0.0,0.0,0.0,0.0,0.0,0.0,0.0,0.0,0.0,0.0,0.0,-1.9319,-1.9814,-1.981,-1.9359,-1.8557,-1.74,0.0,0.0,0.0,0.0,0.0,0.0,0.0,0.0,0.0,0.0,0.0,0.0,0.0,0.0,0.0,0.0,0.0,0.0,0.0,0.0,0.0,0.0,0.0,0.0,0.0,0.0,0.0,0.0,0.0,0.0,0.0,0.0,0.0,0.0,0.0,0.0,0.0,0.0,0.0,0.0,0.0,0.0,0.0,0.0,0.0,0.0,0.0,0.0,0.0,0.0,0.0,0.0,0.0,0.0,0.0,0.0,0.0,0.0,0.0,0.0,0.0,0.0,0.0,0.0,0.0,0.0,0.0,0.0,0.0,0.0,0.0,0.0,0.0,0.0,0.0,0.0,0.0,0.0,0.0,0.0,0.0,0.0,0.0,0.0,0.0,0.0,0.0,0.0,0.0,0.0,0.0,0.0,0.0,0.0,0.0,0.0,0.0,0.0,0.0,0.0,0.0,0.0,0.0,0.0,0.0,0.0,0.0,0.0,-1.9224,-2.0877,-2.1505,-2.1618,-2.1178,-1.9657,-1.7953,0.0,0.0,0.0,0.0,0.0,0.0,0.0,0.0,0.0,0.0,0.0,0.0,0.0,0.0,0.0,0.0,0.0,0.0,0.0,0.0,0.0,0.0,0.0,0.0,0.0,0.0,0.0,0.0,0.0,0.0,0.0,0.0,0.0,0.0,0.0,0.0,0.0,0.0,0.0,0.0,0.0,0.0,0.0,0.0,0.0,0.0,0.0,0.0,0.0,0.0,0.0,0.0,0.0,0.0,0.0,0.0,0.0,0.0,0.0,0.0,0.0,0.0,0.0,0.0,0.0,0.0,0.0,0.0,0.0,0.0,0.0,0.0,0.0,0.0,0.0,0.0,0.0,0.0,0.0,0.0,0.0,0.0,0.0,0.0,0.0,0.0,0.0,0.0,0.0,0.0,0.0,0.0,0.0,0.0,0.0,0.0,0.0,0.0,0.0,0.0,0.0,0.0,0.0,0.0,0.0,0.0,0.0,0.0,-2.0132,-2.22,-2.2811,-2.3105,-2.309,-2.0796,-1.8529,0.0,0.0,0.0,0.0,0.0,0.0,0.0,0.0,0.0,0.0,0.0,0.0,0.0,0.0,0.0,0.0,0.0,0.0,0.0,0.0,0.0,0.0,0.0,0.0,0.0,0.0,0.0,0.0,0.0,0.0,0.0,0.0,0.0,0.0,0.0,0.0,0.0,0.0,0.0,0.0,0.0,0.0,0.0,0.0,0.0,0.0,0.0,0.0,0.0,0.0,0.0,0.0,0.0,0.0,0.0,0.0,0.0,0.0,0.0,0.0,0.0,0.0,0.0,0.0,0.0,0.0,0.0,0.0,0.0,0.0,0.0,0.0,0.0,0.0,0.0,0.0,0.0,0.0,0.0,0.0,0.0,0.0,0.0,0.0,0.0,0.0,0.0,0.0,0.0,0.0,0.0,0.0,0.0,0.0,0.0,0.0,0.0,0.0,0.0,0.0,0.0,0.0,0.0,0.0,0.0,0.0,0.0,0.0,-2.0507,-2.2013,-2.2692,-2.2983,-2.2969,-2.1217,-1.9523,0.0,0.0,0.0,0.0,0.0,0.0,0.0,0.0,0.0,0.0,0.0,0.0,0.0,0.0,0.0,0.0,0.0,0.0,0.0,0.0,0.0,0.0,0.0,0.0,0.0,0.0,0.0,0.0,0.0,0.0,0.0,0.0,0.0,0.0,0.0,0.0,0.0,0.0,0.0,0.0,0.0,0.0,0.0,0.0,0.0,0.0,0.0,0.0,-0.1859,0.0,0.0,0.0,0.0,0.0,0.0,0.0,0.0,0.0,0.0,0.0,0.0,0.0,0.0,0.0,0.0,0.0,0.0,0.0,0.0,0.0,0.0,0.0,0.0,0.0,0.0,0.0,0.0,0.0,0.0,0.0,0.0,0.0,0.0,0.0,0.0,0.0,0.0,0.0,0.0,0.0,0.0,0.0,0.0,0.0,0.0,0.0,0.0,0.0,0.0,0.0,0.0,0.0,0.0,0.0,0.0,0.0,0.0,0.0,-2.1214,-2.2929,-2.3585,-2.3719,-2.334,-2.2081,-2.042,0.0,0.0,0.0,0.0,0.0,0.0,0.0,0.0,0.0,0.0,0.0,0.0,0.0,0.0,0.0,0.0,0.0,0.0,0.0,0.0,0.0,0.0,0.0,0.0,0.0,0.0,0.0,0.0,0.0,0.0,0.0,0.0,0.0,0.0,0.0,0.0,0.0,0.0,0.0,0.0,0.0,0.0,0.0,0.0,0.0,0.0,0.0,0.0,0.0,0.0,0.0,0.0,0.0,0.0,0.0,0.0,0.0,0.0,0.0,0.0,0.0,0.0,0.0,0.0,0.0,0.0,0.0,0.0,0.0,0.0,0.0,0.0,0.0,0.0,0.0,0.0,0.0,0.0,0.0,0.0,0.0,0.0,0.0,0.0,0.0,0.0,0.0,0.0,0.0,0.0,0.0,0.0,0.0,0.0,0.0,0.0,0.0,0.0,0.0,0.0,0.0,0.0,0.0,0.0,0.0,0.0,0.0,-2.0241,-2.194,-2.3934,-2.4561,-2.4526,-2.3835,-2.2866,-2.1052,-1.8294,0.0,0.0,0.0,0.0,0.0,0.0,0.0,0.0,0.0,0.0,0.0,0.0,0.0,0.0,0.0,0.0,0.0,0.0,0.0,0.0,0.0,0.0,0.0,0.0,0.0,0.0,0.0,0.0,0.0,0.0,0.0,0.0,0.0,0.0,0.0,0.0,0.0,0.0,-0.3386,-0.2923,0.0,0.0,0.0,0.0,0.0,0.0,0.0,0.0,-0.0531,0.0,0.0,0.0,0.0,0.0,0.0,0.0,0.0,0.0,0.0,0.0,0.0,0.0,0.0,0.0,0.0,0.0,0.0,0.0,0.0,0.0,0.0,0.0,0.0,0.0,0.0,0.0,0.0,0.0,0.0,0.0,0.0,0.0,0.0,0.0,0.0,0.0,0.0,0.0,0.0,0.0,0.0,0.0,0.0,0.0,0.0,0.0,0.0,0.0,0.0,0.0,0.0,0.0,0.0,0.0,0.0,-1.8564,-2.0588,-2.2303,-2.3652,-2.4303,-2.4248,-2.3412,-2.2581,-2.1055,-1.8686,0.0,0.0,0.0,0.0,0.0,0.0,0.0,0.0,0.0,0.0,0.0,0.0,0.0,0.0,0.0,0.0,0.0,0.0,0.0,0.0,0.0,0.0,0.0,0.0,0.0,0.0,0.0,0.0,0.0,0.0,0.0,0.0,0.0,0.0,0.0,0.0,0.0,0.0,0.0,-0.2221,-0.1919,0.0,0.0,0.0,0.0,0.0,0.0,0.0,0.0,0.0191,0.0,0.0,0.0,0.0,0.0,0.0,0.0,0.0,0.0,0.0,0.0,0.0,0.0,0.0,0.0,0.0,0.0,0.0,0.0,0.0,0.0,0.0,0.0,0.0,0.0,0.0,0.0,0.0,0.0,0.0,0.0,0.0,0.0,0.0,0.0,0.0,0.0,0.0,0.0,0.0,0.0,0.0,0.0,0.0,0.0,0.0,0.0,0.0,0.0,0.0,0.0,0.0,0.0,0.0,0.0,-1.962,-2.1244,-2.2704,-2.4017,-2.4657,-2.4386,-2.32,-2.269,-2.1253,0.0,0.0,0.0,0.0,0.0,0.0,0.0,0.0,0.0,0.0,0.0,0.0,0.0,0.0,0.0,0.0,0.0,0.0,0.0,0.0,0.0,0.0,0.0,0.0,0.0,0.0,0.0,0.0,0.0,0.0,0.0,0.0,0.0,0.0,0.0,0.0,0.0,0.0,0.0,0.0,-0.1785,-0.1524,-0.1319,0.0,0.0,0.0,0.0,0.0,0.0,0.0577,0.0788,0.0,0.0,0.0,0.0,0.0,0.0,0.0,0.0,0.0,0.0,0.0,0.0,0.0,0.0,0.0,0.0,0.0,0.0,0.0,0.0,0.0,0.0,0.0,0.0,0.0,0.0,0.0,0.0,0.0,0.0,0.0,0.0,0.0,0.0,0.0,0.0,0.0,0.0,0.0,0.0,0.0,0.0,0.0,0.0,0.0,0.0,0.0,0.0,0.0,0.0,0.0,0.0,0.0,0.0,0.0,-2.0586,-2.1874,-2.3151,-2.4408,-2.4967,-2.4531,-2.3018,-2.2839,-2.1393,0.0,0.0,0.0,0.0,0.0,0.0,0.0,0.0,0.0,0.0,0.0,0.0,0.0,0.0,0.0,0.0,0.0,0.0,0.0,0.0,0.0,0.0,0.0,0.0,0.0,0.0,0.0,0.0,0.0,0.0,0.0,0.0,0.0,0.0,0.0,0.0,0.0,0.0,0.0,0.0,0.0,-0.1109,-0.082,-0.0599,0.0,0.0,0.0,0.0,0.1113,0.1241,0.0,0.0,0.0,0.0,0.0,0.0,0.0,0.0,0.0,0.0,0.0,0.0,0.0,0.0,0.0,0.0,0.0,0.0,0.0,0.0,0.0,0.0,0.0,0.0,0.0,0.0,0.0,0.0,0.0,0.0,0.0,0.0,0.0,0.0,0.0,0.0,0.0,0.0,0.0,0.0,0.0,0.0,0.0,0.0,0.0,0.0,0.0,0.0,0.0,0.0,0.0,0.0,0.0,0.0,0.0,0.0,-2.051,-2.2329,-2.3581,-2.4225,-2.4799,-2.4398,-2.2886,-2.2636,-2.1166,0.0,0.0,0.0,0.0,0.0,0.0,0.0,0.0,0.0,0.0,0.0,0.0,0.0,0.0,0.0,0.0,0.0,0.0,0.0,0.0,0.0,0.0,0.0,0.0,0.0,0.0,0.0,0.0,0.0,0.0,0.0,0.0,0.0,0.0,0.0,0.0,0.0,0.0,0.0,0.0,0.0,-0.0562,-0.0374,-0.0049,0.0275,0.0,0.0,0.1208,0.1701,0.1798,0.0,0.0,0.0,0.0,0.0,0.0,0.0,0.0,0.0,0.0,0.0,0.0,0.0,0.0,0.0,0.0,0.0,0.0,0.0,0.0,0.0,0.0,0.0,0.0,0.0,0.0,0.0,0.0,0.0,0.0,0.0,0.0,0.0,0.0,0.0,0.0,0.0,0.0,0.0,0.0,0.0,0.0,0.0,0.0,0.0,0.0,0.0,0.0,0.0,0.0,0.0,0.0,0.0,0.0,0.0,-1.8621,-2.1021,-2.2572,-2.3819,-2.4782,-2.5006,-2.4515,-2.3286,-2.2695,-2.1178,0.0,0.0,0.0,0.0,0.0,0.0,0.0,0.0,0.0,0.0,0.0,0.0,0.0,0.0,0.0,0.0,0.0,0.0,0.0,0.0,0.0,0.0,0.0,0.0,0.0,0.0,0.0,0.0,0.0,0.0,0.0,0.0,0.0,0.0,0.0,0.0,0.0,0.0,0.0,0.0,0.0,0.0,0.022,0.061,0.0,0.0,0.0,0.189,0.2345,0.0,0.0,0.0,0.0,0.0,0.0,0.0,0.0,0.0,0.0,0.0,0.0,0.0,0.0,0.0,0.0,0.0,0.0,0.0,0.0,0.0,0.0,0.0,0.0,0.0,0.0,0.0,0.0,0.0,0.0,0.0,0.0,0.0,0.0,0.0,0.0,0.0,0.0,0.0,0.0,0.0,0.0,0.0,0.0,0.0,0.0,0.0,0.0,0.0,0.0,0.0,0.0,0.0,0.0,0.0,0.0,0.0,-2.1431,-2.2684,-2.3981,-2.5253,-2.5185,-2.4638,-2.369,-2.2778,0.0,0.0,0.0,0.0,0.0,0.0,0.0,0.0,0.0,0.0,0.0,0.0,0.0,0.0,0.0,0.0,0.0,0.0,0.0,0.0,0.0,0.0,0.0,0.0,0.0,0.0,0.0,-0.4115,0.0,0.0,0.0,0.0,0.0,0.0,0.0,0.0,0.0,0.0,0.0,0.0,0.0,0.0,0.0489,0.0915,0.1292,0.1703,0.0,0.0,0.2641,0.3043,0.3059,0.3067,0.0,0.0,0.0,0.0,0.0,0.0,0.0,0.0,0.0,0.0,0.0,0.0,0.0,0.0,0.0,0.0,0.0,0.0,0.0,0.0,0.0,0.0,0.0,0.0,0.0,0.0,0.0,0.0,0.0,0.0,0.0,0.0,0.0,0.0,0.0,0.0,0.0,0.0,0.0,0.0,0.0,0.0,0.0,0.0,0.0,0.0,0.0,0.0,0.0,0.0,0.0,0.0,0.0,0.0,0.0,-2.1414,-2.2701,-2.3983,-2.5349,-2.5204,-2.4676,-2.3817,-2.2835,-2.1464,0.0,0.0,0.0,0.0,0.0,0.0,0.0,0.0,0.0,0.0,0.0,0.0,0.0,0.0,0.0,0.0,0.0,0.0,0.0,0.0,0.0,0.0,0.0,0.0,0.0,0.0,0.0,0.0,0.0,0.0,0.0,0.0,0.0,0.0,0.0,0.0,0.0,0.0,0.0,0.0,0.0,0.1223,0.1659,0.1965,0.234,0.0,0.0,0.3455,0.3848,0.3816,0.371,0.3643,0.0,0.0,0.0,0.0,0.0,0.0,0.0,0.0,0.0,0.0,0.0,0.0,0.0,0.0,0.0,0.0,0.0,0.0,0.0,0.0,0.0,0.0,0.0,0.0,0.0,0.0,0.0,0.0,0.0,0.0,0.0,0.0,0.0,0.0,0.0,0.0,0.0,0.0,0.0,0.0,0.0,0.0,0.0,0.0,0.0,0.0,0.0,0.0,0.0,0.0,0.0,0.0,0.0,-1.944,-2.2242,-2.3095,-2.4142,-2.5443,-2.5336,-2.4996,-2.4547,-2.355,-2.2251,0.0,0.0,0.0,0.0,0.0,0.0,0.0,0.0,0.0,0.0,0.0,0.0,0.0,0.0,0.0,0.0,0.0,0.0,0.0,0.0,0.0,0.0,0.0,0.0,0.0,0.0,0.0,0.0,-0.288,-0.2538,-0.2233,0.0,0.0,0.0,0.0,0.0,0.0,0.0,0.0,0.0,0.0,0.1967,0.2525,0.2858,0.0,0.0,0.4045,0.4198,0.4554,0.4554,0.4484,0.4329,0.4168,0.0,0.0,0.0,0.0,0.0,0.0,0.0,0.0,0.0,0.0,0.0,0.0,0.0,0.0,0.0,0.0,0.0,0.0,0.0,0.0,0.0,0.0,0.0,0.0,0.0,0.0,0.0,0.0,0.0,0.0,0.0,0.0,0.0,0.0,0.0,0.0,0.0,0.0,0.0,0.0,0.0,0.0,0.0,0.0,0.0,0.0,0.0,0.0,0.0,0.0,0.0,0.0,-2.0152,-2.2781,-2.3554,-2.4609,-2.5929,-2.5773,-2.5579,-2.5346,-2.4386,-2.3169,0.0,0.0,0.0,0.0,0.0,0.0,0.0,0.0,0.0,0.0,0.0,0.0,0.0,0.0,0.0,0.0,0.0,0.0,0.0,0.0,0.0,0.0,0.0,0.0,0.0,0.0,0.0,0.0,-0.2682,-0.2295,-0.1896,0.0,0.0,0.0,0.0,0.0,0.0,0.0,0.0,0.0,0.0,0.2865,0.3377,0.3752,0.4177,0.4768,0.4852,0.4972,0.531,0.5371,0.529,0.5133,0.0,0.0,0.0,0.0,0.0,0.0,0.0,0.0,0.0,0.0,0.0,0.0,0.0,0.0,0.0,0.0,0.0,0.0,0.0,0.0,0.0,0.0,0.0,0.0,0.0,0.0,0.0,0.0,0.0,0.0,-1.2313,0.0,0.0,0.0,0.0,0.0,0.0,0.0,0.0,0.0,0.0,0.0,0.0,0.0,0.0,0.0,0.0,0.0,0.0,0.0,0.0,0.0,0.0,-2.0721,-2.2797,-2.4114,-2.5417,-2.6707,-2.6639,-2.6426,-2.6186,-2.5213,-2.4131,-2.2935,0.0,0.0,0.0,0.0,0.0,0.0,0.0,0.0,0.0,0.0,0.0,0.0,0.0,0.0,0.0,0.0,0.0,0.0,0.0,0.0,0.0,0.0,0.0,0.0,0.0,0.0,-0.2646,-0.2299,-0.1946,0.0,0.0,0.0,0.0,0.0,0.0,0.0,0.0,0.0,0.0,0.3303,0.3896,0.423,0.4574,0.4993,0.5577,0.5666,0.5793,0.614,0.6171,0.6141,0.0,0.0,0.0,0.0,0.0,0.0,0.0,0.0,0.0,0.0,0.0,0.0,0.0,0.0,0.0,0.0,0.0,0.0,0.0,0.0,0.0,0.0,0.0,0.0,0.0,0.0,0.0,-1.658,-1.626,0.0,0.0,0.0,0.0,0.0,0.0,0.0,0.0,0.0,0.0,0.0,-2.0201,-2.0407,0.0,0.0,0.0,0.0,0.0,0.0,0.0,0.0,0.0,0.0,0.0,0.0,-2.2091,-2.3698,-2.5043,-2.6195,-2.7097,-2.7264,-2.7268,-2.7141,-2.6504,-2.5108,-2.2858,0.0,0.0,0.0,0.0,0.0,0.0,0.0,0.0,0.0,0.0,0.0,0.0,0.0,0.0,0.0,0.0,0.0,0.0,0.0,0.0,0.0,0.0,0.0,0.0,0.0,-0.2529,0.0,0.0,0.0,0.0,0.0,0.0,0.0,0.0,0.0,0.0,0.0,0.3014,0.3498,0.4143,0.475,0.5173,0.5399,0.5781,0.0,0.0,0.0,0.0,0.0,0.0,0.0,0.0,0.0,0.0,0.0,0.0,0.0,0.0,0.6496,0.6077,0.5993,0.6016,0.604,0.0,0.0,0.0,0.0,0.0,0.0,0.0,0.0,0.0,0.0,0.0,0.0,0.0,0.0,-1.874,0.0,-1.8397,0.0,0.0,0.0,0.0,0.0,0.0,0.0,0.0,-2.1151,-2.1911,-2.266,-2.287,-2.2951,0.0,-2.2814,-2.18,0.0,0.0,0.0,0.0,0.0,0.0,0.0,0.0,-2.3363,-2.4962,-2.6113,-2.7122,-2.7976,-2.8174,-2.8176,-2.801,-2.7242,-2.5675,-2.3209,-2.1237,-1.9018,0.0,0.0,0.0,0.0,0.0,0.0,0.0,0.0,0.0,0.0,0.0,0.0,0.0,0.0,0.0,0.0,0.0,0.0,0.0,0.0,0.0,0.0,0.0,-0.1911,0.0,0.0,0.0,0.0,0.0,0.0,0.0,0.0,0.0,0.2358,0.3143,0.3887,0.446,0.5039,0.555,0.5911,0.0,0.0,0.0,0.0,0.0,0.0,0.0,0.8151,0.8003,0.8205,0.8329,0.8186,0.8254,0.838,0.8417,0.0,0.0,0.7252,0.7016,0.7037,0.716,0.7175,0.7245,0.7458,0.7641,0.7918,0.0,0.0,0.0,0.0,0.0,0.0,0.0,0.0,-2.2145,-2.1655,0.0,-2.0825,0.0,0.0,0.0,0.0,0.0,-2.0391,0.0,0.0,-2.3487,-2.4284,-2.5027,-2.5694,-2.6074,-2.6081,-2.5894,-2.5415,-2.4557,-2.2192,0.0,0.0,0.0,0.0,0.0,0.0,-2.4499,-2.6436,-2.7274,-2.8235,-2.9337,-2.9365,-2.9157,-2.879,-2.7468,-2.5895,-2.407,-2.2771,-2.0818,-1.8078,-1.6153,0.0,0.0,0.0,0.0,0.0,0.0,0.0,0.0,0.0,0.0,0.0,0.0,0.0,0.0,0.0,0.0,0.0,0.0,0.0,0.0,-0.1748,0.0,0.0,0.0,0.0,0.0,0.0,0.0,0.0,0.0,0.0,0.3691,0.4011,0.4582,0.5412,0.0,0.0,0.0,0.0,0.7353,0.769,0.7914,0.818,0.8511,0.8959,0.9175,0.8973,0.0,0.0,0.962,0.962,0.9638,0.9805,0.9771,0.9451,0.8302,0.7923,0.7854,0.8081,0.8107,0.8165,0.8305,0.8431,0.8756,-2.4609,0.0,0.0,0.0,0.0,-2.2336,-2.2355,-2.2355,-2.227,-2.2149,-2.1903,-2.1786,0.0,0.0,0.0,0.0,0.0,0.0,-2.3035,-2.356,-2.4882,-2.5642,-2.5866,-2.6019,-2.6092,-2.6092,-2.602,-2.5857,-2.5625,-2.5253,-2.4081,-2.2153,0.0,0.0,0.0,0.0,-2.6246,-2.686,-2.8499,-2.9501,-2.9736,-3.0028,-2.9878,-2.9299,-2.817,-2.7046,-2.6015,-2.382,-2.1672,-1.9687,-1.7102,0.0,0.0,0.0,0.0,0.0,0.0,0.0,0.0,0.0,0.0,0.0,0.0,0.0,0.0,0.0,0.0,0.0,0.0,0.0,-0.1497,-0.0917,-0.0514,0.0,0.0,0.0,0.0,0.0,0.0,0.0,0.0,0.0,0.5248,0.5403,0.5655,0.0,0.0,0.7098,0.7403,0.7773,0.8245,0.8772,0.0,0.0,0.0,0.9999,1.0252,1.019,1.0382,1.0465,1.0361,1.0327,1.0292,1.0159,1.0055,0.9927,0.9736,0.9303,0.906,0.9081,0.8978,0.8904,0.8943,0.8997,0.9154,-2.6341,-2.4466,-2.44,-2.4379,-2.4398,-2.4391,-2.4391,-2.4372,-2.4318,-2.4308,-2.4264,-2.4147,-2.4041,-2.3977,-2.3768,0.0,0.0,0.0,-2.4918,-2.528,-2.6222,-2.6844,-2.7152,-2.7435,-2.7567,-2.7573,-2.7808,-2.7892,-2.7892,-2.8095,-2.7462,-2.6033,0.0,0.0,-2.5725,-2.6927,-2.7809,-2.8322,-2.9544,-3.0283,-3.0437,-3.0479,-3.0236,-2.9716,-2.8876,-2.7983,-2.6951,-2.4991,-2.2936,-2.0831,-1.8333,-1.5915,0.0,0.0,0.0,0.0,0.0,0.0,0.0,0.0,0.0,0.0,0.0,-0.4332,-0.3938,0.0,0.0,0.0,-0.2291,-0.1593,-0.0684,-0.0132,0.0,0.0,0.0,0.0,0.0,0.0,0.0,0.4314,0.5147,0.5883,0.6457,0.6772,0.6935,0.6902,0.7322,0.7727,0.8009,0.0,0.8925,0.9416,0.984,1.0188,1.0506,1.0842,1.109,1.1198,1.1217,1.1175,1.1068,1.1033,1.0962,1.0783,1.0682,1.0653,1.0806,1.0477,1.0084,0.9813,0.9754,0.9741,0.9673,0.9707,0.9851,-2.7806,-2.7792,-2.7657,-2.7528,-2.7415,-2.7407,-2.7388,-2.7407,-2.738,-2.7379,-2.7288,-2.715,-2.7045,-2.6935,-2.6657,0.0,-2.6318,-2.6293,-2.6699,-2.7495,-2.755,-2.802,-2.8817,-2.9549,-2.9893,-2.9893,-3.0508,-3.0783,-3.0733,-3.0493,-3.0375,-3.0342,-2.877,-2.8171,-2.8486,-2.8574,-2.9214,-3.0411,-3.0496,-3.0725,-3.1173,-3.0773,-3.038,-3.0022,-2.9582,-2.8698,-2.7371,-2.6209,-2.4345,-2.1668,-1.9615,-1.7303,-1.4633,0.0,0.0,0.0,0.0,0.0,0.0,0.0,0.0,0.0,0.0,0.0,0.0,0.0,0.0,0.0,-0.1413,0.0,0.0056,0.0639,0.0,0.0,0.0,0.2983,0.3635,0.432,0.4921,0.5395,0.0,0.0,0.7353,0.0,0.8243,0.7686,0.792,0.8255,0.8472,0.8988,0.9471,0.9886,1.0318,1.0756,1.1287,1.1631,1.1923,1.2109,1.1963,1.1851,1.1814,1.1776,1.1702,1.1552,1.1477,1.1476,1.1554,1.1379,1.1061,1.0432,1.0495,1.0539,1.0372,1.0423,1.0581,-2.9503,-2.9503,-2.9471,-2.8726,-2.7566,-2.7485,-2.7471,-2.7471,-2.7422,-2.7357,-2.7301,-2.7158,-2.6972,-2.6772,-2.6586,-2.6458,-2.6392,-2.6885,-2.7562,-2.8328,-2.8938,-2.9658,-3.0423,-3.0636,-3.0713,-3.0713,-3.0778,-3.0736,-3.0661,-3.1031,-3.1176,-3.1078,-3.1192,-3.0673,-2.9616,-3.0037,-3.0439,-3.0698,-3.1213,-3.1387,-3.1193,-3.1012,-3.0675,-3.0241,-2.9875,-2.9268,-2.8342,-2.6639,-2.4772,-2.2747,-1.9686,-1.6931,-1.4611,-1.2206,0.0,0.0,0.0,0.0,0.0,0.0,0.0,0.0,0.0,-0.3582,-0.3248,0.0,-0.2068,0.0,-0.0414,0.0494,0.0961,0.1579,0.0,0.0,0.3105,0.3843,0.4656,0.546,0.6201,0.6842,0.7573,0.8067,0.8141,0.8547,0.8809,0.8651,0.8722,0.8902,0.928,0.9721,1.0188,1.0716,1.1459,1.2096,1.2401,1.2951,1.3264,1.3153,1.3083,1.2979,1.2674,1.2603,1.2563,1.2368,1.2165,1.2118,1.2101,1.1915,1.1653,1.1316,1.1073,1.0878,1.0843,1.0727,1.0638,-3.015,-3.015,-3.0135,-2.9601,-2.8755,-2.8657,-2.8601,-2.8594,-2.8551,-2.8488,-2.8403,-2.8221,-2.7985,-2.7769,-2.7618,-2.7524,-2.7462,-2.778,-2.8364,-2.9156,-2.9585,-3.0237,-3.1016,-3.1361,-3.1514,-3.1508,-3.1704,-3.1748,-3.166,-3.1886,-3.1904,-3.1806,-3.2195,-3.1898,-3.0991,-3.1358,-3.1498,-3.1394,-3.1649,-3.1688,-3.1481,-3.123,-3.0938,-3.0617,-3.0225,-2.9733,-2.9111,-2.7555,-2.5521,-2.2881,-1.9919,-1.693,-1.3946,-1.1556,-0.973,0.0,0.0,0.0,0.0,0.0,0.0,0.0,0.0,0.0,0.0,0.0,-0.1124,-0.0255,0.0535,0.1271,0.1916,0.2462,0.2985,0.3451,0.4249,0.5005,0.5755,0.6553,0.73,0.7905,0.8518,0.8975,0.9087,0.9522,0.9847,0.9847,0.9932,1.0003,1.0008,1.0505,1.1171,1.1601,1.2293,1.2939,1.3256,1.3712,1.3942,1.3745,1.3574,1.3423,1.3193,1.3081,1.2969,1.277,1.2651,1.2576,1.2603,1.2426,1.2253,1.2205,1.1905,1.1528,1.1185,1.1128,1.1122,-3.0376,-3.0338,-3.023,-3.0204,-3.0178,-3.0068,-3.0014,-2.9996,-2.9948,-2.9866,-2.9773,-2.9512,-2.9296,-2.9089,-2.8952,-2.8822,-2.8712,-2.8728,-2.9192,-2.9947,-3.0056,-3.0527,-3.1329,-3.2031,-3.2318,-3.23,-3.2841,-3.3024,-3.2884,-3.2688,-3.2506,-3.2371,-3.2388,-3.2319,-3.2214,-3.2354,-3.2336,-3.2143,-3.1964,-3.1838,-3.18,-3.1445,-3.121,-3.1035,-3.0642,-3.0213,-2.9767,-2.8801,-2.6385,-2.2378,-2.0074,-1.6904,-1.2576,-1.0399,-0.8853,0.0,-0.6742,0.0,0.0,0.0,0.0,0.0,0.0,0.0,0.0,-0.1142,-0.0061,0.1224,0.1516,0.1984,0.2845,0.3326,0.3827,0.4455,0.5404,0.6205,0.6789,0.7553,0.8248,0.8806,0.9373,0.9853,1.0058,1.0629,1.0997,1.1036,1.126,1.1244,1.0818,1.1379,1.201,1.2292,1.2909,1.3531,1.3996,1.4255,1.4342,1.4083,1.3945,1.3698,1.3646,1.3493,1.3293,1.3133,1.3039,1.3024,1.308,1.2911,1.2862,1.2971,1.2711,1.2263,1.1679,1.1601,1.1645,-3.1236,-3.1197,-3.0491,-3.0204,-3.0185,-3.0128,-3.0091,-3.0061,-3.0014,-2.9866,-2.9701,-2.9453,-2.9228,-2.9096,-2.8905,-2.8773,-2.873,-2.9321,-3.002,-3.0799,-3.1433,-3.2162,-3.294,-3.3103,-3.3132,-3.3061,-3.3093,-3.3011,-3.2839,-3.2607,-3.2439,-3.2249,-3.2249,-3.2214,-3.2214,0.0,0.0,0.0,-3.2301,-3.2126,-3.1818,-3.1726,-3.154,-3.1237,-3.1159,0.0,-3.064,-3.0108,-2.7003,-2.1157,-1.9628,0.0,0.0,0.0,0.0,0.0,0.0,0.0,0.0,0.0,0.0,0.0,-0.1751,-0.1354,-0.1064,0.0223,0.1441,0.2321,0.2736,0.3141,0.3654,0.4135,0.4626,0.5081,0.5839,0.6645,0.7541,0.8335,0.9019,0.9622,1.0225,1.0726,1.0994,1.1341,1.1609,1.1808,1.2158,1.238,1.2255,1.2122,1.2145,1.2504,1.3454,1.4326,1.4998,1.5095,1.5018,1.4911,1.4828,1.4634,1.4276,1.4165,1.4103,1.3888,1.3706,1.3532,1.3555,1.34,1.3231,1.313,1.3009,1.282,1.2304,1.204,1.1871,-3.2088,0.0,-3.1637,-3.1217,0.0,-3.0813,-3.0536,-3.0098,-3.0038,-2.9885,-2.9673,-2.9414,-2.9217,-2.9078,-2.8881,-2.898,-2.9312,-2.9647,-3.0455,-3.1614,-3.2017,-3.2614,-3.3393,-3.3393,-3.3319,-3.3216,-3.3512,-3.357,-3.3327,-3.3528,-3.3512,-3.3277,-3.2893,-3.2701,-3.2684,-3.2563,-3.2473,-3.2439,-3.2405,-3.2267,-3.2001,-3.1856,-3.1746,-3.16,0.0,0.0,0.0,0.0,0.0,0.0,0.0,0.0,0.0,0.0,0.0,-0.4565,-0.4258,-0.3834,-0.319,-0.2735,-0.2192,-0.1505,-0.0451,0.0242,0.0336,0.1343,0.2264,0.3011,0.3495,0.3917,0.4367,0.4817,0.5282,0.5756,0.6474,0.7248,0.8052,0.8944,0.9765,1.0505,1.1086,1.1569,1.1884,1.2157,1.2351,1.2491,1.2797,1.3056,1.305,1.2949,1.3019,1.3546,1.4063,1.469,1.5262,1.5389,1.5389,1.5264,1.5173,1.4957,1.4608,1.444,1.4314,1.4166,1.3997,1.3906,1.387,1.3695,1.3483,1.3326,1.3292,1.3157,1.2823,1.2569,1.2359,-3.2928,-3.2909,-3.2749,-3.2336,-3.1706,-3.1694,-3.1187,-3.0296,0.0,0.0,0.0,-2.9434,-2.9267,-2.9119,-2.9063,-2.9368,-2.9899,-3.015,-3.0926,-3.218,-3.2343,-3.2759,-3.3393,-3.3393,-3.3304,-3.3155,-3.3912,-3.4111,-3.3828,-3.4464,-3.4633,-3.4337,-3.3706,-3.3375,-3.3416,-3.3073,-3.2913,-3.2878,-3.2563,-3.2354,-3.2214,-3.1983,-3.1893,-3.193,-3.1911,-3.1966,-3.2127,-3.2193,-2.8306,-2.0067,-1.8332,-1.3791,-0.5582,-0.3838,-0.3093,-0.3001,-0.291,-0.2655,-0.2166,-0.1787,-0.1276,-0.0477,0.0884,0.1696,0.1726,0.231,0.2971,0.3683,0.4164,0.4577,0.5046,0.5394,0.5856,0.6402,0.7099,0.7829,0.8573,0.9451,1.0378,1.1288,1.1869,1.2327,1.2728,1.308,1.3261,1.3328,1.3526,1.3646,1.3646,1.3704,1.3895,1.4518,1.4726,1.4901,1.5257,1.5347,1.5347,1.5305,1.5131,1.4957,1.4692,1.4524,1.4314,1.4124,1.4088,1.4088,1.4082,1.3864,1.3672,1.3504,1.3473,1.3448,1.3286,1.3132,1.2962,-3.3815,-3.3757,-3.3005,-3.2642,-3.2546,-3.2527,-3.1993,-3.1085,-3.0276,-2.9849,-2.969,-2.9532,-2.9372,-2.9233,-2.9749,-2.9966,-2.9984,-3.1315,-3.2051,0.0,-3.2904,-3.3302,-3.3393,-3.3393,-3.3304,-3.3155,-3.3866,-3.4079,-3.3881,-3.432,-3.4485,-3.4406,-3.4152,-3.4121,-3.431,-3.4426,-3.4463,-3.4373,-3.3125,-3.2405,-3.2197,-3.2161,-3.2126,-3.2073,-3.2214,-3.2404,-3.2586,-3.3141,-3.0808,-2.5052,-2.0087,-1.4785,-0.9038,-0.3821,-0.1055,-0.1012,-0.1146,-0.1094,-0.0791,-0.0553,-0.0037,0.094,0.1842,0.2425,0.264,0.3347,0.4055,0.4709,0.5021,0.531,0.5716,0.6028,0.6419,0.6988,0.7484,0.8231,0.933,0.9948,1.0729,1.1768,1.2466,1.3044,1.3472,1.389,1.4226,1.4372,1.4399,1.4482,1.444,1.4237,1.4334,1.488,1.5048,1.5173,1.5347,1.5264,1.5173,1.5138,1.4957,1.4741,1.4482,1.444,1.4314,1.4124,1.4088,1.4088,1.4088,1.3906,1.3743,1.3659,1.3617,1.3565,1.368,1.3703,1.3592,-3.4655,-3.4598,-3.4216,-3.3796,-3.3375,-3.2909,-3.2424,-3.199,-3.1551,-3.0713,-2.9718,-2.957,-2.9634,-2.9906,-3.0115,-3.0613,-3.1344,-3.2028,-3.257,-3.296,-3.3342,-3.3477,-3.3452,-3.3452,-3.3566,-3.3766,-3.446,-3.4901,-3.5084,-3.5511,-3.5721,-3.5625,-3.5166,-3.4768,-3.4463,-3.4652,-3.4743,-3.4689,-3.4058,-3.3477,-3.2932,-3.2861,-3.2669,-3.2284,-3.2371,-3.2607,-3.2894,-3.3411,-3.1082,-2.5454,-1.9525,-1.3752,-0.8131,-0.2181,0.0978,0.0744,0.031,0.0193,0.0463,0.0763,0.122,0.189,0.2728,0.3433,0.393,0.4313,0.4755,0.5267,0.5744,0.6131,0.644,0.6637,0.6992,0.748,0.7987,0.8712,0.9611,1.0559,1.1468,1.2416,1.3153,1.375,1.4193,1.4434,1.465,1.4873,1.4992,1.511,1.5235,1.5075,1.4957,1.509,1.509,1.5173,1.5347,1.534,1.5215,1.5131,1.5006,1.4783,1.4489,1.4398,1.4321,1.4124,1.4088,1.4039,1.3955,1.3779,1.369,1.366,1.3736,1.3755,1.3856,1.3873,1.3791,-3.5182,-3.5182,-3.5182,-3.4846,-3.4216,-3.354,-3.3118,-3.2874,-3.2866,-3.1901,-3.0395,-3.0142,-3.0356,-3.0758,-3.077,-3.1408,-3.2423,-3.2638,-3.3031,-3.355,-3.3605,-3.3577,-3.352,-3.3506,-3.3791,-3.4387,-3.5012,-3.5597,-3.6164,-3.6582,-3.6728,-3.6574,-3.6055,-3.5484,-3.4946,-3.512,-3.5216,-3.5216,-3.5271,-3.4796,-3.381,-3.3721,-3.344,-3.3002,-3.3036,-3.3221,-3.3625,-3.4032,-3.2139,-2.7519,-2.149,-1.5252,-0.8951,-0.2916,0.0997,0.2135,0.1909,0.1591,0.1711,0.2031,0.2428,0.2827,0.3661,0.4533,0.528,0.5556,0.5683,0.5948,0.644,0.6865,0.7057,0.7215,0.7522,0.7987,0.8537,0.9266,1.0024,1.1131,1.2218,1.3102,1.39,1.4454,1.4783,1.4943,1.5117,1.5333,1.545,1.5609,1.5741,1.5782,1.5665,1.5416,1.5257,1.5298,1.5389,1.534,1.5257,1.5131,1.5048,1.4824,1.4566,1.444,1.4363,1.4208,1.413,1.3997,1.3779,1.3646,1.363,1.3623,1.3689,1.3787,1.3907,1.3874,1.3865,-3.5201,-3.5182,-3.5182,-3.5163,-3.5037,-3.4934,-3.4454,-3.375,-3.3684,-3.3086,-3.2091,-3.1928,-3.1784,-3.1782,-3.2243,-3.2507,-3.2619,-3.3246,-3.3565,-3.3587,-3.3605,-3.3605,-3.3573,-3.352,-3.3884,-3.4581,-3.508,-3.5666,-3.6327,-3.6621,-3.665,-3.6385,-3.6495,-3.6528,-3.6478,-3.6643,-3.6761,-3.6779,-3.6796,-3.6076,-3.4706,-3.4582,-3.4566,-3.4587,-3.4677,-3.4923,-3.5186,-3.5657,-3.5814,-3.5246,-2.9539,-2.2876,-1.5451,-0.9264,-0.2902,0.3658,0.3786,0.3376,0.3002,0.313,0.3456,0.396,0.4816,0.5682,0.6552,0.7174,0.7302,0.7036,0.7184,0.7492,0.7706,0.7748,0.8012,0.856,0.9062,0.9845,1.1004,1.1875,1.2771,1.3889,1.4552,1.5082,1.5318,1.5658,1.5914,1.5963,1.5997,1.6038,1.6121,1.6079,1.6038,1.5955,1.579,1.5575,1.5506,1.5257,1.5215,1.5124,1.4908,1.4776,1.465,1.4524,1.4405,1.4405,1.4243,1.4039,1.3779,1.3587,1.3582,1.3748,1.3758,1.3642,1.3838,1.3865,1.3883,-3.566,-3.5201,-3.5182,-3.5182,-3.5182,-3.5176,-3.4963,-3.4579,-3.4498,-3.4169,-3.3739,-3.3569,-3.3145,-3.2521,-3.2717,-3.2968,-3.329,-3.362,-3.3734,-3.3726,-3.3694,-3.3698,-3.3675,-3.3629,-3.4171,-3.5188,-3.5379,-3.5933,-3.677,-3.681,-3.6606,-3.6343,-3.6564,-3.6719,-3.6722,-3.6888,-3.6989,-3.6989,-3.6989,-3.6691,-3.6111,-3.5601,-3.5164,-3.4852,-3.4942,-3.5154,-3.5491,-3.5823,-3.6174,-3.6189,-3.0489,-2.3432,-1.567,-0.9334,-0.2443,0.4777,0.4863,0.4237,0.3944,0.4116,0.4448,0.49,0.5773,0.6605,0.7357,0.8102,0.8521,0.8422,0.8286,0.8338,0.8645,0.8582,0.8699,0.9204,0.9787,1.053,1.1467,1.2418,1.3397,1.4307,1.495,1.5443,1.5741,1.6079,1.6319,1.6409,1.6451,1.6492,1.6648,1.6574,1.6409,1.6278,1.6196,1.6031,1.5839,1.5756,1.5582,1.5367,1.5193,1.5061,1.4776,1.465,1.4566,1.4566,1.4447,1.4243,1.3997,1.377,1.3649,1.3849,1.4031,1.3968,1.3896,1.3786,1.3642,-3.6137,-3.5564,-3.5305,-3.5182,-3.5185,-3.5198,-3.5138,-3.5029,-3.4936,-3.4811,-3.4666,-3.4528,-3.4053,-3.3363,-3.3179,-3.3386,-3.3784,-3.3807,-3.3807,-3.3807,-3.3807,-3.378,-3.3739,-3.3698,-3.4426,-3.5577,-3.5604,-3.6146,-3.7158,-3.6908,-3.6582,-3.644,-3.6585,-3.6719,-3.6722,-3.6888,-3.6989,-3.6989,-3.695,-3.6968,-3.69,-3.6369,-3.5883,-3.5541,-3.5561,-3.5794,-3.6139,-3.6367,-3.6678,-3.6952,-3.2502,-2.643,-1.861,-1.1782,-0.3589,0.5446,0.5845,0.5212,0.5122,0.5167,0.5464,0.6048,0.6768,0.7529,0.8246,0.9002,0.9544,0.9851,0.9629,0.9562,0.9478,0.9416,0.9497,0.9781,1.0471,1.1238,1.191,1.3013,1.4097,1.4859,1.5484,1.594,1.6368,1.6607,1.6779,1.6861,1.6902,1.6943,1.7106,1.7025,1.682,1.6722,1.6689,1.6484,1.6211,1.6053,1.5914,1.5741,1.5609,1.5492,1.511,1.5068,1.4943,1.4985,1.4734,1.4482,1.4243,1.4024,1.3962,1.4084,1.4266,1.4339,1.4112,1.3877,1.3588,-3.6481,-3.6309,-3.5553,-3.5185,-3.5189,-3.5181,-3.5084,-3.4927,-3.4898,-3.4791,-3.4594,-3.4461,-3.4255,-3.4006,-3.3894,-3.3884,-3.382,-3.3807,-3.3807,-3.3807,-3.3807,-3.3788,-3.3775,-3.3758,-3.4501,-3.5845,-3.57,-3.6111,-3.7057,-3.6829,-3.6623,-3.6485,-3.6643,-3.6719,-3.6725,-3.6908,-3.6989,-3.697,-3.6908,-3.6888,-3.6987,-3.6836,-3.6865,-3.7029,-3.7155,-3.7271,-3.7666,-3.7891,-3.8103,-3.8472,-3.8077,-3.4555,-2.6857,-1.8748,-0.7473,0.5039,0.6741,0.6445,0.6612,0.6474,0.6656,0.7321,0.7825,0.8507,0.9343,0.99,1.0459,1.1101,1.1078,1.0844,1.0237,1.0144,1.0209,1.0236,1.1054,1.1844,1.2512,1.3783,1.4859,1.5567,1.6188,1.6689,1.7229,1.7343,1.731,1.731,1.7359,1.7351,1.7351,1.7351,1.731,1.727,1.7229,1.7066,1.6335,1.6335,1.6252,1.6121,1.6154,1.6087,1.5955,1.5865,1.5609,1.5401,1.52,1.4908,1.4524,1.4394,1.4439,1.4576,1.4777,1.476,1.4472,1.4346,1.401,-3.7455,-3.6424,-3.5572,-3.5185,-3.5181,-3.5155,-3.5057,-3.4889,-3.4801,-3.4678,-3.4528,-3.434,-3.4185,-3.4036,-3.3972,-3.3881,-3.382,-3.3807,-3.3807,-3.3807,-3.3807,-3.3807,-3.3788,-3.378,-3.454,-3.5766,-3.5763,-3.6144,-3.6969,-3.6829,-3.6664,-3.6643,-3.6681,-3.6705,-3.6788,-3.6928,-3.6989,-3.6989,-3.693,-3.695,-3.6989,-3.6968,-3.7046,-3.7278,-3.7297,-3.7429,-3.7775,-3.7916,-3.8104,-3.8385,-3.8649,-3.5147,-2.6745,-1.454,-0.538,0.0155,0.4957,0.7625,0.7665,0.7621,0.7797,0.8321,0.8807,0.9423,1.012,1.0679,1.1111,1.152,1.1989,1.1927,1.1537,1.1022,1.0727,1.0866,1.1543,1.2393,1.3247,1.4342,1.5401,1.6064,1.6722,1.7237,1.7351,1.7392,1.7432,1.7546,1.7473,1.7473,1.7546,1.7514,1.7432,1.7392,1.7392,1.727,1.7066,1.6943,1.6902,1.682,1.6738,1.6607,1.6525,1.6319,1.6105,1.6023,1.5782,1.5492,1.52,1.5021,1.5045,1.5089,1.5265,1.5222,1.4835,1.4813,1.4394,-3.8009,-3.6519,-3.5853,-3.5427,-3.5174,-3.5075,-3.4964,-3.4831,-3.471,-3.4561,-3.4386,-3.4233,-3.4099,-3.3972,-3.3913,-3.3842,-3.3807,-3.3807,-3.3807,-3.3807,-3.3807,-3.3807,-3.3807,-3.3807,-3.444,-3.5511,-3.5865,-3.6362,-3.7025,-3.6886,-3.6763,-3.6725,-3.6725,-3.6786,-3.6869,-3.6952,-3.7029,-3.7029,-3.7027,-3.6989,-3.6989,-3.6989,-3.7122,-3.7278,-3.7316,-3.7466,-3.7667,-3.7775,-3.7951,-3.8206,-3.8382,-3.4889,-2.6475,-1.6704,-0.8362,-0.3389,0.1573,0.5996,0.836,0.8684,0.8899,0.9414,0.9724,1.0202,1.089,1.1284,1.1671,1.2057,1.2485,1.2729,1.249,1.1952,1.16,1.166,1.2206,1.2902,1.3746,1.4916,1.5895,1.6722,1.7253,1.7546,1.7595,1.7595,1.7676,1.7781,1.7668,1.7676,1.7749,1.7708,1.7595,1.7595,1.7595,1.7635,1.7514,1.7473,1.731,1.7188,1.7147,1.7057,1.6976,1.6812,1.664,1.6558,1.6394,1.6147,1.5921,1.5694,1.567,1.5713,1.5756,1.5717,1.553,1.5384,1.501,-3.8047,-3.6702,-3.6419,-3.587,-3.5227,-3.4993,-3.4821,-3.4708,-3.4634,-3.4461,-3.4245,-3.4136,-3.4023,-3.3908,-3.3847,-3.3807,-3.3807,-3.3807,-3.3807,-3.3807,-3.3807,-3.3807,-3.3807,-3.3807,-3.4151,-3.4932,-3.5905,-3.6648,-3.7136,-3.6933,-3.6788,-3.6809,-3.6829,-3.6888,-3.6989,-3.705,-3.7108,-3.7089,-3.7048,-3.6989,-3.6989,-3.6989,-3.7105,-3.7295,-3.7354,-3.7485,-3.7667,-3.7703,-3.7792,-3.7984,-3.8189,-3.4621,-2.8807,-2.5695,-1.9518,-0.6956,-0.316,0.1426,0.8094,0.9356,0.9946,1.0419,1.0593,1.0939,1.1585,1.1886,1.2186,1.2619,1.2912,1.3073,1.3074,1.294,1.2787,1.2696,1.2923,1.35,1.4311,1.5416,1.6492,1.7416,1.7829,1.7991,1.7991,1.791,1.787,1.7919,1.7878,1.7829,1.7829,1.7838,1.7919,1.7919,1.7797,1.7716,1.7838,1.7919,1.7676,1.7473,1.7473,1.7392,1.7392,1.7261,1.7131,1.7049,1.6968,1.6681,1.6458,1.6293,1.6382,1.6402,1.6378,1.6363,1.6323,1.6181,1.5805,-3.8668,-3.8002,-3.6878,-3.6196,-3.5771,-3.5135,-3.4742,-3.4634,-3.4506,-3.4381,-3.4197,-3.4086,-3.4004,-3.3895,-3.3829,-3.3807,-3.3807,-3.3807,-3.3807,-3.3807,-3.3807,-3.3807,-3.3807,-3.3807,-3.4091,-3.4727,-3.5837,-3.6399,-3.6498,-3.6687,-3.6831,-3.6928,-3.693,-3.697,-3.7087,-3.7184,-3.7203,-3.7108,-3.7069,-3.7048,-3.6989,-3.7048,-3.7145,-3.7297,-3.7354,-3.7467,-3.7631,-3.7631,-3.7667,-3.7792,-3.7984,-3.7087,-3.4535,-2.9809,-2.4633,-1.8992,-0.7879,-0.138,0.203,0.7458,1.0618,1.1284,1.137,1.1714,1.2272,1.2448,1.2662,1.3094,1.3392,1.3552,1.369,1.3706,1.3487,1.3068,1.3447,1.4112,1.4995,1.6158,1.7147,1.7749,1.7951,1.7991,1.7951,1.791,1.7829,1.7789,1.7716,1.7635,1.7595,1.7635,1.7595,1.7595,1.7595,1.7635,1.7676,1.7716,1.7595,1.7514,1.7554,1.7595,1.7635,1.7635,1.7546,1.7505,1.7383,1.7229,1.7,1.6907,1.6952,1.699,1.69,1.6952,1.7144,1.6953,1.6589,-3.9251,-3.8785,-3.7737,-3.7043,-3.6547,-3.5634,-3.5133,-3.4963,-3.4539,-3.43,-3.4161,-3.4074,-3.3998,-3.3934,-3.3868,-3.3829,-3.3847,-3.382,-3.3807,-3.3807,-3.3807,-3.3807,-3.3775,-3.3739,-3.4002,-3.4503,-3.5194,-3.5741,-3.6109,-3.6322,-3.663,-3.6974,-3.7029,-3.7089,-3.7204,-3.7279,-3.7279,-3.7185,-3.7166,-3.7126,-3.7087,-3.7126,-3.7222,-3.7334,-3.7429,-3.7522,-3.7595,-3.7595,-3.7613,-3.7703,-3.788,-3.8219,-3.8133,-3.3846,-2.9939,-2.5145,-1.7288,-0.8641,-0.2158,0.36,0.8693,1.1043,1.2057,1.232,1.2839,1.2966,1.3137,1.344,1.3701,1.3948,1.4168,1.4255,1.4117,1.3952,1.4175,1.4822,1.5736,1.675,1.7448,1.7789,1.7951,1.7951,1.787,1.7789,1.7659,1.7578,1.7465,1.7392,1.7392,1.7392,1.7392,1.7392,1.7432,1.7473,1.7432,1.7432,1.7432,1.7473,1.7554,1.7635,1.7708,1.7668,1.7619,1.7749,1.7708,1.7668,1.7481,1.7359,1.7359,1.7327,1.7394,1.7525,1.7646,1.7591,1.7329,-3.9776,-3.8985,-3.8833,-3.8212,-3.7368,-3.64,-3.5837,-3.5521,-3.4818,-3.4345,-3.4142,-3.4099,-3.4061,-3.3985,-3.3939,-3.3895,-3.3895,-3.3847,-3.382,-3.382,-3.382,-3.3807,-3.3793,-3.3671,-3.388,-3.4253,-3.4243,-3.478,-3.5668,-3.5748,-3.6185,-3.686,-3.6932,-3.7169,-3.7283,-3.7375,-3.7213,-3.7121,-3.7084,-3.6958,-3.6828,-3.6993,-3.7086,-3.7126,-3.7219,-3.7255,-3.7238,-3.7202,-3.738,-3.7613,-3.7862,-3.8119,-3.8382,-3.8585,-3.4586,-2.8453,-2.6883,-1.7673,-0.6538,-0.0821,0.3179,0.9645,1.182,1.2918,1.3264,1.3355,1.3483,1.3737,1.3997,1.4201,1.444,1.458,1.4768,1.5032,1.5063,1.5538,1.6454,1.7057,1.7424,1.7668,1.7829,1.7878,1.77,1.7659,1.7546,1.7432,1.7351,1.727,1.727,1.7229,1.731,1.731,1.7188,1.7098,1.7017,1.6943,1.6902,1.6943,1.7147,1.7383,1.7627,1.7668,1.77,1.7829,1.7951,1.7951,1.791,1.7789,1.7784,1.7895,1.7944,1.8042,1.8049,1.8047,1.7932,-4.0101,-3.9718,-3.908,-3.8571,-3.8096,-3.7224,-3.6404,-3.5729,-3.5421,-3.4785,-3.4235,-3.4099,-3.4055,-3.3998,-3.3985,-3.3972,-3.3959,-3.3913,-3.3887,-3.3868,-3.3815,-3.3807,-3.378,-3.3657,-3.3629,-3.3743,-3.3968,-3.4226,-3.4447,-3.4887,-3.5485,-3.6262,-3.6337,-3.6713,-3.7251,-3.6862,-3.6648,-3.6469,-3.5954,-3.5669,-3.5579,-3.5687,-3.5687,-3.5723,-3.5847,-3.5899,-3.5846,-3.5776,-3.6435,-3.7614,-3.788,-3.8052,-3.8094,-3.8368,-3.7285,-3.4709,-2.9377,-2.4902,-1.8217,-0.7807,0.0071,0.3485,0.9107,1.3124,1.3568,1.361,1.3815,1.411,1.4321,1.4489,1.4831,1.4957,1.5166,1.5484,1.5595,1.5916,1.6453,1.6894,1.7261,1.7432,1.7554,1.7554,1.7465,1.7375,1.7253,1.718,1.7057,1.6935,1.6984,1.6984,1.6984,1.6853,1.6771,1.6681,1.6607,1.6451,1.6417,1.6376,1.6574,1.6935,1.7261,1.7587,1.7659,1.7781,1.787,1.791,1.8031,1.8031,1.82,1.8286,1.8286,1.8271,1.8454,1.8496,1.8406,-4.0234,-4.009,-3.9604,-3.9266,-3.898,-3.815,-3.7216,-3.6323,-3.5829,-3.513,-3.4394,-3.4197,-3.4161,-3.4142,-3.4074,-3.4055,-3.4036,-3.3972,-3.3952,-3.3934,-3.3887,-3.3847,-3.378,-3.3684,-3.3577,-3.3441,-3.3651,-3.3789,-3.3947,-3.4252,-3.4836,-3.5491,-3.5669,-3.5971,-3.6328,-3.6132,-3.5865,-3.5723,-3.5314,-3.5048,-3.4995,-3.5066,-3.5118,-3.5153,-3.5187,-3.5186,-3.517,-3.5136,-3.5616,-3.6434,-3.6735,-3.6924,-3.7073,-3.7351,-3.7574,-3.7406,-3.3195,-2.9738,-2.4776,-1.5818,-0.7866,-0.1006,0.5596,0.9576,1.2821,1.3977,1.4188,1.444,1.4608,1.4831,1.5048,1.5173,1.534,1.5533,1.579,1.6079,1.636,1.6722,1.7017,1.7229,1.7351,1.7343,1.7196,1.6952,1.6822,1.6935,1.6812,1.6771,1.673,1.6454,1.5526,1.4203,1.4571,1.4633,1.4918,1.5031,1.5737,1.5816,1.6203,1.6484,1.6935,1.7383,1.7505,1.7587,1.7749,1.791,1.7991,1.8112,1.8227,1.825,1.8355,1.8459,1.8574,1.8625,1.8553,-4.0253,-4.0196,-4.0196,-4.0087,-3.9789,-3.9053,-3.8169,-3.7201,-3.6393,-3.5499,-3.4715,-3.4414,-3.4305,-3.4311,-3.4173,-3.4124,-3.4111,-3.4018,-3.3992,-3.3972,-3.3934,-3.3881,-3.3829,-3.3739,-3.3615,-3.3495,-3.3256,-3.3452,-3.3669,-3.3734,-3.4162,-3.4747,-3.4959,-3.5118,-3.5383,-3.5221,-3.508,-3.4993,-3.4744,-3.4602,-3.4585,-3.4602,-3.4601,-3.4652,-3.4669,-3.4671,-3.4656,-3.4693,-3.4799,-3.4835,-3.5133,-3.5552,-3.5728,-3.5851,-3.6088,-3.6446,-3.6094,-3.3357,-2.7659,-2.497,-1.7961,-0.4874,-0.0277,0.4566,1.1933,1.4349,1.4482,1.4741,1.4957,1.5048,1.518,1.5298,1.5389,1.5465,1.5575,1.5858,1.6229,1.6525,1.673,1.6668,1.6709,1.5725,1.5566,1.4812,1.3376,0.6664,0.7731,0.7339,0.7257,0.6838,0.7352,0.8407,0.979,1.2099,1.2764,1.3501,1.4497,1.5245,1.5771,1.6196,1.6648,1.7025,1.7229,1.7351,1.7514,1.7668,1.7829,1.7959,1.8121,1.8218,1.829,1.8379,1.8484,1.8439,1.836,-4.0253,-4.0196,-4.0196,-4.0127,-3.9967,-3.9756,-3.9121,-3.8116,-3.7313,-3.6359,-3.5503,-3.4772,-3.4404,-3.4305,-3.425,-3.4221,-3.4173,-3.4093,-3.4049,-3.3998,-3.3985,-3.3972,-3.3921,-3.3807,-3.3657,-3.3563,-3.3422,-3.3319,-3.3261,-3.3293,-3.3462,-3.407,-3.4229,-3.4547,-3.5093,-3.4595,-3.4363,-3.4272,-3.3793,-3.3528,-3.3512,-3.3528,-3.3528,-3.3543,-3.3508,-3.3355,-3.3186,-3.3135,-3.3135,-3.3487,-3.4405,-3.5144,-3.5326,-3.5573,-3.5726,-3.5944,-3.6292,-3.5604,-3.32,-2.7654,-2.0067,-1.0422,-0.272,0.5297,1.3137,1.4462,1.4657,1.495,1.5082,1.5108,1.522,1.5333,1.5347,1.534,1.5423,1.5541,1.5816,1.6079,1.6327,1.475,1.0385,0.6021,0.5878,0.0101,-0.191,-0.3937,-0.399,-0.4411,-0.3482,-0.2223,-0.0997,0.0991,0.075,0.2375,0.4563,0.5411,0.6767,0.9389,1.1365,1.3113,1.3647,1.6525,1.6689,1.6935,1.7229,1.7383,1.7505,1.7797,1.7959,1.808,1.8152,1.8175,1.8222,1.8186,1.8121,-4.0291,-4.0253,-4.0253,-4.0177,-4.0109,-4.0078,-3.9542,-3.8595,-3.7757,-3.6841,-3.5894,-3.4972,-3.4547,-3.442,-3.434,-3.4281,-3.4233,-3.4166,-3.4093,-3.4061,-3.4049,-3.4036,-3.3998,-3.3895,-3.3775,-3.3698,-3.3605,-3.3419,-3.3226,-3.3091,-3.318,-3.344,-3.3477,-3.3669,-3.4178,-3.3841,-3.3641,-3.3633,-3.3277,-3.2995,-3.2948,-3.2932,-3.2916,-3.29,-3.2868,-3.2771,-3.2658,-3.2591,-3.259,-3.2835,-3.3538,-3.4167,-3.4361,-3.4555,-3.4706,-3.4903,-3.5479,-3.5721,-3.4083,-3.1843,-2.6157,-1.7218,-0.8909,-0.0495,0.7451,1.1812,1.4503,1.4734,1.4734,1.4722,1.4846,1.5032,1.5061,1.5075,1.5075,1.5117,1.5213,1.5553,1.3878,1.0834,0.5832,0.1066,-0.3505,-0.9885,-1.0318,-0.9134,-0.8663,-0.8931,-0.8029,-0.7147,-0.8138,-0.7678,-0.8961,-0.816,-0.5346,-0.3823,-0.2977,0.0137,0.3674,0.5758,0.7397,1.1697,1.6147,1.6435,1.6771,1.6935,1.7098,1.7465,1.7716,1.7716,1.7757,1.7878,1.784,1.7647,1.7638,-4.032,-4.032,-4.031,-4.0281,-4.0234,-4.0206,-3.9805,-3.8976,-3.7947,-3.7128,-3.6214,-3.5233,-3.4678,-3.4602,-3.4439,-3.434,-3.4281,-3.4215,-3.4142,-3.4124,-3.4111,-3.4105,-3.4067,-3.4023,-3.3959,-3.3829,-3.3739,-3.3605,-3.3404,-3.3241,-3.3158,-3.3064,-3.2999,-3.3176,-3.31,-3.3028,-3.3165,-3.3242,-3.3173,-3.3039,-3.2995,-3.2997,-3.2948,-3.29,-3.2852,-3.2755,-3.2622,-3.2556,-3.2539,-3.2588,-3.2588,-3.2786,-3.3008,-3.3196,-3.3367,-3.3621,-3.4452,-3.4821,-3.5,-3.4428,-3.1303,-2.36,-1.7086,-0.8961,-0.0514,0.4976,0.7541,0.9712,0.9963,1.2176,1.3816,1.4371,1.449,1.4532,1.4559,1.4019,1.2902,1.3123,0.9236,0.4537,-0.2468,-0.8956,-1.2344,-1.692,-1.553,-1.4604,-1.4375,-1.4247,-1.3899,-1.4797,-1.7291,-1.9369,-2.1325,-1.8273,-1.5059,-0.9206,-0.8847,-0.81,-0.4196,-0.1174,0.1495,0.6404,1.1132,1.5424,1.6319,1.6484,1.6689,1.6935,1.7147,1.7229,1.731,1.7351,1.7261,1.7098,1.7078,-4.032,-4.031,-4.0318,-4.0298,-4.0298,-4.0344,-4.0211,-3.9793,-3.8306,-3.7574,-3.71,-3.5619,-3.481,-3.4687,-3.4602,-3.4461,-3.4316,-3.4245,-3.4197,-3.4185,-3.4173,-3.4179,-3.4161,-3.4148,-3.4111,-3.4005,-3.3895,-3.3726,-3.3563,-3.3437,-3.3226,-3.3075,-3.3042,-3.3088,-3.3088,-3.3086,-3.315,-3.3229,-3.318,-3.3119,-3.3042,-3.2995,-3.2963,-3.2916,-3.2868,-3.2787,-3.2655,-3.2606,-3.2589,-3.2588,-3.2588,-3.2753,-3.2961,-3.3104,-3.3241,-3.3473,-3.3759,-3.4068,-3.4188,-3.406,-3.0005,-2.3967,-2.0079,-1.5907,-0.9334,-0.5497,-0.2597,-0.1904,0.1821,0.6347,1.3047,1.1793,1.3204,1.3451,1.1936,1.0063,0.5205,0.2553,0.2173,-0.1741,-1.1035,-1.9696,-2.2287,-2.4908,-2.5938,-2.6088,-2.623,-2.6703,-2.7086,-2.8704,-3.1242,-3.3157,-3.4924,-2.9934,-2.4594,-1.7233,-1.3186,-1.435,-1.1595,-0.7517,-0.4089,0.0897,0.5549,1.0224,1.4388,1.6162,1.6327,1.6492,1.6607,1.6738,1.6779,1.682,1.673,1.6648,1.6443,-4.032,-4.031,-4.0327,-4.0335,-4.0362,-4.0379,-4.0147,-3.9563,-3.8372,-3.75,-3.6744,-3.5636,-3.4936,-3.4791,-3.4636,-3.4506,-3.4381,-3.4281,-3.4257,-3.4245,-3.4221,-3.4221,-3.4227,-3.4245,-3.4252,-3.4173,-3.4061,-3.39,-3.3698,-3.352,-3.336,-3.3244,-3.3165,-3.3135,-3.3196,-3.3241,-3.3289,-3.3319,-3.3319,-3.3256,-3.3137,-3.3075,-3.2963,-3.2916,-3.2868,-3.2787,-3.2722,-3.2622,-3.2639,-3.2672,-3.2724,-3.2804,-3.293,-3.307,-3.3178,-3.336,-3.352,-3.3633,-3.3716,-3.3703,-3.1786,-2.8576,-2.4543,-2.0365,-1.5858,-1.2321,-1.0601,-0.9079,-0.7649,-0.1306,0.5552,0.3852,0.3405,0.5456,0.4056,-0.0101,-0.4501,-0.8904,-1.0066,-1.0235,-1.7511,-2.5195,-3.0866,-3.3547,-3.6313,-3.7442,-3.7326,-3.736,-3.7464,-3.7531,-3.7671,-3.7569,-3.7444,-3.5343,-3.0729,-2.6234,-2.106,-2.1368,-1.9874,-1.5765,-1.0832,-0.6362,-0.0237,0.5635,0.9584,1.3756,1.5955,1.6113,1.6154,1.6196,1.6286,1.6327,1.6286,1.6154,1.5948,-4.032,-4.031,-4.0308,-4.0362,-4.0388,-4.0413,-3.9959,-3.9149,-3.8292,-3.7373,-3.6449,-3.5562,-3.5047,-3.4908,-3.472,-3.455,-3.4439,-3.4351,-3.4316,-3.4305,-3.4281,-3.4281,-3.4305,-3.4316,-3.4316,-3.4293,-3.4197,-3.4074,-3.3815,-3.3657,-3.352,-3.339,-3.3256,-3.3259,-3.3352,-3.339,-3.3422,-3.3452,-3.3495,-3.3452,-3.3322,-3.3137,-3.2979,-3.2916,-3.287,-3.2838,-3.2773,-3.2706,-3.2706,-3.2773,-3.2805,-3.287,-3.2979,-3.3088,-3.3226,-3.3393,-3.352,-3.3619,-3.3689,-3.3766,-3.3442,-3.2119,-2.7656,-2.5141,-2.3506,-1.9927,-1.5552,-1.3471,-1.2757,-0.9695,-0.3954,-0.6666,-0.6482,-0.457,-0.675,-1.1938,-1.4164,-1.7711,-2.1965,-2.3646,-2.6654,-2.9591,-3.4285,-3.5578,-3.6952,-3.7051,-3.6932,-3.6863,-3.6928,-3.6813,-3.6856,-3.6809,-3.6864,-3.7204,-3.5656,-3.5297,-3.1903,-3.1445,-2.9156,-2.5466,-1.9874,-1.4363,-0.7497,-0.0339,0.5818,0.981,1.2694,1.5496,1.5575,1.5575,1.5748,1.5748,1.5616,1.5484,1.5318,-4.032,-4.031,-4.0344,-4.0407,-4.0424,-4.0479,-4.0038,-3.9165,-3.827,-3.7417,-3.6423,-3.5635,-3.5143,-3.5011,-3.48,-3.4636,-3.455,-3.4461,-3.4404,-3.4393,-3.4381,-3.4363,-3.4374,-3.4386,-3.4393,-3.4363,-3.4269,-3.4086,-3.3921,-3.3802,-3.3671,-3.3534,-3.3534,-3.352,-3.3477,-3.3563,-3.3559,-3.3577,-3.3577,-3.352,-3.3378,-3.3196,-3.3073,-3.2995,-3.2963,-3.2934,-3.2854,-3.2805,-3.2805,-3.2821,-3.2868,-3.2916,-3.3028,-3.3186,-3.3307,-3.3408,-3.3524,-3.3601,-3.3661,-3.3753,-3.3788,-3.378,-3.1895,-3.2141,-3.0437,-2.9755,-2.6101,-2.1366,-2.1244,-1.7879,-1.1987,-1.1474,-1.0826,-1.1216,-1.2799,-1.7455,-2.0888,-2.3695,-2.8271,-3.0499,-3.1428,-3.2937,-3.6043,-3.6337,-3.6682,-3.6607,-3.6533,-3.6441,-3.6305,-3.614,-3.6149,-3.6093,-3.6192,-3.6507,-3.6893,-3.7056,-3.7468,-3.8083,-3.6083,-3.2944,-2.7781,-2.1213,-1.4013,-0.7014,-0.0807,0.5643,0.9787,1.2314,1.4042,1.495,1.5117,1.5026,1.4859,1.4776,1.4776,-4.0309,-4.0318,-4.0381,-4.0424,-4.0458,-4.0492,-3.9746,-3.8661,-3.8146,-3.7168,-3.6028,-3.5496,-3.519,-3.5084,-3.4898,-3.4761,-3.4687,-3.458,-3.4495,-3.4461,-3.4439,-3.4439,-3.4443,-3.4443,-3.4461,-3.445,-3.4386,-3.4305,-3.4124,-3.3947,-3.3775,-3.3753,-3.3712,-3.3698,-3.3671,-3.3739,-3.3712,-3.3671,-3.3619,-3.352,-3.3404,-3.3301,-3.3196,-3.3055,-3.3073,-3.3008,-3.2995,-3.2979,-3.2963,-3.2995,-3.3057,-3.3152,-3.3211,-3.3349,-3.3455,-3.3524,-3.3647,-3.3712,-3.3726,-3.3802,-3.3842,-3.3855,-3.3829,-3.3469,-3.3788,-3.369,-3.3191,-2.9627,-2.9354,-2.5745,-2.1298,-2.2472,-2.1126,-2.0675,-2.067,-2.4041,-2.7859,-2.9652,-3.2547,-3.4432,-3.5736,-3.5848,-3.5977,-3.6084,-3.596,-3.5686,-3.5624,-3.5542,-3.5427,-3.5285,-3.5341,-3.5453,-3.559,-3.5792,-3.6196,-3.6512,-3.6863,-3.7437,-3.814,-3.5316,-3.3461,-2.7746,-2.0836,-1.5788,-1.1143,-0.3934,0.4517,1.0036,1.2634,1.3682,1.4433,1.444,1.4398,1.4524,1.444,-4.0334,-4.0362,-4.0396,-4.0449,-4.051,-4.0492,-3.9554,-3.8104,-3.8007,-3.7024,-3.5751,-3.5342,-3.5231,-3.5126,-3.5001,-3.4898,-3.481,-3.4697,-3.4623,-3.4539,-3.4476,-3.4484,-3.4506,-3.4517,-3.4528,-3.4558,-3.4517,-3.4473,-3.4363,-3.4191,-3.4086,-3.4004,-3.3908,-3.3881,-3.39,-3.39,-3.3873,-3.3807,-3.3726,-3.3643,-3.3563,-3.3491,-3.339,-3.3286,-3.3226,-3.3196,-3.318,-3.318,-3.318,-3.3196,-3.3286,-3.3378,-3.3419,-3.352,-3.3619,-3.3703,-3.3793,-3.3868,-3.3895,-3.3959,-3.3967,-3.3998,-3.4023,-3.3985,-3.4023,-3.4161,-3.4183,-3.3352,-3.3582,-3.0927,-2.8998,-3.1304,-2.9872,-2.9359,-3.0511,-3.3325,-3.4931,-3.4147,-3.3769,-3.4594,-3.5311,-3.5191,-3.533,-3.5476,-3.5304,-3.4869,-3.471,-3.473,-3.4781,-3.4869,-3.5022,-3.5287,-3.5362,-3.5495,-3.5685,-3.6046,-3.6375,-3.6785,-3.7483,-3.7526,-3.5552,-3.3292,-2.8376,-2.4086,-2.0155,-1.3401,-0.4915,0.3463,1.1334,1.2713,1.3851,1.4019,1.4062,1.4146,1.4062,-4.0432,-4.0493,-4.0482,-4.0502,-4.0491,-4.0492,-3.9534,-3.8027,-3.7969,-3.6966,-3.552,-3.5323,-3.527,-3.5182,-3.5115,-3.5019,-3.4898,-3.481,-3.4739,-3.4676,-3.4634,-3.4602,-3.4612,-3.4623,-3.4634,-3.4655,-3.4634,-3.4634,-3.4626,-3.4531,-3.4363,-3.4228,-3.4148,-3.4111,-3.4074,-3.4049,-3.4023,-3.3972,-3.3908,-3.3868,-3.3802,-3.3739,-3.3643,-3.3559,-3.3488,-3.3433,-3.3411,-3.3422,-3.3404,-3.3419,-3.3534,-3.3605,-3.3661,-3.3739,-3.3815,-3.3895,-3.3972,-3.4043,-3.4136,-3.4124,-3.4099,-3.4111,-3.4161,-3.4233,-3.4269,-3.4328,-3.4431,-3.455,-3.4655,-3.443,-3.3518,-3.4312,-3.3617,-3.359,-3.359,-3.4147,-3.505,-3.4993,-3.4699,-3.4889,-3.5,-3.507,-3.5122,-3.5373,-3.538,-3.5001,-3.4988,-3.5034,-3.5066,-3.5117,-3.5192,-3.5327,-3.5335,-3.5362,-3.5354,-3.5613,-3.5921,-3.6232,-3.6768,-3.7507,-3.7462,-3.5112,-3.3219,-3.0705,-2.6265,-2.0352,-1.4925,-0.8026,-0.0309,0.9112,1.3264,1.3428,1.3555,1.3639,1.3561,-4.0463,-4.0503,-4.0492,-4.0503,-4.0465,-3.9969,-3.9084,-3.8027,-3.743,-3.657,-3.5453,-3.5386,-3.535,-3.5297,-3.5198,-3.5124,-3.5009,-3.4908,-3.4831,-3.4771,-3.473,-3.4718,-3.4708,-3.4708,-3.4737,-3.4758,-3.4747,-3.4737,-3.4758,-3.474,-3.4701,-3.4556,-3.4413,-3.4351,-3.4316,-3.4245,-3.4197,-3.4173,-3.4124,-3.4074,-3.4011,-3.3985,-3.3908,-3.3842,-3.3829,-3.378,-3.3726,-3.3753,-3.3739,-3.3753,-3.3829,-3.3881,-3.3939,-3.4011,-3.4086,-3.4148,-3.4203,-3.4293,-3.4351,-3.4328,-3.4316,-3.4416,-3.4473,-3.4498,-3.4531,-3.4607,-3.466,-3.4732,-3.4831,-3.4908,-3.4917,-3.4897,-3.4764,-3.4988,-3.5062,-3.5088,-3.5113,-3.5157,-3.5179,-3.5184,-3.5212,-3.5265,-3.5316,-3.5397,-3.5338,-3.5212,-3.5277,-3.5321,-3.5332,-3.5367,-3.5432,-3.5462,-3.5469,-3.55,-3.5475,-3.549,-3.5505,-3.5813,-3.6155,-3.6856,-3.7647,-3.827,-3.6362,-3.4505,-3.3067,-2.8664,-2.4166,-1.979,-1.1459,0.0035,0.8083,1.2881,1.3009,1.3137,1.3058,-4.0519,-4.0531,-4.0527,-4.0519,-4.04,-3.965,-3.8796,-3.793,-3.7084,-3.625,-3.5512,-3.5434,-3.5412,-3.5364,-3.5312,-3.5218,-3.5124,-3.5028,-3.4945,-3.4879,-3.4831,-3.482,-3.482,-3.483,-3.483,-3.4859,-3.4868,-3.4849,-3.4907,-3.4879,-3.487,-3.4832,-3.4762,-3.468,-3.455,-3.4454,-3.4386,-3.4374,-3.434,-3.4293,-3.4257,-3.4233,-3.4209,-3.4148,-3.4136,-3.4099,-3.4074,-3.4086,-3.4086,-3.4111,-3.4161,-3.4233,-3.4281,-3.4316,-3.4367,-3.4424,-3.4498,-3.4542,-3.4575,-3.4572,-3.4583,-3.4689,-3.474,-3.4771,-3.4811,-3.487,-3.4926,-3.4926,-3.5027,-3.5105,-3.5166,-3.5176,-3.5197,-3.5228,-3.527,-3.5311,-3.534,-3.5362,-3.5378,-3.5392,-3.5438,-3.5481,-3.5532,-3.559,-3.5538,-3.5481,-3.5525,-3.5546,-3.5562,-3.5602,-3.5639,-3.5653,-3.5661,-3.5685,-3.5685,-3.5674,-3.5658,-3.5684,-3.6039,-3.6344,-3.7103,-3.7974,-3.8793,-3.7355,-3.6269,-3.5987,-3.2372,-2.677,-1.7714,-0.7486,0.0282,0.8089,1.2412,1.2497,1.2631,-4.0588,-4.0595,-4.0593,-4.0564,-4.0423,-3.9631,-3.8784,-3.7926,-3.6995,-3.618,-3.5545,-3.5481,-3.5441,-3.542,-3.5372,-3.5312,-3.5234,-3.5141,-3.5072,-3.502,-3.4964,-3.4917,-3.4917,-3.4927,-3.4974,-3.4992,-3.5001,-3.502,-3.5075,-3.5081,-3.5079,-3.5096,-3.5044,-3.4964,-3.478,-3.4647,-3.4594,-3.4583,-3.4583,-3.4583,-3.4564,-3.4531,-3.4509,-3.4498,-3.4446,-3.4424,-3.4394,-3.4424,-3.4424,-3.4424,-3.452,-3.4564,-3.4575,-3.4641,-3.4663,-3.4694,-3.4744,-3.4812,-3.4879,-3.483,-3.4888,-3.4964,-3.5001,-3.5018,-3.5044,-3.5105,-3.5179,-3.5165,-3.525,-3.529,-3.5325,-3.5353,-3.5406,-3.5425,-3.5464,-3.5489,-3.5526,-3.5537,-3.5571,-3.5595,-3.5645,-3.5711,-3.5757,-3.5799,-3.5768,-3.5745,-3.5786,-3.5788,-3.5764,-3.5785,-3.5811,-3.5799,-3.5805,-3.579,-3.5785,-3.581,-3.5797,-3.5779,-3.5881,-3.6169,-3.6477,-3.71,-3.7919,-3.8775,-3.8706,-3.7718,-3.5754,-3.309,-2.4388,-1.5764,-0.524,0.255,0.7813,1.194,1.2069,-4.0626,-4.0686,-4.068,-4.0641,-4.0429,-3.9089,-3.8316,-3.7847,-3.6594,-3.574,-3.556,-3.5501,-3.5494,-3.5468,-3.5434,-3.5398,-3.5376,-3.5277,-3.5212,-3.5204,-3.5115,-3.5117,-3.5117,-3.5107,-3.5107,-3.5134,-3.5143,-3.5151,-3.516,-3.5223,-3.5246,-3.5254,-3.527,-3.5157,-3.4983,-3.484,-3.4821,-3.485,-3.486,-3.4851,-3.486,-3.4822,-3.4813,-3.4832,-3.4784,-3.4764,-3.4715,-3.4754,-3.4754,-3.4725,-3.4822,-3.487,-3.487,-3.4916,-3.4935,-3.4999,-3.5062,-3.5111,-3.5181,-3.5205,-3.5192,-3.5219,-3.5246,-3.5255,-3.5285,-3.5339,-3.5392,-3.5419,-3.5462,-3.5504,-3.5516,-3.5582,-3.5599,-3.5604,-3.5639,-3.5669,-3.5689,-3.5697,-3.5728,-3.5772,-3.583,-3.5825,-3.587,-3.5886,-3.5864,-3.5851,-3.5845,-3.5873,-3.5845,-3.5914,-3.5948,-3.591,-3.5912,-3.5894,-3.5872,-3.586,-3.585,-3.5843,-3.5841,-3.5958,-3.6268,-3.6549,-3.706,-3.7892,-3.8702,-3.9174,-3.7487,-3.5396,-3.1823,-2.4255,-1.3789,-0.4052,0.2265,0.7639,1.1585,-4.0707,-4.0752,-4.0764,-4.0788,-4.0471,-3.889,-3.7842,-3.7134,-3.6023,-3.5528,-3.5541,-3.5534,-3.5534,-3.5502,-3.5483,-3.5462,-3.5501,-3.5439,-3.5342,-3.5342,-3.5312,-3.5285,-3.5278,-3.5285,-3.5293,-3.5312,-3.532,-3.5308,-3.5319,-3.5369,-3.5404,-3.5417,-3.5437,-3.5362,-3.5227,-3.5138,-3.5053,-3.5079,-3.5088,-3.5088,-3.5094,-3.5094,-3.5094,-3.5094,-3.5075,-3.5066,-3.5058,-3.5066,-3.5083,-3.5073,-3.5089,-3.5122,-3.5138,-3.5162,-3.5212,-3.5285,-3.5376,-3.5405,-3.5463,-3.5521,-3.5512,-3.5495,-3.5483,-3.5483,-3.5494,-3.5557,-3.5581,-3.5616,-3.5659,-3.5681,-3.5693,-3.5749,-3.5761,-3.5764,-3.5772,-3.5794,-3.5785,-3.5804,-3.5825,-3.5892,-3.5919,-3.5917,-3.5928,-3.5933,-3.5935,-3.5917,-3.5918,-3.5917,-3.5914,-3.5937,-3.5972,-3.5951,-3.593,-3.5909,-3.5891,-3.5876,-3.5878,-3.5878,-3.5896,-3.5883,-3.5967,-3.6257,-3.6632,-3.7014,-3.7778,-3.8486,-3.9002,-3.7287,-3.4699,-3.0073,-2.2359,-1.2991,-0.4188,0.2126,0.7549,-4.0798,-4.0812,-4.0858,-4.0883,-4.0582,-3.8983,-3.729,-3.5728,-3.5616,-3.5584,-3.5604,-3.5598,-3.5598,-3.5598,-3.5598,-3.5566,-3.5554,-3.5515,-3.5477,-3.5438,-3.5405,-3.5405,-3.5431,-3.5431,-3.547,-3.549,-3.5496,-3.5483,-3.5501,-3.5544,-3.5574,-3.5596,-3.559,-3.5568,-3.5489,-3.5406,-3.5336,-3.5307,-3.5304,-3.5311,-3.5307,-3.5319,-3.5326,-3.5333,-3.5333,-3.5314,-3.5314,-3.5321,-3.5316,-3.5338,-3.5372,-3.5406,-3.5438,-3.545,-3.5481,-3.5527,-3.5635,-3.567,-3.5697,-3.5733,-3.5756,-3.571,-3.5659,-3.5664,-3.5697,-3.5741,-3.5741,-3.5772,-3.5803,-3.5838,-3.587,-3.586,-3.5867,-3.5867,-3.5869,-3.5873,-3.5875,-3.5885,-3.5895,-3.5927,-3.5956,-3.5957,-3.5954,-3.5949,-3.5925,-3.5918,-3.5895,-3.5893,-3.5882,-3.5882,-3.5903,-3.5892,-3.5888,-3.5899,-3.5886,-3.5855,-3.5861,-3.5866,-3.5884,-3.5896,-3.5937,-3.5995,-3.6296,-3.6645,-3.6982,-3.7592,-3.8508,-3.8981,-3.86,-3.3383,-2.8375,-2.2378,-1.3701,-0.427,0.1906,-4.0868,-4.0878,-4.0902,-4.0928,-4.0704,-3.9092,-3.7355,-3.5854,-3.5657,-3.5623,-3.5623,-3.5616,-3.5608,-3.5618,-3.562,-3.5612,-3.5623,-3.5604,-3.5593,-3.5562,-3.5543,-3.5574,-3.5585,-3.561,-3.5626,-3.5643,-3.5634,-3.5639,-3.5649,-3.5669,-3.5713,-3.5732,-3.5726,-3.5735,-3.5711,-3.5678,-3.559,-3.5525,-3.5514,-3.5514,-3.5501,-3.5507,-3.5538,-3.5544,-3.5556,-3.5543,-3.5554,-3.5566,-3.5557,-3.5568,-3.5595,-3.5616,-3.5635,-3.5645,-3.565,-3.5705,-3.5781,-3.5847,-3.5838,-3.5838,-3.5851,-3.5859,-3.5808,-3.5827,-3.5841,-3.5848,-3.5853,-3.5868,-3.5861,-3.5888,-3.5892,-3.5894,-3.5876,-3.5876,-3.5877,-3.5877,-3.5878,-3.5898,-3.5898,-3.5894,-3.594,-3.5929,-3.5914,-3.5903,-3.5875,-3.5877,-3.5883,-3.5841,-3.5844,-3.583,-3.583,-3.5833,-3.5833,-3.5824,-3.582,-3.5795,-3.5817,-3.583,-3.5844,-3.5867,-3.59,-3.5957,-3.605,-3.6288,-3.6662,-3.741,-3.8335,-3.8618,-3.8648,-3.8923,-3.4706,-2.9368,-2.3092,-1.3854,-0.4447,-4.0932,-4.0945,-4.0953,-4.0623,-3.9883,-3.89,-3.7449,-3.6025,-3.5722,-3.5674,-3.5674,-3.567,-3.5637,-3.5688,-3.5683,-3.5693,-3.5728,-3.5699,-3.5699,-3.5694,-3.567,-3.5688,-3.5717,-3.5745,-3.5758,-3.5771,-3.5779,-3.5783,-3.5772,-3.5784,-3.5818,-3.5817,-3.5833,-3.584,-3.5824,-3.5801,-3.5781,-3.5721,-3.5678,-3.5679,-3.5679,-3.5684,-3.5717,-3.5726,-3.573,-3.5728,-3.5721,-3.5725,-3.5737,-3.5764,-3.5783,-3.5778,-3.5788,-3.5783,-3.5799,-3.5825,-3.5857,-3.5885,-3.587,-3.5875,-3.5897,-3.5898,-3.5898,-3.5859,-3.5859,-3.5858,-3.5878,-3.5879,-3.5877,-3.5893,-3.589,-3.5886,-3.5865,-3.5864,-3.5862,-3.586,-3.5876,-3.5892,-3.5878,-3.5858,-3.5858,-3.5839,-3.5837,-3.582,-3.5822,-3.5799,-3.5783,-3.5752,-3.5764,-3.5784,-3.5768,-3.5776,-3.5767,-3.5765,-3.5741,-3.5721,-3.5711,-3.5724,-3.5768,-3.5783,-3.5824,-3.5894,-3.5958,-3.6144,-3.6367,-3.702,-3.754,-3.7808,-3.7932,-3.8205,-3.8656,-3.5179,-3.0015,-2.4042,-1.4538,-4.102,-4.0997,-4.0995,-4.0031,-3.8619,-3.8393,-3.7413,-3.598,-3.5834,-3.5797,-3.5788,-3.5742,-3.5722,-3.5765,-3.5769,-3.5806,-3.5807,-3.5788,-3.5799,-3.5802,-3.5779,-3.579,-3.5788,-3.5798,-3.5849,-3.5875,-3.5883,-3.5892,-3.5897,-3.5902,-3.589,-3.5897,-3.5901,-3.5908,-3.5917,-3.5901,-3.5896,-3.5871,-3.5821,-3.5819,-3.5811,-3.5807,-3.5814,-3.5817,-3.5807,-3.5819,-3.5808,-3.5797,-3.5829,-3.588,-3.5892,-3.5882,-3.588,-3.587,-3.5878,-3.5878,-3.5876,-3.5873,-3.5868,-3.5863,-3.5862,-3.5874,-3.5898,-3.5819,-3.5806,-3.5836,-3.5857,-3.5841,-3.5823,-3.5809,-3.5797,-3.5786,-3.5777,-3.5758,-3.5774,-3.5771,-3.5768,-3.5756,-3.5735,-3.5725,-3.5725,-3.572,-3.5687,-3.5684,-3.5684,-3.5693,-3.5672,-3.5618,-3.5629,-3.5659,-3.5694,-3.5694,-3.5669,-3.5643,-3.5612,-3.5593,-3.5582,-3.5612,-3.5639,-3.5664,-3.5674,-3.5768,-3.5861,-3.6034,-3.6183,-3.6132,-3.6442,-3.6821,-3.7173,-3.7325,-3.7948,-3.9042,-3.5802,-3.0814,-2.4717,-4.1073,-4.1008,-4.0376,-3.9462,-3.8465,-3.7847,-3.7004,-3.5999,-3.5914,-3.584,-3.5802,-3.5788,-3.5788,-3.5818,-3.5822,-3.584,-3.5882,-3.5869,-3.5878,-3.5889,-3.5875,-3.587,-3.5864,-3.5873,-3.5921,-3.597,-3.5975,-3.5957,-3.5958,-3.596,-3.5962,-3.5964,-3.5947,-3.5951,-3.5954,-3.5955,-3.5956,-3.5956,-3.5935,-3.59,-3.5871,-3.586,-3.5877,-3.5871,-3.5862,-3.5875,-3.5861,-3.5868,-3.5872,-3.5895,-3.5898,-3.5897,-3.5884,-3.5878,-3.5859,-3.5831,-3.5809,-3.5821,-3.5808,-3.5797,-3.5794,-3.5795,-3.5779,-3.5717,-3.5706,-3.5795,-3.581,-3.5767,-3.5733,-3.5709,-3.5668,-3.5669,-3.5708,-3.5708,-3.5747,-3.5747,-3.5747,-3.5708,-3.5664,-3.5623,-3.5621,-3.5566,-3.5548,-3.5531,-3.5552,-3.5527,-3.5489,-3.5451,-3.5451,-3.5483,-3.5538,-3.5544,-3.5558,-3.5534,-3.5502,-3.5496,-3.5489,-3.5476,-3.5507,-3.5531,-3.5554,-3.5674,-3.5799,-3.5889,-3.5976,-3.5982,-3.5993,-3.6113,-3.6421,-3.6643,-3.726,-3.8344,-3.9031,-3.5389,-3.1029,-4.1118,-4.0986,-4.0157,-3.93,-3.8481,-3.7648,-3.6809,-3.6084,-3.5962,-3.5931,-3.5887,-3.5846,-3.5833,-3.5844,-3.5847,-3.588,-3.594,-3.5949,-3.5939,-3.5944,-3.595,-3.5941,-3.5947,-3.5932,-3.5954,-3.5995,-3.6015,-3.5996,-3.5976,-3.5957,-3.5937,-3.5937,-3.5954,-3.5951,-3.5966,-3.5963,-3.596,-3.5958,-3.5956,-3.5932,-3.5897,-3.5914,-3.5931,-3.5934,-3.5917,-3.5898,-3.5897,-3.5894,-3.589,-3.5883,-3.5869,-3.5819,-3.5803,-3.5798,-3.576,-3.5702,-3.5681,-3.5704,-3.5674,-3.5655,-3.565,-3.564,-3.5571,-3.5482,-3.54,-3.5458,-3.5496,-3.5454,-3.5512,-3.5482,-3.5444,-3.5419,-3.5804,-3.5951,-3.6151,-3.6266,-3.6357,-3.6408,-3.626,-3.6105,-3.5886,-3.5423,-3.5383,-3.5343,-3.5367,-3.536,-3.5311,-3.5311,-3.5311,-3.5292,-3.5355,-3.5383,-3.5402,-3.5409,-3.539,-3.5383,-3.5376,-3.539,-3.5378,-3.5432,-3.5502,-3.5618,-3.5745,-3.5829,-3.5892,-3.5953,-3.5975,-3.599,-3.6015,-3.6247,-3.6876,-3.7646,-3.8285,-3.905,-3.599,-4.1017,-4.0824,-3.9992,-3.9177,-3.8358,-3.7485,-3.6687,-3.6082,-3.6005,-3.6004,-3.598,-3.5927,-3.5921,-3.5908,-3.5914,-3.5946,-3.5974,-3.5979,-3.5987,-3.5992,-3.5994,-3.5976,-3.5956,-3.5973,-3.597,-3.5966,-3.5963,-3.5962,-3.596,-3.5917,-3.5892,-3.5884,-3.5894,-3.5884,-3.5875,-3.587,-3.5885,-3.5858,-3.5858,-3.5863,-3.5892,-3.5953,-3.5965,-3.5964,-3.5936,-3.5889,-3.588,-3.5886,-3.5887,-3.5844,-3.5795,-3.5733,-3.5659,-3.5631,-3.5549,-3.5498,-3.5481,-3.5475,-3.5431,-3.5419,-3.5425,-3.5405,-3.5311,-3.5192,-3.5117,-3.5062,-3.51,-3.5127,-3.5157,-3.5254,-3.5203,-3.5428,-3.5851,-3.6262,-3.6509,-3.6804,-3.6944,-3.7018,-3.6807,-3.6578,-3.611,-3.557,-3.54,-3.5337,-3.5185,-3.5176,-3.5157,-3.5149,-3.5149,-3.5138,-3.5144,-3.5187,-3.5195,-3.5219,-3.5258,-3.5278,-3.5262,-3.527,-3.5274,-3.5367,-3.5443,-3.5526,-3.5623,-3.5741,-3.5802,-3.5886,-3.5951,-3.5975,-3.599,-3.6015,-3.6381,-3.7082,-3.8222,-3.8997,-3.9786,-4.0696,-3.9974,-3.9175,-3.836,-3.7504,-3.6628,-3.6143,-3.6029,-3.6009,-3.6009,-3.6009,-3.5987,-3.5983,-3.598,-3.5979,-3.6004,-3.5991,-3.6014,-3.6016,-3.6014,-3.5993,-3.5966,-3.5934,-3.5901,-3.5925,-3.5912,-3.5902,-3.5892,-3.5853,-3.5825,-3.581,-3.5814,-3.5791,-3.579,-3.5733,-3.5729,-3.5749,-3.5745,-3.5736,-3.5721,-3.5776,-3.583,-3.5919,-3.5919,-3.589,-3.5864,-3.5837,-3.5826,-3.5784,-3.5728,-3.5679,-3.5588,-3.5488,-3.54,-3.5345,-3.5246,-3.5224,-3.5193,-3.5162,-3.5095,-3.5089,-3.5064,-3.4944,-3.4774,-3.4666,-3.4545,-3.4576,-3.4582,-3.4691,-3.4955,-3.5069,-3.5531,-3.5975,-3.6439,-3.6771,-3.7143,-3.742,-3.7373,-3.7231,-3.6938,-3.6578,-3.6169,-3.5866,-3.5562,-3.5059,-3.5021,-3.4945,-3.4945,-3.4945,-3.4945,-3.4945,-3.4963,-3.501,-3.5072,-3.5113,-3.5151,-3.5143,-3.5143,-3.5168,-3.5231,-3.5323,-3.5397,-3.5489,-3.5604,-3.5721,-3.5822,-3.5883,-3.5953,-3.5979,-3.5992,-3.6015,-3.6569,-3.7837,-3.8856,-3.9572]},{"header":{"parameterUnit":"m.s-1","parameterCategory":1,"la1":31.0,"la2":29.5877,"lo1":-88.7671,"lo2":-86.6584,"dx":0.0162,"dy":0.0185,"nx":115,"ny":88,"refTime":"2023-01-08T06:00:00:Z","depth":0,"parameterNumber":3,"parameterNumberName":"V-component_of_WINDS"},"data":[0.0,0.0,0.0,0.0,0.0,0.0,0.0,0.0,0.0,0.0,0.0,0.0,0.0,0.0,0.0,0.0,0.0,0.0,0.0,0.0,0.0,0.0,0.0,0.0,0.0,0.0,0.0,0.0,0.0,0.0,0.0,0.0,0.0,0.0,0.0,0.0,0.0,0.0,0.0,0.0,0.0,0.0,0.0,0.0,0.0,0.0,0.0,0.0,0.0,0.0,0.0,0.0,0.0,0.0,0.0,0.0,0.0,0.0,0.0,0.0,0.0,0.0,0.0,0.0,0.0,0.0,0.0,0.0,0.0,0.0,0.0,0.0,0.0,0.0,0.0,0.0,0.0,0.0,0.0,0.0,0.0,0.0,0.0,0.0,0.0,0.0,0.0,0.0,0.0,0.0,0.0,0.0,0.0,0.0,0.0,0.0,0.0,0.0,0.0,0.0,0.0,0.0,0.0,0.0,0.0,0.0,0.0,0.0,0.0,0.0,0.0,0.0,0.0,0.0,0.0,0.0,0.0,0.0,0.0,0.0,0.0,0.0,0.0,0.0,0.0,0.0,0.0,0.0,0.0,0.0,0.0,0.0,0.0,0.0,0.0,0.0,0.0,0.0,0.0,0.0,0.0,0.0,0.0,0.0,0.0,0.0,0.0,0.0,0.0,0.0,0.0,0.0,0.0,0.0,0.0,0.0,0.0,0.0,0.0,0.0,0.0,0.0,0.0,0.0,0.0,0.0,0.0,0.0,0.0,0.0,0.0,0.0,0.0,0.0,0.0,0.0,0.0,0.0,0.0,0.0,0.0,0.0,0.0,0.0,0.0,0.0,0.0,0.0,0.0,0.0,0.0,0.0,0.0,0.0,0.0,0.0,0.0,0.0,0.0,0.0,0.0,0.0,0.0,0.0,0.0,0.0,0.0,0.0,0.0,0.0,0.0,0.0,0.0,0.0,0.0,0.0,0.0,0.0,0.0,0.0,0.0,0.0,0.0,0.0,0.0,0.0,0.0,0.0,0.0,0.0,0.0,0.0,0.0,0.0,0.0,0.0,0.0,0.0,0.0,0.0,0.0,0.0,0.0,0.0,0.0,0.0,0.0,0.0,0.0,0.0,0.0,0.0,0.0,0.0,0.0,0.0,0.0,0.0,0.0,0.0,0.0,0.0,0.0,0.0,0.0,0.0,0.0,0.0,0.0,0.0,0.0,0.0,0.0,0.0,0.0,0.0,0.0,0.0,0.0,0.0,0.0,0.0,0.0,0.0,0.0,0.0,0.0,0.0,0.0,0.0,0.0,0.0,0.0,0.0,0.0,0.0,0.0,0.0,0.0,0.0,0.0,0.0,0.0,0.0,0.0,0.0,0.0,0.0,0.0,0.0,0.0,0.0,0.0,0.0,0.0,0.0,0.0,0.0,0.0,0.0,0.0,0.0,0.0,0.0,0.0,0.0,0.0,0.0,0.0,0.0,0.0,0.0,0.0,0.0,0.0,0.0,0.0,0.0,0.0,0.0,0.0,0.0,0.0,0.0,0.0,0.0,0.0,0.0,0.0,0.0,0.0,0.0,0.0,0.0,0.0,0.0,0.0,0.0,0.0,0.0,0.0,0.0,0.0,0.0,0.0,0.0,0.0,0.0,0.0,0.0,0.0,0.0,0.0,0.0,0.0,0.0,0.0,0.0,0.0,0.0,0.0,0.0,0.0,0.0,0.0,0.0,0.0,0.0,0.0,0.0,0.0,0.0,0.0,0.0,0.0,0.0,0.0,0.0,0.0,0.0,0.0,0.0,0.0,0.0,0.0,0.0,0.0,0.0,0.0,0.0,0.0,0.0,0.0,0.0,0.0,0.0,0.0,0.0,0.0,0.0,0.0,0.0,0.0,0.0,0.0,0.0,0.0,0.0,0.0,0.0,0.0,0.0,0.0,0.0,0.0,0.0,0.0,0.0,0.0,0.0,0.0,0.0,0.0,0.0,0.0,0.0,0.0,0.0,0.0,0.0,0.0,0.0,0.0,0.0,0.0,0.0,0.0,0.0,0.0,0.0,0.0,0.0,0.0,0.0,0.0,0.0,0.0,0.0,0.0,0.0,0.0,0.0,0.0,0.0,0.0,0.0,0.0,0.0,0.0,0.0,0.0,0.0,0.0,0.0,0.0,0.0,0.0,0.0,0.0,0.0,0.0,0.0,0.0,0.0,0.0,0.0,0.0,0.0,0.0,0.0,0.0,0.0,0.0,0.0,0.0,0.0,0.0,0.0,0.0,0.0,0.0,0.0,0.0,0.0,0.0,0.0,0.0,0.0,0.0,0.0,0.0,0.0,0.0,0.0,0.0,0.0,0.0,0.0,0.0,0.0,0.0,0.0,0.0,0.0,0.0,0.0,0.0,0.0,0.0,0.0,0.0,0.0,0.0,0.0,0.0,0.0,0.0,0.0,0.0,0.0,0.0,0.0,0.0,0.0,0.0,0.0,0.0,0.0,0.0,0.0,0.0,0.0,0.0,0.0,0.0,0.0,0.0,0.0,0.0,0.0,0.0,0.0,0.0,0.0,0.0,0.0,0.0,0.0,0.0,0.0,0.0,0.0,0.0,0.0,0.0,0.0,0.0,0.0,0.0,0.0,0.0,0.0,0.0,0.0,0.0,0.0,0.0,0.0,0.0,0.0,0.0,0.0,0.0,0.0,0.0,0.0,0.0,0.0,0.0,0.0,0.0,0.0,0.0,0.0,0.0,0.0,0.0,0.0,0.0,0.0,0.0,0.0,0.0,0.0,0.0,0.0,0.0,0.0,0.0,0.0,0.0,0.0,0.0,0.0,0.0,0.0,0.0,0.0,0.0,0.0,0.0,0.0,0.0,0.0,0.0,0.0,0.0,0.0,0.0,0.0,0.0,0.0,0.0,0.0,0.0,0.0,0.0,0.0,0.0,0.0,0.0,0.0,0.0,0.0,0.0,0.0,0.0,0.0,0.0,0.0,0.0,0.0,0.0,0.0,0.0,0.0,0.0,0.0,0.0,0.0,0.0,0.0,0.0,0.0,0.0,0.0,0.0,0.0,0.0,0.0,0.0,0.0,0.0,0.0,0.0,0.0,0.0,0.0,0.0,0.0,0.0,0.0,0.0,0.0,0.0,0.0,0.0,0.0,0.0,0.0,0.0,0.0,0.0,0.0,0.0,0.0,0.0,0.0,0.0,0.0,0.0,0.0,0.0,0.0,0.0,0.0,0.0,0.0,0.0,0.0,0.0,0.0,0.0,0.0,0.0,0.0,0.0,0.0,0.0,0.0,0.0,0.0,0.0,0.0,0.0,0.0,0.0,0.0,0.0,0.0,0.0,0.0,0.0,0.0,0.0,0.0,0.0,0.0,0.0,0.0,0.0,0.0,0.0,0.0,0.0,0.0,0.0,0.0,0.0,0.0,0.0,0.0,0.0,0.0,0.0,0.0,0.0,0.0,0.0,0.0,0.0,0.0,0.0,0.0,0.0,0.0,0.0,0.0,0.0,0.0,0.0,0.0,0.0,0.0,0.0,0.0,0.0,0.0,0.0,0.0,0.0,0.0,0.0,0.0,0.0,0.0,0.0,0.0,0.0,0.0,0.0,0.0,0.0,0.0,0.0,0.0,0.0,0.0,0.0,0.0,0.0,0.0,0.0,0.0,0.0,0.0,0.0,0.0,0.0,0.0,0.0,0.0,0.0,0.0,0.0,0.0,0.0,0.0,0.0,0.0,0.0,0.0,0.0,0.0,0.0,0.0,0.0,0.0,0.0,0.0,0.0,0.0,0.0,0.0,0.0,0.0,0.0,0.0,0.0,0.0,0.0,0.0,0.0,0.0,0.0,0.0,0.0,0.0,0.0,0.0,0.0,0.0,0.0,0.0,0.0,0.0,0.0,0.0,0.0,0.0,0.0,0.0,0.0,0.0,0.0,0.0,0.0,0.0,0.0,0.0,0.0,0.0,0.0,0.0,0.0,0.0,0.0,0.0,0.0,0.0,0.0,0.0,0.0,0.0,0.0,0.0,0.0,0.0,0.0,0.0,0.0,0.0,0.0,0.0,0.0,0.0,0.0,0.0,0.0,0.0,0.0,0.0,0.0,0.0,0.0,0.0,0.0,0.0,0.0,0.0,0.0,0.0,0.0,0.0,0.0,0.0,0.0,0.0,0.0,0.0,0.0,0.0,0.0,0.0,0.0,0.0,0.0,0.0,0.0,0.0,0.0,0.0,0.0,0.0,0.0,0.0,0.0,0.0,0.0,0.0,0.0,0.0,0.546,0.0,0.0,0.0,0.5888,0.0,0.0,0.0,0.0,0.0,0.0,0.0,0.0,0.0,0.0,0.0,0.0,0.0,0.0,0.0,0.0,0.0,0.0,0.0,0.0,0.0,0.0,0.0,0.0,0.0,0.0,0.0,0.0,0.0,0.0,0.0,0.0,0.0,0.0,0.0,0.0,0.0,0.0,0.0,0.0,0.0,0.0,0.0,0.0,0.0,0.0,0.0,0.0,0.0,0.0,0.0,0.0,0.0,0.0,0.0,0.0,0.0,0.0,0.0,0.0,0.0,0.0,0.0,0.0,0.0,0.0,0.0,0.0,0.0,0.0,0.0,0.0,0.0,0.0,0.0,0.0,0.0,0.0,0.0,0.0,0.0,0.0,0.0,0.0,0.0,0.0,0.0,0.0,0.0,0.0,0.0,0.0,0.0,0.0,0.0,0.0,0.0,0.0,0.0,0.0,0.0,0.0,0.0,0.0,0.0,0.0,0.0,0.0,0.0,0.0,0.5671,0.574,0.5897,0.599,0.6067,0.0,0.0,0.0,0.0,0.0,0.0,0.0,0.0,0.0,0.0,0.0,0.0,0.0,0.0,0.0,0.0,0.0,0.0,0.0,0.0,0.0,0.0,0.0,0.0,0.0,0.0,0.0,0.0,0.0,0.0,0.0,0.0,0.0,0.0,0.0,0.0,0.0,0.0,0.0,0.0,0.0,0.0,0.0,0.0,0.0,0.0,0.0,0.0,0.0,0.0,0.0,0.0,0.0,0.0,0.0,0.0,0.0,0.0,0.0,0.0,0.0,0.0,0.0,0.0,0.0,0.0,0.0,0.0,0.0,0.0,0.0,0.0,0.0,0.0,0.0,0.0,0.0,0.0,0.0,0.0,0.0,0.0,0.0,0.0,0.0,0.0,0.0,0.0,0.0,0.0,0.0,0.0,0.0,0.0,0.0,0.0,0.0,0.0,0.0,0.0,0.0,0.0,0.0,0.0,0.0,0.0,0.0,0.0,0.0,0.0,0.0,0.0,0.6013,0.6145,0.6261,0.0,0.0,0.0,0.0,0.0,0.0,0.0,0.0,0.0,0.0,0.0,0.0,0.0,0.0,0.0,0.0,0.0,0.0,0.0,0.0,0.0,0.0,0.0,0.0,0.0,0.0,0.0,0.0,0.0,0.0,0.0,0.0,0.0,0.0,0.0,0.0,0.0,0.0,0.0,0.0,0.0,0.0,0.0,0.0,0.0,0.0,0.0,0.0,0.0,0.0,0.0,0.0,0.0,0.0,0.0,0.0,0.0,0.0,0.0,0.0,0.0,0.0,0.0,0.0,0.0,0.0,0.0,0.0,0.0,0.0,0.0,0.0,0.0,0.0,0.0,0.0,0.0,0.0,0.0,0.0,0.0,0.0,0.0,0.0,0.0,0.0,0.0,0.0,0.0,0.0,0.0,0.0,0.0,0.0,0.0,0.0,0.0,0.0,0.0,0.0,0.0,0.0,0.0,0.0,0.0,0.0,0.0,0.0,0.0,0.0,0.592,0.616,0.6238,0.0,0.6443,0.0,0.0,0.0,0.0,0.0,0.0,0.0,0.0,0.0,0.0,0.0,0.0,0.0,0.0,0.0,0.0,0.0,0.0,0.0,0.0,0.0,0.0,0.0,0.0,0.0,0.0,0.0,0.0,0.0,0.0,0.0,0.0,0.0,0.0,0.0,0.0,0.0,0.0,0.0,0.0,0.0,0.0,0.0,0.0,0.0,0.0,0.0,0.0,0.0,0.0,0.0,0.0,0.0,0.0,0.0,0.0,0.0,0.0,0.0,0.0,0.0,0.0,0.0,0.0,0.0,0.0,0.0,0.0,0.0,0.0,0.0,0.0,0.0,0.0,0.0,0.0,0.0,0.0,0.0,0.0,0.0,0.0,0.0,0.0,0.0,0.0,0.0,0.0,0.0,0.0,0.0,0.0,0.0,0.0,0.0,0.0,0.0,0.0,0.0,0.0,0.0,0.0,0.0,0.0,0.0,0.0,0.0,0.0,0.0,0.0,0.6129,0.6329,0.6514,0.6636,0.0,0.0,0.0,0.0,0.0,0.0,0.0,0.0,0.0,0.0,0.0,0.0,0.0,0.0,0.0,0.0,0.0,0.0,0.0,0.0,0.0,0.0,0.0,0.0,0.0,0.0,0.0,0.0,0.0,0.0,0.0,0.0,0.0,0.0,0.0,0.0,0.0,0.0,0.0,0.0,0.0,0.0,0.0,0.0,0.0,0.0,0.0,0.0,0.0,0.0,0.0,0.0,0.0,0.0,0.0,0.0,0.0,0.0,0.0,0.0,0.0,0.0,0.0,0.0,0.0,0.0,0.0,0.0,0.0,0.0,0.0,0.0,0.0,0.0,0.0,0.0,0.0,0.0,0.0,0.0,0.0,0.0,0.0,0.0,0.0,0.0,0.0,0.0,0.0,0.0,0.0,0.0,0.0,0.0,0.0,0.0,0.0,0.0,0.0,0.0,0.0,0.0,0.0,0.0,0.0,0.0,0.0,0.0,0.0,0.0,0.6129,0.6352,0.655,0.6794,0.6917,0.6908,0.0,0.0,0.0,0.0,0.0,0.0,0.0,0.0,0.0,0.0,0.0,0.0,0.0,0.0,0.0,0.0,0.0,0.0,0.0,0.0,0.0,0.0,0.0,0.0,0.0,0.0,0.0,0.0,0.0,0.0,0.0,0.0,0.0,0.0,0.0,0.0,0.0,0.0,0.0,0.0,0.0,0.0,0.0,0.0,0.0,0.0,0.0,0.0,0.0,0.0,0.0,0.0,0.0,0.0,0.0,0.0,0.0,0.0,0.0,0.0,0.0,0.0,0.0,0.0,0.0,0.0,0.0,0.0,0.0,0.0,0.0,0.0,0.0,0.0,0.0,0.0,0.0,0.0,0.0,0.0,0.0,0.0,0.0,0.0,0.0,0.0,0.0,0.0,0.0,0.0,0.0,0.0,0.0,0.0,0.0,0.0,0.0,0.0,0.0,0.0,0.0,0.0,0.0,0.0,0.0,0.0,0.0,0.0,0.6176,0.6345,0.658,0.6957,0.7121,0.7196,0.0,0.0,0.0,0.0,0.0,0.0,0.0,0.0,0.0,0.0,0.0,0.0,0.0,0.0,0.0,0.0,0.0,0.0,0.0,0.0,0.0,0.0,0.0,0.0,0.0,0.0,0.0,0.0,0.0,0.0,0.0,0.0,0.0,0.0,0.0,0.0,0.0,0.0,0.0,0.0,0.0,0.0,0.0,0.0,0.0,0.0,0.0,0.0,0.0,0.0,0.0,0.0,0.0,0.0,0.0,0.0,0.0,0.0,0.0,0.0,0.0,0.0,0.0,0.0,0.0,0.0,0.0,0.0,0.0,0.0,0.0,0.0,0.0,0.0,0.0,0.0,0.0,0.0,0.0,0.0,0.0,0.0,0.0,0.0,0.0,0.0,0.0,0.0,0.0,0.0,0.0,0.0,0.0,0.0,0.0,0.0,0.0,0.0,0.0,0.0,0.0,0.0,0.0,0.0,0.0,0.0,0.0,0.0,0.0,0.6321,0.6717,0.7032,0.7318,0.7451,0.7525,0.0,0.0,0.0,0.0,0.0,0.0,0.0,0.0,0.0,0.0,0.0,0.0,0.0,0.0,0.0,0.0,0.0,0.0,0.0,0.0,0.0,0.0,0.0,0.0,0.0,0.0,0.0,0.0,0.0,0.0,0.0,0.0,0.0,0.0,0.0,0.0,0.0,0.0,0.0,0.0,0.0,0.0,0.0,0.0,0.0,0.0,0.0,0.0,0.0,0.0,0.0,0.0,0.0,0.0,0.0,0.0,0.0,0.0,0.0,0.0,0.0,0.0,0.0,0.0,0.0,0.0,0.0,0.0,0.0,0.0,0.0,0.0,0.0,0.0,0.0,0.0,0.0,0.0,0.0,0.0,0.0,0.0,0.0,0.0,0.0,0.0,0.0,0.0,0.0,0.0,0.0,0.0,0.0,0.0,0.0,0.0,0.0,0.0,0.0,0.0,0.0,0.0,0.0,0.0,0.0,0.0,0.0,0.0,0.0,0.6872,0.7327,0.7706,0.8033,0.8013,0.798,0.0,0.0,0.0,0.0,0.0,0.0,0.0,0.0,0.0,0.0,0.0,0.0,0.0,0.0,0.0,0.0,0.0,0.0,0.0,0.0,0.0,0.0,0.0,0.0,0.0,0.0,0.0,0.0,0.0,0.0,0.0,0.0,0.0,0.0,0.0,0.0,0.0,0.0,0.0,0.0,0.0,0.0,0.0,0.0,0.0,0.0,0.0,0.0,0.0,0.0,0.0,0.0,0.0,0.0,0.0,0.0,0.0,0.0,0.0,0.0,0.0,0.0,0.0,0.0,0.0,0.0,0.0,0.0,0.0,0.0,0.0,0.0,0.0,0.0,0.0,0.0,0.0,0.0,0.0,0.0,0.0,0.0,0.0,0.0,0.0,0.0,0.0,0.0,0.0,0.0,0.0,0.0,0.0,0.0,0.0,0.0,0.0,0.0,0.0,0.0,0.0,0.0,0.0,0.0,0.0,0.0,0.0,0.0,0.6693,0.7851,0.8169,0.859,0.915,0.8806,0.8601,0.0,0.0,0.0,0.0,0.0,0.0,0.0,0.0,0.0,0.0,0.0,0.0,0.0,0.0,0.0,0.0,0.0,0.0,0.0,0.0,0.0,0.0,0.0,0.0,0.0,0.0,0.0,0.0,0.0,0.0,0.0,0.0,0.0,0.0,0.0,0.0,0.0,0.0,0.0,0.0,0.0,0.0,0.0,0.0,0.0,0.0,0.0,0.0,0.0,0.0,0.0,0.0,0.0,0.0,0.0,0.0,0.0,0.0,0.0,0.0,0.0,0.0,0.0,0.0,0.0,0.0,0.0,0.0,0.0,0.0,0.0,0.0,0.0,0.0,0.0,0.0,0.0,0.0,0.0,0.0,0.0,0.0,0.0,0.0,0.0,0.0,0.0,0.0,0.0,0.0,0.0,0.0,0.0,0.0,0.0,0.0,0.0,0.0,0.0,0.0,0.0,0.0,0.0,0.0,0.0,0.0,0.0,0.0,0.0,0.8115,0.8902,0.9367,0.9476,0.9392,0.9228,0.0,0.0,0.0,0.0,0.0,0.0,0.0,0.0,0.0,0.0,0.0,0.0,0.0,0.0,0.0,0.0,0.0,0.0,0.0,0.0,0.0,0.0,0.0,0.0,0.0,0.0,0.0,0.0,0.0,0.0,0.0,0.0,0.0,0.0,0.0,0.0,0.0,0.0,0.0,0.0,0.0,0.0,0.0,0.0,0.0,0.0,0.0,0.0,0.0,0.0,0.0,0.0,0.0,0.0,0.0,0.0,0.0,0.0,0.0,0.0,0.0,0.0,0.0,0.0,0.0,0.0,0.0,0.0,0.0,0.0,0.0,0.0,0.0,0.0,0.0,0.0,0.0,0.0,0.0,0.0,0.0,0.0,0.0,0.0,0.0,0.0,0.0,0.0,0.0,0.0,0.0,0.0,0.0,0.0,0.0,0.0,0.0,0.0,0.0,0.0,0.0,0.0,0.0,0.0,0.0,0.0,0.0,0.0,0.0,0.8971,0.9718,1.0183,1.0367,1.0267,0.993,0.9372,0.0,0.0,0.0,0.0,0.0,0.0,0.0,0.0,0.0,0.0,0.0,0.0,0.0,0.0,0.0,0.0,0.0,0.0,0.0,0.0,0.0,0.0,0.0,0.0,0.0,0.0,0.0,0.0,0.0,0.0,0.0,0.0,0.0,0.0,0.0,0.0,0.0,0.0,0.0,0.0,0.0,0.0,0.0,0.0,0.0,0.0,0.0,0.0,0.0,0.0,0.0,0.0,0.0,0.0,0.0,0.0,0.0,0.0,0.0,0.0,0.0,0.0,0.0,0.0,0.0,0.0,0.0,0.0,0.0,0.0,0.0,0.0,0.0,0.0,0.0,0.0,0.0,0.0,0.0,0.0,0.0,0.0,0.0,0.0,0.0,0.0,0.0,0.0,0.0,0.0,0.0,0.0,0.0,0.0,0.0,0.0,0.0,0.0,0.0,0.0,0.0,0.0,0.0,0.0,0.0,0.0,0.0,0.0,1.0391,1.0605,1.1042,1.1682,1.1334,1.0727,0.0,0.0,0.0,0.0,0.0,0.0,0.0,0.0,0.0,0.0,0.0,0.0,0.0,0.0,0.0,0.0,0.0,0.0,0.0,0.0,0.0,0.0,0.0,0.0,0.0,0.0,0.0,0.0,0.0,0.0,0.0,0.0,0.0,0.0,0.0,0.0,0.0,0.0,0.0,0.0,0.0,0.0,0.0,0.0,0.0,0.0,0.0,0.0,0.0,0.0,0.0,0.0,0.0,0.0,0.0,0.0,0.0,0.0,0.0,0.0,0.0,0.0,0.0,0.0,0.0,0.0,0.0,0.0,0.0,0.0,0.0,0.0,0.0,0.0,0.0,0.0,0.0,0.0,0.0,0.0,0.0,0.0,0.0,0.0,0.0,0.0,0.0,0.0,0.0,0.0,0.0,0.0,0.0,0.0,0.0,0.0,0.0,0.0,0.0,0.0,0.0,0.0,0.0,0.0,0.0,0.0,0.0,0.0,0.0,1.138,1.1847,1.208,1.2068,1.1765,1.1219,0.0,0.0,0.0,0.0,0.0,0.0,0.0,0.0,0.0,0.0,0.0,0.0,0.0,0.0,0.0,0.0,0.0,0.0,0.0,0.0,0.0,0.0,0.0,0.0,0.0,0.0,0.0,0.0,0.0,0.0,0.0,0.0,0.0,0.0,0.0,0.0,0.0,0.0,0.0,0.0,0.0,0.0,0.0,0.0,0.0,0.0,0.0,0.0,0.0,0.0,0.0,0.0,0.0,0.0,0.0,0.0,0.0,0.0,0.0,0.0,0.0,0.0,0.0,0.0,0.0,0.0,0.0,0.0,0.0,0.0,0.0,0.0,0.0,0.0,0.0,0.0,0.0,0.0,0.0,0.0,0.0,0.0,0.0,0.0,0.0,0.0,0.0,0.0,0.0,0.0,0.0,0.0,0.0,0.0,0.0,0.0,0.0,0.0,0.0,0.0,0.0,0.0,0.0,0.0,0.0,0.0,0.0,0.0,1.096,1.2236,1.2826,1.3054,1.2914,1.2402,1.1659,0.0,0.0,0.0,0.0,0.0,0.0,0.0,0.0,0.0,0.0,0.0,0.0,0.0,0.0,0.0,0.0,0.0,0.0,0.0,0.0,0.0,0.0,0.0,0.0,0.0,0.0,0.0,0.0,0.0,0.0,0.0,0.0,0.0,0.0,0.0,0.0,0.0,0.0,0.0,0.0,0.0,0.0,0.0,0.0,0.0,0.0,0.0,0.0,0.0,0.0,0.0,0.0,0.0,0.0,0.0,0.0,0.0,0.0,0.0,0.0,0.0,0.0,0.0,0.0,0.0,0.0,0.0,0.0,0.0,0.0,0.0,0.0,0.0,0.0,0.0,0.0,0.0,0.0,0.0,0.0,0.0,0.0,0.0,0.0,0.0,0.0,0.0,0.0,0.0,0.0,0.0,0.0,0.0,0.0,0.0,0.0,0.0,0.0,0.0,0.0,0.0,0.0,0.0,0.0,0.0,0.0,0.0,0.0,1.1536,1.2914,1.3571,1.3917,1.3942,1.3121,1.2062,0.0,0.0,0.0,0.0,0.0,0.0,0.0,0.0,0.0,0.0,0.0,0.0,0.0,0.0,0.0,0.0,0.0,0.0,0.0,0.0,0.0,0.0,0.0,0.0,0.0,0.0,0.0,0.0,0.0,0.0,0.0,0.0,0.0,0.0,0.0,0.0,0.0,0.0,0.0,0.0,0.0,0.0,0.0,0.0,0.0,0.0,0.0,0.0,0.0,0.0,0.0,0.0,0.0,0.0,0.0,0.0,0.0,0.0,0.0,0.0,0.0,0.0,0.0,0.0,0.0,0.0,0.0,0.0,0.0,0.0,0.0,0.0,0.0,0.0,0.0,0.0,0.0,0.0,0.0,0.0,0.0,0.0,0.0,0.0,0.0,0.0,0.0,0.0,0.0,0.0,0.0,0.0,0.0,0.0,0.0,0.0,0.0,0.0,0.0,0.0,0.0,0.0,0.0,0.0,0.0,0.0,0.0,0.0,1.2019,1.3194,1.377,1.4118,1.4214,1.3516,1.2648,0.0,0.0,0.0,0.0,0.0,0.0,0.0,0.0,0.0,0.0,0.0,0.0,0.0,0.0,0.0,0.0,0.0,0.0,0.0,0.0,0.0,0.0,0.0,0.0,0.0,0.0,0.0,0.0,0.0,0.0,0.0,0.0,0.0,0.0,0.0,0.0,0.0,0.0,0.0,0.0,0.0,0.0,0.0,0.0,0.0,0.0,0.0,0.0,1.5278,0.0,0.0,0.0,0.0,0.0,0.0,0.0,0.0,0.0,0.0,0.0,0.0,0.0,0.0,0.0,0.0,0.0,0.0,0.0,0.0,0.0,0.0,0.0,0.0,0.0,0.0,0.0,0.0,0.0,0.0,0.0,0.0,0.0,0.0,0.0,0.0,0.0,0.0,0.0,0.0,0.0,0.0,0.0,0.0,0.0,0.0,0.0,0.0,0.0,0.0,0.0,0.0,0.0,0.0,0.0,0.0,0.0,0.0,0.0,1.2778,1.3982,1.463,1.4894,1.4726,1.4339,1.3452,0.0,0.0,0.0,0.0,0.0,0.0,0.0,0.0,0.0,0.0,0.0,0.0,0.0,0.0,0.0,0.0,0.0,0.0,0.0,0.0,0.0,0.0,0.0,0.0,0.0,0.0,0.0,0.0,0.0,0.0,0.0,0.0,0.0,0.0,0.0,0.0,0.0,0.0,0.0,0.0,0.0,0.0,0.0,0.0,0.0,0.0,0.0,0.0,0.0,0.0,0.0,0.0,0.0,0.0,0.0,0.0,0.0,0.0,0.0,0.0,0.0,0.0,0.0,0.0,0.0,0.0,0.0,0.0,0.0,0.0,0.0,0.0,0.0,0.0,0.0,0.0,0.0,0.0,0.0,0.0,0.0,0.0,0.0,0.0,0.0,0.0,0.0,0.0,0.0,0.0,0.0,0.0,0.0,0.0,0.0,0.0,0.0,0.0,0.0,0.0,0.0,0.0,0.0,0.0,0.0,0.0,0.0,1.2313,1.3577,1.4883,1.5609,1.5738,1.5331,1.5207,1.43,1.2485,0.0,0.0,0.0,0.0,0.0,0.0,0.0,0.0,0.0,0.0,0.0,0.0,0.0,0.0,0.0,0.0,0.0,0.0,0.0,0.0,0.0,0.0,0.0,0.0,0.0,0.0,0.0,0.0,0.0,0.0,0.0,0.0,0.0,0.0,0.0,0.0,0.0,0.0,1.5194,1.5965,0.0,0.0,0.0,0.0,0.0,0.0,0.0,0.0,1.7375,0.0,0.0,0.0,0.0,0.0,0.0,0.0,0.0,0.0,0.0,0.0,0.0,0.0,0.0,0.0,0.0,0.0,0.0,0.0,0.0,0.0,0.0,0.0,0.0,0.0,0.0,0.0,0.0,0.0,0.0,0.0,0.0,0.0,0.0,0.0,0.0,0.0,0.0,0.0,0.0,0.0,0.0,0.0,0.0,0.0,0.0,0.0,0.0,0.0,0.0,0.0,0.0,0.0,0.0,0.0,0.0,1.1572,1.2865,1.4174,1.5433,1.5972,1.6126,1.5866,1.5592,1.4777,1.339,0.0,0.0,0.0,0.0,0.0,0.0,0.0,0.0,0.0,0.0,0.0,0.0,0.0,0.0,0.0,0.0,0.0,0.0,0.0,0.0,0.0,0.0,0.0,0.0,0.0,0.0,0.0,0.0,0.0,0.0,0.0,0.0,0.0,0.0,0.0,0.0,0.0,0.0,0.0,1.6452,1.6844,0.0,0.0,0.0,0.0,0.0,0.0,0.0,0.0,1.7479,0.0,0.0,0.0,0.0,0.0,0.0,0.0,0.0,0.0,0.0,0.0,0.0,0.0,0.0,0.0,0.0,0.0,0.0,0.0,0.0,0.0,0.0,0.0,0.0,0.0,0.0,0.0,0.0,0.0,0.0,0.0,0.0,0.0,0.0,0.0,0.0,0.0,0.0,0.0,0.0,0.0,0.0,0.0,0.0,0.0,0.0,0.0,0.0,0.0,0.0,0.0,0.0,0.0,0.0,0.0,1.235,1.3763,1.4992,1.6086,1.6709,1.676,1.6207,1.6185,1.5406,0.0,0.0,0.0,0.0,0.0,0.0,0.0,0.0,0.0,0.0,0.0,0.0,0.0,0.0,0.0,0.0,0.0,0.0,0.0,0.0,0.0,0.0,0.0,0.0,0.0,0.0,0.0,0.0,0.0,0.0,0.0,0.0,0.0,0.0,0.0,0.0,0.0,0.0,0.0,0.0,1.735,1.81,1.8566,0.0,0.0,0.0,0.0,0.0,0.0,1.9581,1.8988,0.0,0.0,0.0,0.0,0.0,0.0,0.0,0.0,0.0,0.0,0.0,0.0,0.0,0.0,0.0,0.0,0.0,0.0,0.0,0.0,0.0,0.0,0.0,0.0,0.0,0.0,0.0,0.0,0.0,0.0,0.0,0.0,0.0,0.0,0.0,0.0,0.0,0.0,0.0,0.0,0.0,0.0,0.0,0.0,0.0,0.0,0.0,0.0,0.0,0.0,0.0,0.0,0.0,0.0,0.0,1.3052,1.4582,1.5763,1.6658,1.7361,1.7337,1.6532,1.6746,1.5975,0.0,0.0,0.0,0.0,0.0,0.0,0.0,0.0,0.0,0.0,0.0,0.0,0.0,0.0,0.0,0.0,0.0,0.0,0.0,0.0,0.0,0.0,0.0,0.0,0.0,0.0,0.0,0.0,0.0,0.0,0.0,0.0,0.0,0.0,0.0,0.0,0.0,0.0,0.0,0.0,0.0,1.9539,1.9768,2.1105,0.0,0.0,0.0,0.0,2.216,2.1448,0.0,0.0,0.0,0.0,0.0,0.0,0.0,0.0,0.0,0.0,0.0,0.0,0.0,0.0,0.0,0.0,0.0,0.0,0.0,0.0,0.0,0.0,0.0,0.0,0.0,0.0,0.0,0.0,0.0,0.0,0.0,0.0,0.0,0.0,0.0,0.0,0.0,0.0,0.0,0.0,0.0,0.0,0.0,0.0,0.0,0.0,0.0,0.0,0.0,0.0,0.0,0.0,0.0,0.0,0.0,0.0,1.3351,1.4991,1.6207,1.6923,1.7567,1.7524,1.6781,1.7019,1.6242,0.0,0.0,0.0,0.0,0.0,0.0,0.0,0.0,0.0,0.0,0.0,0.0,0.0,0.0,0.0,0.0,0.0,0.0,0.0,0.0,0.0,0.0,0.0,0.0,0.0,0.0,0.0,0.0,0.0,0.0,0.0,0.0,0.0,0.0,0.0,0.0,0.0,0.0,0.0,0.0,0.0,2.0617,2.1403,2.2324,2.2948,0.0,0.0,2.3054,2.2886,2.2839,0.0,0.0,0.0,0.0,0.0,0.0,0.0,0.0,0.0,0.0,0.0,0.0,0.0,0.0,0.0,0.0,0.0,0.0,0.0,0.0,0.0,0.0,0.0,0.0,0.0,0.0,0.0,0.0,0.0,0.0,0.0,0.0,0.0,0.0,0.0,0.0,0.0,0.0,0.0,0.0,0.0,0.0,0.0,0.0,0.0,0.0,0.0,0.0,0.0,0.0,0.0,0.0,0.0,0.0,0.0,1.192,1.3782,1.5225,1.6447,1.7353,1.7714,1.7729,1.7389,1.7297,1.6546,0.0,0.0,0.0,0.0,0.0,0.0,0.0,0.0,0.0,0.0,0.0,0.0,0.0,0.0,0.0,0.0,0.0,0.0,0.0,0.0,0.0,0.0,0.0,0.0,0.0,0.0,0.0,0.0,0.0,0.0,0.0,0.0,0.0,0.0,0.0,0.0,0.0,0.0,0.0,0.0,0.0,0.0,2.2421,2.3293,0.0,0.0,0.0,2.436,2.3811,0.0,0.0,0.0,0.0,0.0,0.0,0.0,0.0,0.0,0.0,0.0,0.0,0.0,0.0,0.0,0.0,0.0,0.0,0.0,0.0,0.0,0.0,0.0,0.0,0.0,0.0,0.0,0.0,0.0,0.0,0.0,0.0,0.0,0.0,0.0,0.0,0.0,0.0,0.0,0.0,0.0,0.0,0.0,0.0,0.0,0.0,0.0,0.0,0.0,0.0,0.0,0.0,0.0,0.0,0.0,0.0,0.0,1.4084,1.5373,1.6521,1.76,1.7799,1.7859,1.773,1.7478,0.0,0.0,0.0,0.0,0.0,0.0,0.0,0.0,0.0,0.0,0.0,0.0,0.0,0.0,0.0,0.0,0.0,0.0,0.0,0.0,0.0,0.0,0.0,0.0,0.0,0.0,0.0,0.9965,0.0,0.0,0.0,0.0,0.0,0.0,0.0,0.0,0.0,0.0,0.0,0.0,0.0,0.0,2.2416,2.3283,2.4145,2.4746,0.0,0.0,2.5665,2.5011,2.4911,2.4536,0.0,0.0,0.0,0.0,0.0,0.0,0.0,0.0,0.0,0.0,0.0,0.0,0.0,0.0,0.0,0.0,0.0,0.0,0.0,0.0,0.0,0.0,0.0,0.0,0.0,0.0,0.0,0.0,0.0,0.0,0.0,0.0,0.0,0.0,0.0,0.0,0.0,0.0,0.0,0.0,0.0,0.0,0.0,0.0,0.0,0.0,0.0,0.0,0.0,0.0,0.0,0.0,0.0,0.0,0.0,1.4073,1.5348,1.6483,1.7462,1.7772,1.7805,1.7624,1.7403,1.7035,0.0,0.0,0.0,0.0,0.0,0.0,0.0,0.0,0.0,0.0,0.0,0.0,0.0,0.0,0.0,0.0,0.0,0.0,0.0,0.0,0.0,0.0,0.0,0.0,0.0,0.0,0.0,0.0,0.0,0.0,0.0,0.0,0.0,0.0,0.0,0.0,0.0,0.0,0.0,0.0,0.0,2.3327,2.4103,2.4962,2.5773,0.0,0.0,2.6691,2.6539,2.6524,2.5986,2.4378,0.0,0.0,0.0,0.0,0.0,0.0,0.0,0.0,0.0,0.0,0.0,0.0,0.0,0.0,0.0,0.0,0.0,0.0,0.0,0.0,0.0,0.0,0.0,0.0,0.0,0.0,0.0,0.0,0.0,0.0,0.0,0.0,0.0,0.0,0.0,0.0,0.0,0.0,0.0,0.0,0.0,0.0,0.0,0.0,0.0,0.0,0.0,0.0,0.0,0.0,0.0,0.0,0.0,1.2415,1.4341,1.525,1.6284,1.7324,1.7617,1.7829,1.7917,1.7786,1.7424,0.0,0.0,0.0,0.0,0.0,0.0,0.0,0.0,0.0,0.0,0.0,0.0,0.0,0.0,0.0,0.0,0.0,0.0,0.0,0.0,0.0,0.0,0.0,0.0,0.0,0.0,0.0,0.0,1.3125,1.3613,1.42,0.0,0.0,0.0,0.0,0.0,0.0,0.0,0.0,0.0,0.0,2.4315,2.5638,2.6094,0.0,0.0,2.7477,2.7474,2.7397,2.7397,2.6974,2.5871,2.5244,0.0,0.0,0.0,0.0,0.0,0.0,0.0,0.0,0.0,0.0,0.0,0.0,0.0,0.0,0.0,0.0,0.0,0.0,0.0,0.0,0.0,0.0,0.0,0.0,0.0,0.0,0.0,0.0,0.0,0.0,0.0,0.0,0.0,0.0,0.0,0.0,0.0,0.0,0.0,0.0,0.0,0.0,0.0,0.0,0.0,0.0,0.0,0.0,0.0,0.0,0.0,0.0,1.2715,1.4478,1.5333,1.6289,1.7407,1.7672,1.7952,1.8246,1.8169,1.7899,0.0,0.0,0.0,0.0,0.0,0.0,0.0,0.0,0.0,0.0,0.0,0.0,0.0,0.0,0.0,0.0,0.0,0.0,0.0,0.0,0.0,0.0,0.0,0.0,0.0,0.0,0.0,0.0,1.4738,1.5357,1.6021,0.0,0.0,0.0,0.0,0.0,0.0,0.0,0.0,0.0,0.0,2.515,2.6544,2.6908,2.7339,2.8114,2.8238,2.8198,2.8136,2.8124,2.7862,2.7037,0.0,0.0,0.0,0.0,0.0,0.0,0.0,0.0,0.0,0.0,0.0,0.0,0.0,0.0,0.0,0.0,0.0,0.0,0.0,0.0,0.0,0.0,0.0,0.0,0.0,0.0,0.0,0.0,0.0,0.0,0.4255,0.0,0.0,0.0,0.0,0.0,0.0,0.0,0.0,0.0,0.0,0.0,0.0,0.0,0.0,0.0,0.0,0.0,0.0,0.0,0.0,0.0,0.0,1.2948,1.4488,1.5548,1.6625,1.7719,1.7926,1.8205,1.8549,1.8529,1.8474,1.8448,0.0,0.0,0.0,0.0,0.0,0.0,0.0,0.0,0.0,0.0,0.0,0.0,0.0,0.0,0.0,0.0,0.0,0.0,0.0,0.0,0.0,0.0,0.0,0.0,0.0,0.0,1.5102,1.6757,1.7765,0.0,0.0,0.0,0.0,0.0,0.0,0.0,0.0,0.0,0.0,2.4879,2.5683,2.652,2.7335,2.8135,2.8861,2.8982,2.8957,2.8886,2.8879,2.8586,0.0,0.0,0.0,0.0,0.0,0.0,0.0,0.0,0.0,0.0,0.0,0.0,0.0,0.0,0.0,0.0,0.0,0.0,0.0,0.0,0.0,0.0,0.0,0.0,0.0,0.0,0.0,0.5287,0.5323,0.0,0.0,0.0,0.0,0.0,0.0,0.0,0.0,0.0,0.0,0.0,0.8342,0.8557,0.0,0.0,0.0,0.0,0.0,0.0,0.0,0.0,0.0,0.0,0.0,0.0,1.3405,1.4558,1.5725,1.6608,1.7263,1.8046,1.8566,1.8785,1.9212,1.9222,1.8759,0.0,0.0,0.0,0.0,0.0,0.0,0.0,0.0,0.0,0.0,0.0,0.0,0.0,0.0,0.0,0.0,0.0,0.0,0.0,0.0,0.0,0.0,0.0,0.0,0.0,1.532,0.0,0.0,0.0,0.0,0.0,0.0,0.0,0.0,0.0,0.0,0.0,2.4109,2.4892,2.6158,2.7285,2.8082,2.8437,2.89,0.0,0.0,0.0,0.0,0.0,0.0,0.0,0.0,0.0,0.0,0.0,0.0,0.0,0.0,2.5232,2.3928,2.3707,2.3581,2.3252,0.0,0.0,0.0,0.0,0.0,0.0,0.0,0.0,0.0,0.0,0.0,0.0,0.0,0.0,0.5707,0.0,0.5889,0.0,0.0,0.0,0.0,0.0,0.0,0.0,0.0,0.8546,0.8908,0.9242,0.9502,0.9713,0.0,1.0128,0.9906,0.0,0.0,0.0,0.0,0.0,0.0,0.0,0.0,1.3865,1.5036,1.5963,1.6783,1.7481,1.8296,1.8826,1.9072,1.9657,1.9701,1.9132,1.838,1.7465,0.0,0.0,0.0,0.0,0.0,0.0,0.0,0.0,0.0,0.0,0.0,0.0,0.0,0.0,0.0,0.0,0.0,0.0,0.0,0.0,0.0,0.0,0.0,1.7631,0.0,0.0,0.0,0.0,0.0,0.0,0.0,0.0,0.0,2.2199,2.4073,2.5625,2.6126,2.7352,2.8388,2.8894,0.0,0.0,0.0,0.0,0.0,0.0,0.0,3.0027,2.948,2.9586,2.9532,2.9024,2.8903,2.8867,2.8876,0.0,0.0,2.6486,2.6186,2.6261,2.6491,2.6547,2.669,2.724,2.7554,2.7841,0.0,0.0,0.0,0.0,0.0,0.0,0.0,0.0,0.6455,0.6389,0.0,0.6566,0.0,0.0,0.0,0.0,0.0,0.8238,0.0,0.0,0.949,0.9811,1.0111,1.0544,1.08,1.0836,1.1225,1.1249,1.087,1.0408,0.0,0.0,0.0,0.0,0.0,0.0,1.4323,1.5806,1.6307,1.7134,1.8287,1.8573,1.8935,1.9419,1.9911,1.996,1.9622,1.9621,1.9286,1.8517,1.7861,0.0,0.0,0.0,0.0,0.0,0.0,0.0,0.0,0.0,0.0,0.0,0.0,0.0,0.0,0.0,0.0,0.0,0.0,0.0,0.0,1.9021,0.0,0.0,0.0,0.0,0.0,0.0,0.0,0.0,0.0,0.0,2.5456,2.5507,2.5986,2.752,0.0,0.0,0.0,0.0,3.0051,3.0007,2.9928,2.9877,2.9805,3.0366,3.0852,3.0911,0.0,0.0,3.1963,3.1963,3.1896,3.1947,3.1835,3.1279,2.9072,2.8692,2.8933,2.9641,2.9735,2.982,2.9822,3.0274,3.0791,0.625,0.0,0.0,0.0,0.0,0.6063,0.6068,0.6068,0.6228,0.6299,0.6306,0.6635,0.0,0.0,0.0,0.0,0.0,0.0,0.9307,0.9519,1.0053,1.036,1.0484,1.0678,1.0808,1.0808,1.1179,1.131,1.1208,1.1608,1.1486,1.0895,0.0,0.0,0.0,0.0,1.4811,1.543,1.6537,1.7377,1.7823,1.8582,1.9403,2.0231,2.0373,2.0706,2.1255,2.0707,2.0432,2.0521,1.976,0.0,0.0,0.0,0.0,0.0,0.0,0.0,0.0,0.0,0.0,0.0,0.0,0.0,0.0,0.0,0.0,0.0,0.0,0.0,2.014,2.1543,2.2455,0.0,0.0,0.0,0.0,0.0,0.0,0.0,0.0,0.0,2.781,2.7959,2.8109,0.0,0.0,3.0594,3.0541,3.1174,3.1598,3.1497,0.0,0.0,0.0,3.1354,3.1437,3.1478,3.16,3.1737,3.1771,3.1782,3.1794,3.1857,3.189,3.1848,3.1846,3.1405,3.1211,3.1409,3.1438,3.1439,3.1448,3.1636,3.1794,0.6324,0.61,0.6282,0.6362,0.6367,0.6393,0.6393,0.6388,0.6516,0.6627,0.6786,0.7124,0.7407,0.7675,0.83,0.0,0.0,0.0,1.0068,1.0214,1.0594,1.088,1.1004,1.1189,1.1278,1.1316,1.1768,1.2019,1.2019,1.2767,1.2879,1.2382,0.0,0.0,1.3606,1.4506,1.5256,1.5861,1.6715,1.7352,1.775,1.8632,1.9495,2.028,2.0597,2.1087,2.1776,2.1772,2.1909,2.2289,2.1994,2.1607,0.0,0.0,0.0,0.0,0.0,0.0,0.0,0.0,0.0,0.0,0.0,1.3584,1.4959,0.0,0.0,0.0,2.0104,2.1758,2.3213,2.4121,0.0,0.0,0.0,0.0,0.0,0.0,0.0,2.6309,2.7272,2.8281,2.9277,2.9927,3.019,2.9897,3.0942,3.1729,3.1679,0.0,3.2184,3.2044,3.1936,3.1827,3.1744,3.194,3.2207,3.2521,3.2576,3.257,3.2606,3.2618,3.2642,3.2701,3.2755,3.3032,3.3885,3.3743,3.3373,3.3128,3.3329,3.3556,3.3596,3.3851,3.4073,0.6324,0.6384,0.6864,0.7055,0.7026,0.7056,0.7051,0.7056,0.7081,0.724,0.7504,0.7849,0.8204,0.8622,0.9505,0.0,1.0301,1.0523,1.0821,1.1144,1.1166,1.1357,1.1679,1.1901,1.204,1.204,1.2754,1.3106,1.3124,1.3816,1.4164,1.4189,1.3993,1.4276,1.5027,1.5113,1.5656,1.6684,1.6774,1.7207,1.7998,1.8674,1.9308,1.9824,2.0474,2.1042,2.153,2.2633,2.3459,2.3802,2.4277,2.4483,2.4293,0.0,0.0,0.0,0.0,0.0,0.0,0.0,0.0,0.0,0.0,0.0,0.0,0.0,0.0,0.0,2.3532,0.0,2.582,2.6613,0.0,0.0,0.0,2.8084,2.8086,2.8068,2.8088,2.808,0.0,0.0,3.0192,0.0,3.2164,3.1558,3.2064,3.2503,3.2467,3.241,3.2231,3.2208,3.2113,3.2031,3.2097,3.2617,3.3322,3.396,3.4136,3.4175,3.4188,3.4201,3.4227,3.4277,3.4303,3.455,3.5429,3.5547,3.5484,3.4798,3.5289,3.5866,3.5874,3.6348,3.6749,0.6608,0.6608,0.6838,0.6764,0.6491,0.6662,0.6722,0.6722,0.6996,0.7171,0.7379,0.782,0.8375,0.9055,0.9644,0.9991,1.0164,1.0726,1.1136,1.1481,1.1692,1.1945,1.2292,1.2339,1.2409,1.2409,1.2867,1.3166,1.3292,1.4142,1.462,1.4782,1.5129,1.5168,1.4968,1.5346,1.5761,1.6194,1.664,1.722,1.7964,1.8313,1.8798,1.9452,2.0009,2.0685,2.1552,2.2551,2.3663,2.4933,2.554,2.601,2.6291,2.5447,0.0,0.0,0.0,0.0,0.0,0.0,0.0,0.0,0.0,1.8643,2.0506,0.0,2.2503,0.0,2.527,2.6656,2.7522,2.7807,0.0,0.0,2.8071,2.8236,2.8786,2.928,2.9811,3.0392,3.1244,3.1765,3.1766,3.2609,3.3166,3.3006,3.3129,3.3222,3.318,3.3623,3.3852,3.3729,3.4,3.4276,3.4187,3.4755,3.5243,3.5534,3.5581,3.5661,3.5791,3.5837,3.5851,3.5919,3.5967,3.6086,3.6298,3.64,3.6403,3.6304,3.6502,3.6723,3.6754,3.6951,3.7099,0.6581,0.6581,0.6646,0.6529,0.6375,0.6715,0.6867,0.6898,0.7152,0.7401,0.7644,0.8292,0.8992,0.9698,1.012,1.0428,1.0645,1.1118,1.1496,1.178,1.1916,1.2178,1.2492,1.2631,1.2772,1.289,1.3335,1.3681,1.3931,1.4573,1.509,1.5341,1.5659,1.5687,1.5451,1.5634,1.5876,1.6125,1.6651,1.7116,1.7495,1.794,1.8361,1.8854,1.9441,2.015,2.1005,2.2115,2.3694,2.5862,2.6614,2.7627,2.9074,2.8424,2.7572,0.0,0.0,0.0,0.0,0.0,0.0,0.0,0.0,0.0,0.0,0.0,2.5112,2.5975,2.726,2.8409,2.9234,2.9624,2.9969,3.0292,3.023,3.0312,3.0676,3.0995,3.1309,3.1705,3.2354,3.2778,3.2767,3.3761,3.4481,3.4481,3.4781,3.4883,3.4617,3.5041,3.5429,3.5311,3.5449,3.555,3.5454,3.572,3.5967,3.6042,3.6065,3.6142,3.6248,3.6309,3.637,3.644,3.6482,3.6653,3.6994,3.7136,3.7296,3.7703,3.7901,3.7854,3.761,3.7871,3.8158,0.6457,0.6448,0.6391,0.642,0.6449,0.6942,0.7171,0.7167,0.7363,0.7689,0.8117,0.8952,0.9696,1.0301,1.0681,1.1028,1.131,1.1534,1.1794,1.2062,1.2105,1.2295,1.2658,1.2901,1.318,1.3379,1.3856,1.4274,1.4641,1.5026,1.5461,1.5832,1.5841,1.5938,1.6061,1.5867,1.5903,1.6246,1.6595,1.6795,1.6908,1.752,1.7974,1.8236,1.8777,1.9387,2.0031,2.1166,2.3292,2.6376,2.7252,2.8986,3.1824,3.1306,3.0621,0.0,2.8631,0.0,0.0,0.0,0.0,0.0,0.0,0.0,0.0,2.6831,2.7793,2.8763,2.9551,3.0267,3.0963,3.1642,3.2333,3.3001,3.2958,3.2877,3.2821,3.2714,3.2626,3.2581,3.3235,3.3666,3.3687,3.4902,3.5831,3.5819,3.6404,3.6634,3.6232,3.6367,3.6554,3.6604,3.6454,3.6311,3.6343,3.6305,3.6292,3.6331,3.6447,3.6394,3.6497,3.6575,3.6648,3.6705,3.6822,3.7034,3.7718,3.79,3.8164,3.8766,3.8976,3.8894,3.8502,3.8852,3.947,0.6639,0.6631,0.6481,0.642,0.6416,0.6679,0.6843,0.6975,0.7171,0.7689,0.8447,0.9145,0.9779,1.0339,1.0807,1.1153,1.1317,1.1735,1.2091,1.2404,1.266,1.2994,1.3309,1.3375,1.3512,1.3736,1.3962,1.4353,1.4836,1.5248,1.5647,1.6035,1.6035,1.6061,1.6061,0.0,0.0,0.0,1.5973,1.6281,1.6874,1.7047,1.7348,1.7808,1.7944,0.0,1.8593,1.8859,2.1145,2.5665,2.6465,0.0,0.0,0.0,0.0,0.0,0.0,0.0,0.0,0.0,0.0,0.0,2.9147,2.8855,2.7851,2.914,3.0689,3.2182,3.2502,3.2622,3.2707,3.2787,3.2919,3.301,3.2904,3.303,3.3497,3.343,3.3515,3.4118,3.4798,3.5219,3.5136,3.5969,3.654,3.6476,3.7143,3.7543,3.744,3.7031,3.6695,3.6574,3.6839,3.72,3.7713,3.7716,3.7642,3.7853,3.7885,3.7877,3.793,3.8013,3.8099,3.8157,3.8305,3.8346,3.8545,3.8641,3.8699,3.896,3.9021,3.9022,3.9024,3.9229,3.9444,0.6857,0.0,0.6725,0.6635,0.0,0.6655,0.6735,0.6811,0.7073,0.7694,0.8544,0.9204,0.9811,1.0333,1.087,1.127,1.1546,1.1866,1.2266,1.2733,1.2936,1.3177,1.3492,1.3492,1.3674,1.3971,1.4225,1.4684,1.532,1.5813,1.63,1.6773,1.6624,1.6528,1.6474,1.5838,1.5532,1.5647,1.5761,1.6044,1.6482,1.676,1.6968,1.7157,0.0,0.0,0.0,0.0,0.0,0.0,0.0,0.0,0.0,0.0,0.0,3.3006,3.2614,3.2096,3.1342,3.0875,3.086,3.1331,3.1813,3.1698,3.0838,3.1553,3.2382,3.3164,3.3254,3.3404,3.3742,3.374,3.3828,3.4167,3.4098,3.4101,3.4362,3.4585,3.4768,3.5041,3.5701,3.6143,3.604,3.6732,3.7182,3.7197,3.7836,3.8325,3.8307,3.8011,3.7677,3.747,3.7613,3.7897,3.8133,3.8209,3.8209,3.8259,3.8274,3.8338,3.843,3.8494,3.8541,3.8658,3.8719,3.8732,3.8765,3.8807,3.8881,3.8976,3.9297,3.961,3.9761,3.9862,4.0112,0.7037,0.7033,0.7036,0.691,0.6775,0.6737,0.6771,0.6821,0.0,0.0,0.0,0.9139,0.9722,1.0276,1.083,1.1347,1.1815,1.2029,1.2456,1.3001,1.3067,1.3236,1.3492,1.3492,1.371,1.4116,1.4482,1.5054,1.5819,1.6392,1.6985,1.7448,1.7267,1.7097,1.6889,1.6131,1.5698,1.5726,1.575,1.5867,1.6105,1.6517,1.6691,1.6577,1.6656,1.6508,1.6062,1.5528,1.7946,2.3547,2.4605,2.7737,3.3582,3.5044,3.5353,3.4734,3.4565,3.4213,3.3602,3.3409,3.3413,3.3629,3.3758,3.3766,3.3628,3.3553,3.354,3.3627,3.361,3.3911,3.4536,3.4542,3.4764,3.5402,3.5289,3.5134,3.5201,3.5583,3.5751,3.5802,3.6395,3.684,3.6703,3.7325,3.7841,3.79,3.8328,3.8803,3.8803,3.87,3.8569,3.8319,3.8239,3.8318,3.8241,3.8225,3.8225,3.8242,3.829,3.8338,3.8399,3.8462,3.8541,3.8673,3.8707,3.8707,3.8689,3.8747,3.8877,3.908,3.969,4.0337,4.074,4.0872,4.111,0.7188,0.7175,0.7053,0.6975,0.6955,0.6951,0.7019,0.7141,0.7338,0.7754,0.8269,0.8818,0.9402,1.0066,1.0718,1.1316,1.1811,1.2375,1.2746,0.0,1.3294,1.3455,1.3492,1.3492,1.371,1.4116,1.4638,1.5173,1.5844,1.6693,1.7241,1.7484,1.7637,1.7527,1.7153,1.6698,1.653,1.6672,1.5933,1.5718,1.6096,1.6167,1.6237,1.6342,1.6105,1.5674,1.5108,1.3643,1.453,1.8285,2.1353,2.4975,2.922,3.3533,3.5805,3.5669,3.5001,3.4572,3.4503,3.3804,3.3711,3.446,3.5147,3.5229,3.4508,3.4369,3.4587,3.5174,3.5171,3.5266,3.5341,3.5309,3.528,3.5331,3.5209,3.5303,3.5756,3.5873,3.6075,3.6489,3.7123,3.7483,3.7393,3.7906,3.8303,3.8311,3.8384,3.8478,3.8494,3.859,3.8596,3.8389,3.8323,3.8274,3.8225,3.8259,3.8274,3.8309,3.8338,3.8401,3.8478,3.8494,3.8541,3.8673,3.8707,3.8707,3.8707,3.8732,3.908,3.9667,4.0115,4.0689,4.1947,4.2329,4.2303,0.7366,0.7354,0.7273,0.7183,0.7094,0.7033,0.7151,0.7386,0.7466,0.7765,0.8242,0.8759,0.9415,1.0152,1.0738,1.137,1.2032,1.2375,1.2707,1.2942,1.3092,1.3229,1.3346,1.3346,1.3689,1.4376,1.4939,1.5585,1.6406,1.7368,1.7956,1.8103,1.8015,1.7763,1.7371,1.6948,1.6805,1.6872,1.6382,1.6147,1.6196,1.6339,1.6244,1.6008,1.5788,1.5248,1.4474,1.3077,1.3839,1.7169,2.0756,2.4556,2.8593,3.3268,3.5865,3.5891,3.5545,3.5331,3.5348,3.4972,3.494,3.532,3.5657,3.5655,3.5172,3.5127,3.5227,3.551,3.5515,3.545,3.5395,3.5379,3.535,3.519,3.5479,3.5771,3.6025,3.6674,3.7075,3.7243,3.7796,3.8165,3.7961,3.8225,3.8415,3.837,3.8303,3.8236,3.8186,3.8271,3.8338,3.8307,3.8307,3.8274,3.8225,3.8207,3.8257,3.829,3.834,3.8385,3.8496,3.851,3.8559,3.8673,3.8707,3.8704,3.8735,3.8777,3.9202,3.9956,4.0611,4.1408,4.2485,4.3177,4.3409,0.7518,0.7518,0.7518,0.7407,0.7273,0.7167,0.7266,0.7552,0.7588,0.7843,0.8358,0.8821,0.9462,1.0254,1.0821,1.1471,1.2163,1.2366,1.2597,1.2879,1.29,1.2973,1.3119,1.3156,1.3653,1.4464,1.5088,1.5895,1.6816,1.7892,1.8563,1.8736,1.8421,1.808,1.7758,1.7367,1.7128,1.7128,1.7013,1.6784,1.6445,1.6584,1.6446,1.6007,1.5802,1.5271,1.4359,1.3149,1.356,1.5928,1.9478,2.3374,2.7547,3.2114,3.5142,3.6207,3.6434,3.645,3.6444,3.6467,3.6443,3.6433,3.6359,3.6261,3.614,3.6098,3.5881,3.5541,3.5395,3.5315,3.5278,3.5266,3.5201,3.5119,3.5732,3.6156,3.6298,3.728,3.8027,3.7917,3.8319,3.853,3.8385,3.8302,3.8254,3.8189,3.8121,3.8035,3.8002,3.7984,3.8054,3.8156,3.8241,3.8224,3.8209,3.8207,3.8241,3.829,3.8323,3.8368,3.8446,3.8494,3.8544,3.8643,3.8692,3.8719,3.8777,3.8803,3.9305,4.0278,4.1059,4.1809,4.2961,4.3669,4.4143,0.7522,0.7518,0.7518,0.7514,0.7447,0.7465,0.7559,0.7753,0.7777,0.8096,0.8674,0.9042,0.9604,1.0327,1.0984,1.1591,1.2196,1.2471,1.2675,1.2893,1.29,1.29,1.2929,1.3119,1.3475,1.4148,1.4981,1.5787,1.6651,1.7812,1.8674,1.9143,1.8847,1.8612,1.8537,1.812,1.788,1.7889,1.7897,1.7547,1.688,1.6867,1.6766,1.6543,1.6308,1.5869,1.4981,1.3822,1.2726,1.2222,1.55,1.9409,2.385,2.8513,3.3174,3.7557,3.8015,3.8112,3.8144,3.8173,3.8066,3.8076,3.7859,3.7739,3.7637,3.7563,3.6921,3.578,3.5312,3.5248,3.5122,3.5132,3.5053,3.4983,3.5684,3.6266,3.6706,3.7378,3.803,3.8551,3.841,3.8289,3.8153,3.8036,3.7951,3.7951,3.7916,3.7898,3.7863,3.7881,3.7898,3.7933,3.8003,3.807,3.814,3.8241,3.8257,3.8272,3.8336,3.8366,3.8415,3.8462,3.8528,3.8528,3.8609,3.8704,3.8777,3.8907,3.9446,4.0792,4.1571,4.2144,4.3558,4.4143,4.4199,0.762,0.7522,0.7518,0.7518,0.7518,0.7638,0.7791,0.7983,0.8242,0.8678,0.9238,0.9626,1.0094,1.0645,1.1106,1.1634,1.224,1.2361,1.2445,1.2526,1.2556,1.2599,1.2716,1.2783,1.3331,1.4262,1.4926,1.5811,1.6902,1.8003,1.8803,1.9222,1.8882,1.8709,1.866,1.8241,1.7991,1.7991,1.7991,1.7846,1.7564,1.7364,1.7056,1.6623,1.6387,1.5928,1.5111,1.4201,1.3166,1.224,1.5493,1.9445,2.3731,2.8203,3.2878,3.7549,3.8227,3.8301,3.8333,3.8354,3.8297,3.8183,3.8061,3.7945,3.7846,3.7714,3.7281,3.6662,3.6072,3.5759,3.5666,3.5239,3.4889,3.4961,3.5897,3.6723,3.6789,3.7797,3.8497,3.8523,3.832,3.8103,3.8002,3.7881,3.7757,3.7739,3.7721,3.7703,3.7613,3.7667,3.7739,3.7775,3.781,3.788,3.8003,3.8038,3.8088,3.8154,3.8203,3.8234,3.8366,3.8415,3.8446,3.8446,3.8512,3.8609,3.8719,3.8884,3.9361,4.0944,4.2551,4.3311,4.4072,4.4229,4.4274,0.7722,0.76,0.7504,0.7518,0.7599,0.7723,0.7991,0.8289,0.8589,0.9084,0.9695,1.0105,1.0533,1.0961,1.1263,1.1741,1.2254,1.2305,1.2305,1.2305,1.2305,1.2378,1.2489,1.2599,1.3215,1.4239,1.4793,1.5811,1.7179,1.8201,1.8891,1.9121,1.8843,1.8709,1.866,1.8241,1.7991,1.7991,1.8072,1.808,1.7997,1.7837,1.7453,1.6857,1.6677,1.6218,1.5433,1.4786,1.3942,1.2904,1.5242,1.8507,2.2727,2.7015,3.2124,3.7852,3.882,3.893,3.8903,3.8916,3.8876,3.873,3.863,3.8509,3.8382,3.8232,3.81,3.7921,3.7232,3.6644,3.6,3.545,3.4984,3.4824,3.6069,3.6901,3.6792,3.7927,3.86,3.8334,3.8086,3.7897,3.7757,3.7631,3.7576,3.7539,3.7521,3.7503,3.7428,3.7466,3.7558,3.7559,3.7595,3.7685,3.7846,3.7934,3.7951,3.8002,3.8035,3.8104,3.8236,3.8252,3.8302,3.8285,3.8382,3.8478,3.8609,3.8793,3.9292,4.1049,4.2637,4.3806,4.4085,4.418,4.427,0.7796,0.7759,0.7557,0.7599,0.7761,0.7799,0.814,0.8627,0.8742,0.916,0.9879,1.0331,1.0801,1.1378,1.1588,1.1916,1.2268,1.2305,1.2305,1.2305,1.2305,1.2298,1.2335,1.2496,1.3071,1.3984,1.456,1.5795,1.7626,1.8362,1.8812,1.8993,1.8772,1.8709,1.8612,1.8201,1.7991,1.8031,1.8201,1.8241,1.804,1.8215,1.798,1.7365,1.7326,1.6887,1.6085,1.5598,1.4913,1.405,1.3531,1.516,1.9423,2.3943,3.0685,3.8598,4.028,4.0407,4.0321,4.0304,4.0314,4.0238,4.0023,4.0024,3.9677,3.9521,3.9377,3.9363,3.8476,3.7507,3.6299,3.5818,3.5312,3.4693,3.5875,3.6588,3.6468,3.7613,3.8209,3.8052,3.7792,3.7595,3.7372,3.7298,3.7334,3.7334,3.7333,3.7316,3.7316,3.7316,3.7334,3.7353,3.7372,3.7447,3.7793,3.7793,3.7828,3.7863,3.7828,3.7899,3.7933,3.795,3.8035,3.8119,3.8221,3.8336,3.8462,3.8886,3.9536,4.0877,4.2463,4.3481,4.3886,4.3989,4.4097,0.8004,0.7784,0.7561,0.7599,0.7799,0.7915,0.8255,0.8699,0.9122,0.9576,1.0105,1.0663,1.1149,1.1595,1.1781,1.204,1.2268,1.2305,1.2305,1.2305,1.2305,1.2305,1.2298,1.2378,1.2914,1.3864,1.4404,1.5669,1.7584,1.8362,1.8732,1.8772,1.874,1.8652,1.8442,1.8161,1.7991,1.7991,1.8112,1.8072,1.7991,1.808,1.7919,1.7432,1.7392,1.7057,1.6327,1.5997,1.5492,1.4783,1.4019,1.5511,1.9971,2.6709,3.1933,3.5429,3.8628,4.04,4.0372,4.0381,4.0347,4.0223,4.0139,4.0019,3.9848,3.9682,3.9563,3.9364,3.9061,3.8262,3.7299,3.6334,3.5362,3.4726,3.5659,3.6509,3.6519,3.7361,3.8119,3.7845,3.7559,3.739,3.7316,3.7297,3.7278,3.7203,3.7259,3.7259,3.7203,3.7239,3.7278,3.7297,3.7297,3.7353,3.7447,3.7503,3.7521,3.7558,3.7594,3.7631,3.7667,3.7757,3.7827,3.7862,3.7984,3.8104,3.8221,3.8879,3.9581,4.0628,4.2228,4.3135,4.3703,4.3793,4.3974,0.8122,0.7804,0.7743,0.7773,0.7919,0.8178,0.8556,0.9008,0.9463,0.9992,1.0513,1.0999,1.1409,1.1781,1.2009,1.215,1.2305,1.2305,1.2305,1.2305,1.2305,1.2305,1.2305,1.2305,1.2791,1.3765,1.4673,1.5952,1.7511,1.829,1.858,1.8612,1.8612,1.8491,1.8282,1.8023,1.791,1.791,1.7959,1.7991,1.7991,1.7991,1.7806,1.7432,1.7351,1.7025,1.6427,1.6278,1.5914,1.5291,1.4734,1.6177,2.0361,2.5599,3.0151,3.2932,3.602,3.8678,3.9975,4.0206,4.0139,3.9981,3.9927,3.9807,3.9604,3.9514,3.9401,3.9285,3.9151,3.8744,3.7877,3.6922,3.5969,3.523,3.5829,3.6435,3.6522,3.7388,3.7789,3.7559,3.7318,3.7203,3.7201,3.7201,3.7163,3.7069,3.7145,3.7163,3.7106,3.7126,3.7201,3.7201,3.7201,3.7182,3.7239,3.7259,3.7334,3.7391,3.741,3.7429,3.7466,3.754,3.7595,3.7631,3.7703,3.781,3.8202,3.8844,3.9653,4.0538,4.1588,4.2603,4.3108,4.3595,4.3747,0.8131,0.7885,0.7991,0.8117,0.8214,0.8522,0.9046,0.9544,0.9809,1.0331,1.0962,1.1298,1.1632,1.1966,1.2194,1.2305,1.2305,1.2305,1.2305,1.2305,1.2305,1.2305,1.2305,1.2305,1.2726,1.3584,1.5287,1.6557,1.7366,1.8063,1.8442,1.8402,1.8362,1.8241,1.7991,1.7821,1.77,1.774,1.787,1.7991,1.7991,1.7991,1.7797,1.7441,1.7221,1.6886,1.6427,1.6394,1.6188,1.5733,1.5333,1.6699,1.9112,2.0438,2.3625,3.0586,3.2817,3.5323,3.8913,3.9734,3.9892,3.9751,3.9705,3.9611,3.9427,3.9337,3.9245,3.9129,3.9013,3.865,3.7968,3.7581,3.7137,3.6611,3.6366,3.6593,3.7038,3.7565,3.7703,3.7242,3.7068,3.6989,3.6989,3.7029,3.7048,3.7046,3.7066,3.7068,3.7068,3.7085,3.7046,3.7046,3.7105,3.7143,3.7085,3.7046,3.7163,3.7259,3.7259,3.7297,3.7297,3.7336,3.7374,3.7411,3.7449,3.7577,3.7739,3.8384,3.9067,3.9968,4.1053,4.1941,4.2522,4.2993,4.3424,0.8307,0.8338,0.8176,0.8357,0.8712,0.8842,0.9268,0.9809,1.018,1.0594,1.1111,1.1446,1.175,1.2003,1.2187,1.2305,1.2305,1.2305,1.2305,1.2305,1.2305,1.2305,1.2305,1.2305,1.2831,1.3943,1.5443,1.6492,1.7116,1.7943,1.8313,1.8161,1.8112,1.8031,1.7789,1.7587,1.7546,1.77,1.7781,1.787,1.7991,1.787,1.7668,1.7392,1.7221,1.6927,1.6607,1.6607,1.6476,1.6188,1.5733,1.56,1.615,1.8267,2.09,2.3876,2.9796,3.3272,3.5078,3.7926,3.9455,3.9514,3.9489,3.9389,3.9219,3.9183,3.9115,3.8993,3.8892,3.8671,3.8394,3.7786,3.718,3.6397,3.6696,3.6884,3.6998,3.7273,3.7302,3.7106,3.7009,3.6989,3.7009,3.7029,3.7068,3.7087,3.7143,3.7182,3.7201,3.7182,3.7201,3.7201,3.7201,3.7182,3.7163,3.7143,3.7201,3.7239,3.722,3.7201,3.7182,3.7182,3.7203,3.7222,3.7279,3.7372,3.752,3.7862,3.8525,3.9191,4.0057,4.0925,4.1775,4.2358,4.2796,0.8477,0.8598,0.8452,0.868,0.9154,0.9257,0.9619,1.0149,1.0477,1.0856,1.1223,1.1484,1.1706,1.1892,1.2077,1.2187,1.2194,1.2268,1.2305,1.2305,1.2305,1.2305,1.2335,1.2489,1.301,1.4028,1.5257,1.6194,1.6934,1.7666,1.8014,1.7934,1.791,1.774,1.7497,1.7383,1.7383,1.7538,1.7578,1.7708,1.7789,1.7708,1.7505,1.731,1.7057,1.6853,1.6689,1.6689,1.6648,1.6443,1.5982,1.5151,1.44,1.6371,1.8167,2.0498,2.4518,2.9055,3.2389,3.5364,3.7842,3.8831,3.9285,3.9224,3.9078,3.9036,3.8979,3.8896,3.8825,3.8716,3.8533,3.8125,3.7509,3.7071,3.7049,3.7152,3.7072,3.7183,3.7206,3.7087,3.7009,3.7009,3.7048,3.7087,3.7127,3.7166,3.7241,3.7297,3.7297,3.7297,3.7297,3.7297,3.7278,3.7259,3.7278,3.7278,3.7278,3.7259,3.722,3.7182,3.7126,3.7145,3.7147,3.7106,3.7126,3.7145,3.7276,3.7333,3.7764,3.8465,3.9184,4.0065,4.0949,4.1695,4.2227,0.8636,0.8687,0.8831,0.9086,0.949,0.9796,1.0149,1.0606,1.077,1.1035,1.1341,1.1409,1.1521,1.1744,1.1935,1.2003,1.2003,1.2194,1.2268,1.2268,1.2268,1.2305,1.2342,1.2673,1.3218,1.397,1.4801,1.5759,1.6679,1.7195,1.7502,1.7631,1.7616,1.748,1.7188,1.7082,1.7106,1.726,1.7293,1.7332,1.7517,1.7349,1.7195,1.6968,1.6717,1.6587,1.6531,1.6563,1.6643,1.6599,1.6023,1.5401,1.4734,1.4139,1.5807,1.8833,1.9353,2.4048,2.9799,3.2724,3.46,3.7631,3.8663,3.9031,3.8935,3.8925,3.8881,3.8792,3.8719,3.8624,3.8494,3.8357,3.8223,3.8162,3.7519,3.7282,3.7506,3.7429,3.726,3.7145,3.7068,3.7066,3.7108,3.7127,3.7203,3.7278,3.7316,3.7353,3.7353,3.7372,3.7334,3.7334,3.7391,3.7411,3.7448,3.7503,3.7521,3.7503,3.741,3.7279,3.7164,3.7145,3.7108,3.7068,3.7009,3.7009,3.7029,3.7087,3.7284,3.7837,3.8591,3.9363,4.0068,4.0774,4.1613,0.8798,0.9078,0.8977,0.9349,1.003,1.0192,1.0439,1.0796,1.0999,1.1135,1.1372,1.1409,1.1477,1.1706,1.1744,1.1781,1.1818,1.2009,1.2083,1.2077,1.2224,1.2305,1.2378,1.2709,1.3162,1.3719,1.455,1.5373,1.6063,1.6594,1.702,1.7296,1.7138,1.7071,1.7025,1.6653,1.6557,1.6668,1.648,1.6491,1.6638,1.6499,1.6358,1.628,1.6101,1.5983,1.596,1.6116,1.6269,1.6404,1.5982,1.5567,1.515,1.4441,1.4593,1.5772,1.8223,2.0301,2.3688,2.8885,3.2695,3.4237,3.7041,3.8942,3.8851,3.8837,3.8743,3.8637,3.8559,3.8496,3.8387,3.8338,3.8256,3.8086,3.7766,3.7611,3.7614,3.7503,3.7336,3.7278,3.722,3.722,3.7241,3.7261,3.7318,3.7373,3.7429,3.7485,3.7484,3.7484,3.7484,3.7522,3.7558,3.7577,3.7631,3.7721,3.7757,3.7775,3.7667,3.7485,3.7336,3.7184,3.7127,3.7069,3.7048,3.7029,3.697,3.697,3.7213,3.7389,3.791,3.8631,3.9128,3.9777,4.0742,0.8828,0.9117,0.8962,0.9382,1.0126,1.0133,1.0365,1.0716,1.0869,1.095,1.101,1.1111,1.1223,1.1341,1.1484,1.1601,1.1595,1.1781,1.1898,1.1892,1.2083,1.2194,1.2378,1.2636,1.2973,1.3426,1.4197,1.4912,1.5515,1.6018,1.6383,1.6597,1.6538,1.6488,1.646,1.6229,1.6109,1.6233,1.6094,1.6065,1.6133,1.6073,1.5958,1.5881,1.5758,1.5712,1.5843,1.5966,1.6091,1.6126,1.5878,1.5484,1.5072,1.4478,1.4001,1.3892,1.5833,1.7474,1.9929,2.4474,2.8485,3.1781,3.5084,3.6862,3.8178,3.8664,3.8588,3.8494,3.843,3.8387,3.8323,3.8274,3.8207,3.8087,3.8003,3.7881,3.7739,3.7559,3.7448,3.7372,3.7316,3.7298,3.7301,3.7306,3.7343,3.7485,3.754,3.7558,3.7577,3.7506,3.7139,3.664,3.6874,3.6912,3.7156,3.7321,3.7644,3.7716,3.7828,3.7685,3.7485,3.7279,3.7222,3.7184,3.7106,3.7029,3.6989,3.693,3.6961,3.7211,3.7529,3.7848,3.84,3.8939,3.9901,0.874,0.8911,0.8911,0.9301,0.9874,0.9918,1.0138,1.0492,1.0478,1.0473,1.0572,1.0686,1.0775,1.0818,1.1186,1.1335,1.1372,1.1589,1.1663,1.1781,1.1892,1.204,1.2187,1.2489,1.282,1.3236,1.3775,1.4415,1.499,1.5463,1.5794,1.5973,1.5978,1.5865,1.5846,1.5682,1.571,1.5809,1.5742,1.5678,1.5716,1.5678,1.5632,1.5519,1.5481,1.5573,1.5748,1.5856,1.5859,1.5921,1.5688,1.5366,1.4799,1.4394,1.3898,1.3446,1.372,1.5114,1.7834,1.9465,2.3145,2.9522,3.1796,3.411,3.7421,3.8507,3.8478,3.8401,3.8338,3.8323,3.8292,3.8224,3.8209,3.8157,3.807,3.7932,3.7774,3.7667,3.7577,3.7326,3.7201,3.6822,3.6783,3.6546,3.6014,3.3504,3.3995,3.3802,3.378,3.3608,3.3859,3.4357,3.5004,3.603,3.6422,3.6842,3.728,3.7614,3.7841,3.781,3.7613,3.7466,3.7372,3.7316,3.7239,3.7145,3.7068,3.7027,3.6948,3.6943,3.7191,3.7474,3.7792,3.8335,3.9151,0.874,0.8911,0.8911,0.9218,0.9641,0.9682,0.989,1.0258,1.0085,1.0169,1.039,1.0383,1.0519,1.0775,1.0881,1.1037,1.1186,1.1366,1.1558,1.1706,1.1744,1.1781,1.1929,1.2305,1.2709,1.301,1.3419,1.3929,1.4462,1.4779,1.5118,1.5527,1.5554,1.5562,1.5441,1.5312,1.5209,1.5125,1.5001,1.4971,1.5008,1.4971,1.4971,1.489,1.4919,1.5069,1.5299,1.5363,1.5363,1.5393,1.5498,1.5372,1.495,1.4508,1.4073,1.3618,1.3299,1.3578,1.4651,1.7406,2.1238,2.6207,2.9955,3.3925,3.7884,3.8298,3.8307,3.832,3.8289,3.8111,3.815,3.8189,3.8225,3.8207,3.8174,3.8105,3.7949,3.7881,3.7775,3.6971,3.5199,3.3506,3.3333,3.0937,3.0154,2.9406,2.9319,2.9081,2.9423,2.9917,3.0452,3.1312,3.1241,3.1963,3.2987,3.3452,3.4021,3.5195,3.6044,3.6775,3.6622,3.7667,3.7595,3.7485,3.7372,3.7279,3.7222,3.7105,3.7027,3.6968,3.6911,3.7161,3.7464,3.7915,3.8422,0.8656,0.874,0.874,0.8907,0.9122,0.9253,0.9402,0.9578,0.9545,0.9657,0.987,0.9904,1.011,1.04,1.0663,1.085,1.0999,1.1143,1.1366,1.1521,1.1558,1.1595,1.1706,1.2003,1.2335,1.2599,1.29,1.3375,1.3848,1.4217,1.46,1.4976,1.5037,1.499,1.495,1.4891,1.4715,1.4537,1.4426,1.4389,1.4497,1.4533,1.4569,1.4605,1.4677,1.4892,1.5185,1.5328,1.5284,1.5268,1.5328,1.5168,1.4674,1.4313,1.389,1.3442,1.3133,1.2869,1.3555,1.4806,1.7768,2.2288,2.6244,3.0269,3.4138,3.6085,3.7173,3.7166,3.7166,3.7255,3.7689,3.8162,3.8234,3.8271,3.8271,3.8254,3.8132,3.8016,3.6994,3.5574,3.35,3.1505,2.9617,2.6976,2.6793,2.7199,2.7373,2.7184,2.7545,2.7888,2.7472,2.7685,2.7174,2.7547,2.8845,2.9539,2.9891,3.1289,3.2881,3.3731,3.4249,3.5999,3.781,3.7685,3.7558,3.7485,3.7411,3.7241,3.7143,3.7143,3.7124,3.7066,3.7193,3.763,3.8151,0.8616,0.8616,0.8568,0.8516,0.8552,0.8684,0.8779,0.8819,0.8848,0.8999,0.9197,0.9399,0.9576,0.9922,1.0406,1.0663,1.085,1.0993,1.1217,1.1335,1.1372,1.1453,1.1564,1.1632,1.1818,1.2187,1.2489,1.29,1.3411,1.3811,1.416,1.4377,1.4477,1.4511,1.4392,1.4361,1.4292,1.4111,1.4124,1.4238,1.4389,1.4433,1.4497,1.4605,1.4713,1.4927,1.5169,1.5311,1.5346,1.5196,1.5196,1.4812,1.431,1.392,1.3608,1.3075,1.2924,1.2717,1.2566,1.3044,1.4763,1.8647,2.1673,2.5482,2.9468,3.2097,3.3157,3.4011,3.4183,3.5489,3.683,3.7685,3.812,3.823,3.8303,3.8129,3.747,3.7186,3.5235,3.3069,3.0094,2.736,2.5879,2.3941,2.4496,2.4855,2.4898,2.4927,2.5011,2.4627,2.3529,2.2678,2.1843,2.3075,2.4514,2.6927,2.7129,2.7565,2.9389,3.0739,3.1859,3.3932,3.585,3.7583,3.7757,3.7685,3.7595,3.7485,3.741,3.7372,3.7334,3.7316,3.7336,3.7411,3.7913,0.8616,0.8568,0.834,0.8245,0.8245,0.8116,0.8181,0.8277,0.8229,0.8373,0.8693,0.8839,0.9165,0.962,0.9922,1.0331,1.0738,1.0962,1.1111,1.1149,1.1186,1.1229,1.1223,1.126,1.1372,1.1626,1.2003,1.2526,1.301,1.3382,1.3848,1.4253,1.4281,1.4173,1.4173,1.4129,1.4029,1.3891,1.3956,1.4101,1.4281,1.4389,1.4461,1.4569,1.4677,1.4856,1.5098,1.5204,1.524,1.5196,1.5196,1.4883,1.4418,1.4137,1.3811,1.3397,1.3043,1.278,1.257,1.2523,1.4756,1.7979,1.9861,2.2096,2.5472,2.7324,2.826,2.8569,3.0316,3.2651,3.5968,3.6029,3.7157,3.7463,3.701,3.6287,3.382,3.2439,3.2075,3.0086,2.6315,2.2758,2.1429,2.017,1.9679,1.9481,1.9321,1.9135,1.8966,1.8375,1.7362,1.6622,1.5962,1.7986,2.0184,2.3183,2.4864,2.4483,2.5816,2.7811,2.9326,3.1628,3.3607,3.551,3.7239,3.7846,3.7775,3.7703,3.7631,3.7594,3.7576,3.7558,3.7577,3.7613,3.7703,0.8616,0.8568,0.8296,0.816,0.8028,0.794,0.7804,0.7735,0.772,0.7885,0.8146,0.835,0.867,0.916,0.9728,1.018,1.0594,1.085,1.0925,1.0962,1.1037,1.1037,1.0956,1.0962,1.1005,1.1186,1.1521,1.2046,1.2599,1.3119,1.3521,1.3855,1.3992,1.4065,1.392,1.3811,1.3746,1.3674,1.3674,1.3775,1.4109,1.4253,1.4461,1.4569,1.4677,1.4856,1.4999,1.5169,1.5133,1.5062,1.5043,1.482,1.4489,1.4165,1.3912,1.3521,1.3119,1.2826,1.2606,1.2475,1.3492,1.5234,1.7185,1.9199,2.1528,2.3112,2.395,2.4526,2.5315,2.8486,3.2101,3.1661,3.1732,3.3049,3.2738,3.0722,2.8415,2.6514,2.5885,2.5735,2.2925,1.9684,1.7153,1.5911,1.4764,1.4185,1.4049,1.4015,1.3961,1.3892,1.3851,1.3674,1.3675,1.4504,1.6425,1.8412,2.0786,2.0862,2.1737,2.3762,2.623,2.8258,3.1073,3.3672,3.5304,3.704,3.7933,3.7845,3.7828,3.781,3.7793,3.7775,3.7793,3.7828,3.7915,0.8616,0.8568,0.8292,0.8028,0.7896,0.7764,0.7541,0.73,0.7313,0.7434,0.7664,0.7884,0.8212,0.8703,0.9425,1.003,1.0406,1.0625,1.0738,1.0775,1.085,1.085,1.0775,1.0738,1.0738,1.0812,1.1111,1.1484,1.2224,1.2709,1.3119,1.3448,1.3775,1.3819,1.3645,1.3448,1.3419,1.3346,1.3236,1.3346,1.3717,1.4109,1.4425,1.4569,1.4721,1.4792,1.4935,1.5034,1.5034,1.4935,1.4864,1.4721,1.4425,1.4173,1.3848,1.3492,1.3119,1.2863,1.268,1.2415,1.2503,1.3304,1.5291,1.6405,1.7157,1.8951,2.0685,2.1453,2.193,2.3699,2.6859,2.5894,2.6242,2.7494,2.6699,2.4274,2.3,2.1343,1.9475,1.8935,1.8148,1.687,1.4553,1.397,1.3313,1.3211,1.3078,1.3099,1.3032,1.2946,1.2825,1.254,1.2379,1.2223,1.2934,1.3285,1.5047,1.5678,1.6961,1.8844,2.1737,2.4566,2.7735,3.1033,3.3859,3.5526,3.6736,3.7997,3.807,3.807,3.802,3.802,3.8053,3.8086,3.8153,0.8616,0.8568,0.8116,0.79,0.7812,0.7411,0.7105,0.6994,0.7007,0.7104,0.7204,0.7453,0.7791,0.8365,0.9203,0.9728,1.003,1.0331,1.0519,1.0556,1.0594,1.0588,1.055,1.0513,1.0556,1.0588,1.0887,1.1446,1.1929,1.2261,1.2673,1.3083,1.3083,1.3119,1.3229,1.301,1.2966,1.2973,1.2973,1.3119,1.3528,1.392,1.4209,1.4389,1.4461,1.4577,1.4756,1.4864,1.4864,1.4828,1.4677,1.4569,1.4361,1.4044,1.3754,1.3455,1.3163,1.2856,1.2753,1.2452,1.2298,1.2378,1.3334,1.3354,1.4032,1.4153,1.5605,1.7652,1.7708,1.9299,2.225,2.2825,2.3484,2.3582,2.303,2.0895,1.9182,1.7494,1.547,1.4222,1.4116,1.3727,1.2367,1.2291,1.2185,1.216,1.2135,1.2105,1.2016,1.183,1.1615,1.1337,1.1151,1.0987,1.106,1.1197,1.1455,1.178,1.3133,1.484,1.7571,2.0937,2.4768,2.8002,3.0829,3.3948,3.5897,3.7071,3.7934,3.832,3.8254,3.8269,3.8334,3.8366,3.8366,0.8384,0.834,0.8032,0.7812,0.7635,0.7231,0.6964,0.6817,0.6812,0.6847,0.6881,0.7061,0.748,0.814,0.8822,0.9273,0.962,0.9997,1.0218,1.0331,1.0406,1.0406,1.0325,1.0325,1.0331,1.0368,1.0513,1.0775,1.1335,1.1855,1.2335,1.2452,1.2562,1.2599,1.2673,1.2489,1.2562,1.2673,1.2863,1.3119,1.3411,1.3666,1.392,1.4201,1.4209,1.431,1.4389,1.4425,1.4461,1.4389,1.4245,1.4072,1.3884,1.3601,1.339,1.3163,1.279,1.2562,1.2526,1.2261,1.215,1.2114,1.2187,1.243,1.2298,1.2054,1.1998,1.3502,1.33,1.4939,1.7055,1.6553,1.7299,1.7775,1.8167,1.633,1.4541,1.3866,1.2331,1.1146,1.0289,1.0534,1.0785,1.0903,1.0908,1.0868,1.0806,1.0739,1.0578,1.0368,1.0176,0.9999,0.987,0.98,0.9953,1.0126,1.0396,1.0735,1.1252,1.2898,1.4246,1.7296,2.0927,2.3629,2.5781,2.9386,3.3742,3.6497,3.7623,3.8107,3.8476,3.8494,3.851,3.8462,3.8494,0.8069,0.8028,0.7852,0.768,0.7462,0.7231,0.693,0.6719,0.6702,0.6653,0.6666,0.683,0.7288,0.7868,0.8322,0.8742,0.9165,0.9582,0.9846,1.0067,1.0212,1.0255,1.018,1.0143,1.0105,1.0073,1.0143,1.0293,1.0588,1.1068,1.1446,1.175,1.1966,1.204,1.2046,1.2046,1.212,1.2305,1.2526,1.2746,1.301,1.3193,1.3448,1.3702,1.3848,1.392,1.3956,1.3956,1.3956,1.392,1.3702,1.3528,1.3375,1.3119,1.2863,1.2643,1.2342,1.2077,1.2003,1.1818,1.1737,1.1706,1.1632,1.1744,1.1632,1.1223,1.0901,1.124,1.079,1.2027,1.2949,1.1471,1.2145,1.2462,1.2019,1.0308,0.9319,1.0155,1.0526,0.9879,0.9255,0.9019,0.926,0.9547,0.9584,0.9547,0.9463,0.9387,0.9198,0.8937,0.8732,0.8553,0.849,0.844,0.8567,0.882,0.9196,0.9642,1.0131,1.0849,1.2112,1.379,1.6631,1.8946,2.11,2.4682,2.8981,3.3297,3.7362,3.8132,3.871,3.8649,3.8634,3.8603,3.8634,0.7768,0.7551,0.7503,0.7507,0.7459,0.7231,0.6927,0.6705,0.6695,0.6643,0.6623,0.6826,0.7096,0.7518,0.7825,0.8246,0.8742,0.9165,0.943,0.9657,0.9809,0.9922,0.9884,0.9846,0.9809,0.9733,0.9809,0.9809,0.9765,1.0024,1.0588,1.108,1.126,1.1372,1.1484,1.1558,1.1632,1.1781,1.1966,1.2077,1.2261,1.2489,1.2746,1.2966,1.3149,1.3339,1.3499,1.3419,1.3411,1.3375,1.3083,1.29,1.2753,1.2489,1.2224,1.2003,1.1781,1.1515,1.1298,1.1335,1.1409,1.1372,1.1223,1.0999,1.0887,1.07,1.0363,1.003,0.9733,0.967,1.0008,0.9435,0.96,0.9552,0.9552,0.915,0.8536,0.8522,0.8812,0.8537,0.8241,0.7936,0.7706,0.7923,0.8331,0.8322,0.8118,0.8008,0.7774,0.7544,0.728,0.7107,0.7069,0.7034,0.7072,0.7367,0.7799,0.8199,0.8658,0.9178,0.9907,1.1706,1.3295,1.5059,1.7467,2.0801,2.3884,2.7424,3.1502,3.6718,3.8935,3.8859,3.8815,3.8785,3.8833,0.7499,0.7279,0.7231,0.7279,0.7272,0.7048,0.6892,0.6705,0.66,0.6531,0.6451,0.6598,0.6791,0.7061,0.7442,0.7787,0.8203,0.8703,0.9008,0.9236,0.9387,0.9506,0.9544,0.9544,0.9511,0.9435,0.9473,0.9511,0.9435,0.9349,0.942,0.9868,1.0357,1.0625,1.0738,1.0962,1.1111,1.1186,1.1335,1.1484,1.1669,1.1744,1.1966,1.215,1.2187,1.2378,1.2526,1.2452,1.2489,1.2452,1.2187,1.204,1.1935,1.1669,1.1446,1.126,1.1031,1.0812,1.0625,1.07,1.0738,1.0481,1.0293,1.0137,1.0024,0.976,0.9571,0.9306,0.9008,0.8703,0.8585,0.8418,0.8306,0.8118,0.7974,0.7859,0.7744,0.7633,0.7437,0.7318,0.7084,0.6815,0.6546,0.6321,0.6749,0.7084,0.6857,0.6626,0.6349,0.6037,0.577,0.5577,0.5538,0.5464,0.55,0.5899,0.638,0.6759,0.7151,0.7624,0.8131,0.8923,1.0513,1.2092,1.336,1.5848,1.846,2.1176,2.5813,3.2031,3.6458,3.9064,3.9021,3.8979,3.9026,0.719,0.701,0.6918,0.6962,0.7078,0.6947,0.6841,0.6688,0.6539,0.6433,0.6342,0.6447,0.6563,0.6714,0.6984,0.7446,0.7787,0.8208,0.8551,0.8818,0.9008,0.9127,0.9127,0.9089,0.9089,0.9056,0.9018,0.9013,0.8865,0.8737,0.8694,0.8846,0.9193,0.9496,1.003,1.0288,1.0513,1.055,1.0663,1.0812,1.0925,1.0999,1.1074,1.126,1.1298,1.1409,1.1484,1.1446,1.1446,1.1372,1.1223,1.0999,1.085,1.0738,1.0507,1.0319,1.0137,0.9986,0.9873,0.9954,0.9916,0.9539,0.9349,0.9236,0.9084,0.8775,0.8546,0.8466,0.8127,0.7783,0.7595,0.7357,0.7161,0.7007,0.6896,0.6784,0.663,0.6514,0.6318,0.6121,0.5851,0.5461,0.5112,0.4844,0.5074,0.5461,0.5428,0.5154,0.4761,0.445,0.4139,0.4023,0.3945,0.3908,0.3908,0.4341,0.4774,0.5015,0.5426,0.6,0.6542,0.721,0.7804,0.9141,1.0272,1.1088,1.3409,1.6646,2.2022,2.8061,3.2342,3.6677,3.9215,3.9188,3.9166,0.6792,0.6748,0.652,0.6697,0.6946,0.6943,0.6795,0.6602,0.6482,0.638,0.6268,0.6296,0.6409,0.6525,0.6676,0.6984,0.7369,0.771,0.8016,0.8327,0.8475,0.8665,0.8665,0.8627,0.8518,0.8441,0.8403,0.8327,0.8178,0.7978,0.7897,0.7821,0.805,0.8475,0.9279,0.969,0.9879,0.9916,0.9916,0.9916,0.9911,1.0024,1.0099,1.0137,1.0244,1.0319,1.0351,1.0319,1.0319,1.0319,1.0062,0.9911,0.9873,0.9566,0.941,0.9296,0.9107,0.8922,0.8737,0.9089,0.8861,0.8475,0.8322,0.8165,0.805,0.7783,0.7437,0.7314,0.6892,0.658,0.6388,0.6234,0.6044,0.5928,0.5815,0.5661,0.5547,0.5351,0.5118,0.4805,0.4416,0.4029,0.36,0.3368,0.3483,0.3717,0.388,0.3682,0.3326,0.2856,0.2504,0.2386,0.2308,0.2228,0.2306,0.2779,0.3171,0.3366,0.3732,0.4321,0.4843,0.5462,0.6048,0.6619,0.7436,0.8535,1.0295,1.2331,1.7638,2.2937,2.934,3.381,3.6956,3.9362,3.9322,0.6435,0.6308,0.6216,0.621,0.6177,0.6278,0.6283,0.6249,0.6165,0.6061,0.607,0.618,0.6219,0.6254,0.6447,0.6641,0.6756,0.7257,0.7565,0.7603,0.7825,0.7906,0.7906,0.7863,0.7863,0.7829,0.7791,0.7753,0.7714,0.7326,0.7211,0.7173,0.7096,0.7633,0.8479,0.897,0.9046,0.8932,0.8894,0.8851,0.8732,0.8803,0.8841,0.8846,0.8955,0.9031,0.914,0.9069,0.9069,0.9102,0.8803,0.8694,0.8694,0.8423,0.8347,0.8161,0.7974,0.7663,0.7238,0.7122,0.728,0.7246,0.7211,0.6973,0.6819,0.6311,0.6121,0.5967,0.5577,0.5306,0.5229,0.504,0.4924,0.4885,0.4771,0.4538,0.4382,0.4146,0.3873,0.3444,0.3017,0.2584,0.2194,0.192,0.1958,0.184,0.1957,0.2155,0.1957,0.1293,0.0824,0.0744,0.0666,0.0587,0.0704,0.1174,0.1448,0.1604,0.2035,0.2633,0.3173,0.3721,0.4263,0.4863,0.5439,0.6117,0.7755,0.9692,1.2736,1.7622,2.3883,3.0021,3.3987,3.7132,3.9427,0.5902,0.5727,0.5638,0.546,0.5328,0.5639,0.5782,0.5757,0.5786,0.5786,0.5828,0.5986,0.5986,0.5941,0.6057,0.6293,0.618,0.6528,0.683,0.683,0.6984,0.7019,0.7057,0.7019,0.698,0.6984,0.6945,0.6903,0.6745,0.6475,0.6282,0.6205,0.6209,0.6514,0.7207,0.7629,0.8012,0.7897,0.7859,0.7859,0.774,0.774,0.774,0.774,0.7736,0.7774,0.7812,0.7774,0.7698,0.7655,0.7579,0.7425,0.7349,0.7234,0.7084,0.6819,0.6437,0.6163,0.5696,0.519,0.5386,0.5622,0.5699,0.5699,0.5503,0.5076,0.4763,0.4491,0.4142,0.3947,0.383,0.3679,0.3561,0.3522,0.3444,0.321,0.3091,0.2857,0.2584,0.2156,0.1647,0.1215,0.0823,0.0588,0.0431,0.0196,0.0,0.0274,0.0549,0.0,-0.0549,-0.0628,-0.0745,-0.0784,-0.0705,-0.0431,-0.0235,-0.0196,0.0392,0.1057,0.1452,0.194,0.2521,0.3157,0.3804,0.4513,0.5265,0.7163,0.9501,1.3076,1.8228,2.4304,3.0278,3.4153,3.731,0.5235,0.4966,0.4746,0.4523,0.44,0.4959,0.5241,0.526,0.5482,0.5556,0.5559,0.5598,0.5598,0.5598,0.5598,0.5673,0.575,0.5864,0.5977,0.6089,0.6163,0.6163,0.6128,0.6128,0.6015,0.5899,0.586,0.5819,0.5583,0.5431,0.5237,0.5082,0.5121,0.5276,0.5661,0.6044,0.6549,0.6703,0.6822,0.6784,0.6703,0.6745,0.6707,0.6668,0.6668,0.6665,0.6665,0.6626,0.6546,0.643,0.6237,0.6044,0.5851,0.5654,0.5461,0.5151,0.4652,0.438,0.4146,0.3638,0.3404,0.3675,0.4142,0.4261,0.4146,0.3756,0.3363,0.3012,0.2621,0.2388,0.2194,0.2036,0.1919,0.1919,0.188,0.1802,0.1762,0.1528,0.1293,0.0862,0.0314,-0.0118,-0.0471,-0.0745,-0.0941,-0.1176,-0.1293,-0.1332,-0.1096,-0.1096,-0.1568,-0.1803,-0.1881,-0.2038,-0.192,-0.1761,-0.1644,-0.1527,-0.1018,-0.0431,-0.0118,0.0275,0.095,0.16,0.2262,0.3041,0.3962,0.4657,0.5597,0.9494,1.3232,1.8081,2.3911,3.0385,3.4224,0.4656,0.4206,0.4164,0.3896,0.3561,0.3807,0.4091,0.4482,0.4932,0.5165,0.5165,0.5482,0.5401,0.5204,0.5323,0.5243,0.5165,0.5162,0.524,0.5315,0.5312,0.5237,0.516,0.5124,0.5007,0.489,0.481,0.4771,0.4693,0.4538,0.4345,0.419,0.407,0.3992,0.4029,0.4144,0.4844,0.5428,0.5625,0.5625,0.5583,0.5544,0.547,0.5431,0.5354,0.5312,0.5234,0.5157,0.5076,0.4999,0.4805,0.4649,0.4652,0.4258,0.3865,0.332,0.2895,0.2546,0.2388,0.2074,0.184,0.1683,0.1916,0.227,0.2349,0.2232,0.1801,0.1488,0.1135,0.0861,0.0666,0.0548,0.0431,0.0431,0.0391,0.0313,0.0274,0.0117,-0.0157,-0.0548,-0.1098,-0.1412,-0.1764,-0.196,-0.2116,-0.2391,-0.2588,-0.2624,-0.2585,-0.2506,-0.2506,-0.2741,-0.2978,-0.3095,-0.3134,-0.2974,-0.2937,-0.2781,-0.231,-0.1919,-0.1646,-0.1177,-0.0551,0.0238,0.112,0.1961,0.2807,0.3421,0.3934,0.4478,0.7774,1.2542,1.7679,2.3936,3.0438,0.3851,0.3492,0.3403,0.3108,0.2789,0.2848,0.3112,0.3469,0.4268,0.4657,0.4657,0.4973,0.4929,0.4698,0.4737,0.4659,0.4387,0.4462,0.4462,0.4343,0.438,0.4224,0.4148,0.4073,0.3956,0.3839,0.3761,0.3722,0.3641,0.3524,0.337,0.3173,0.2978,0.2899,0.2859,0.2896,0.313,0.3754,0.4144,0.4302,0.4302,0.4263,0.4148,0.407,0.4031,0.3873,0.3754,0.3715,0.3599,0.3522,0.3327,0.3169,0.3052,0.262,0.2072,0.1564,0.1252,0.0979,0.0783,0.0548,0.0352,0.0157,-0.0157,-0.0156,0.0235,0.0313,0.0157,0.0,-0.0352,-0.0627,-0.0783,-0.094,-0.0978,-0.1017,-0.1096,-0.1174,-0.1253,-0.1371,-0.1684,-0.2075,-0.239,-0.2663,-0.2938,-0.3134,-0.3331,-0.3565,-0.3722,-0.3837,-0.372,-0.3524,-0.3483,-0.3602,-0.3878,-0.4075,-0.4112,-0.4109,-0.4029,-0.3912,-0.368,-0.3327,-0.3095,-0.2431,-0.1649,-0.0749,0.0119,0.0929,0.168,0.2188,0.2694,0.3217,0.385,0.7437,1.2051,1.6912,2.355,0.3048,0.2822,0.2552,0.2317,0.2024,0.2222,0.2247,0.2319,0.3411,0.396,0.4038,0.427,0.4268,0.4075,0.4036,0.3882,0.3684,0.3682,0.3565,0.3329,0.3366,0.3249,0.3052,0.2935,0.2782,0.2705,0.2588,0.247,0.2392,0.2314,0.2195,0.2078,0.1999,0.1882,0.1686,0.1607,0.1724,0.1841,0.2348,0.2662,0.3015,0.3054,0.2976,0.2937,0.2818,0.2662,0.2543,0.2425,0.2231,0.2037,0.1803,0.1606,0.1135,0.0783,0.0235,-0.0157,-0.047,-0.0665,-0.0861,-0.1057,-0.1096,-0.1331,-0.1685,-0.2073,-0.1955,-0.1291,-0.1252,-0.1643,-0.1995,-0.2229,-0.2425,-0.2581,-0.2698,-0.2696,-0.2737,-0.2776,-0.2815,-0.2971,-0.3205,-0.3519,-0.3715,-0.3951,-0.4066,-0.4263,-0.4421,-0.4659,-0.4815,-0.4927,-0.4849,-0.4616,-0.4501,-0.4501,-0.4696,-0.489,-0.4965,-0.4963,-0.504,-0.4965,-0.4771,-0.4577,-0.4183,-0.3483,-0.2626,-0.1691,-0.079,-0.0197,0.0477,0.1045,0.1582,0.2079,0.2737,0.3502,0.6919,1.1444,1.6515,0.2557,0.2329,0.2072,0.1982,0.1974,0.1818,0.1858,0.2005,0.2433,0.2899,0.3329,0.3682,0.3682,0.337,0.3331,0.3136,0.2863,0.2784,0.2666,0.251,0.243,0.2194,0.1958,0.1802,0.1608,0.1374,0.1217,0.1177,0.1138,0.1099,0.102,0.0942,0.0863,0.0667,0.0431,0.0353,0.0235,0.0196,0.0392,0.1136,0.1841,0.2036,0.2077,0.1841,0.1605,0.1292,0.1135,0.0861,0.0704,0.0509,0.0157,-0.0352,-0.1018,-0.1214,-0.1683,-0.2192,-0.2229,-0.2348,-0.2543,-0.2699,-0.2738,-0.2974,-0.3366,-0.3793,-0.3713,-0.2974,-0.2779,-0.3287,-0.3638,-0.3871,-0.4064,-0.4222,-0.4384,-0.4384,-0.4389,-0.4389,-0.4389,-0.4543,-0.4735,-0.4888,-0.5046,-0.5157,-0.5273,-0.5389,-0.5512,-0.5667,-0.578,-0.5893,-0.5893,-0.5699,-0.547,-0.5431,-0.5473,-0.5628,-0.5702,-0.5741,-0.578,-0.5738,-0.5544,-0.5389,-0.5234,-0.4341,-0.3368,-0.251,-0.1689,-0.1021,-0.0432,0.0039,0.0596,0.112,0.183,0.2681,0.3415,0.6999,1.1255,0.211,0.2013,0.1753,0.1673,0.1638,0.1438,0.1406,0.1457,0.157,0.1804,0.2234,0.2821,0.2978,0.2585,0.2546,0.2352,0.2002,0.1845,0.1648,0.153,0.1373,0.1059,0.0863,0.0627,0.0471,0.0236,0.0157,0.0118,0.0,-0.0039,-0.0078,-0.0235,-0.0431,-0.0628,-0.0863,-0.0981,-0.1099,-0.1138,-0.1216,-0.0627,0.0352,0.0509,0.0666,0.047,0.0196,-0.0078,-0.0274,-0.0548,-0.0783,-0.1057,-0.1448,-0.2073,-0.2621,-0.2935,-0.3365,-0.3752,-0.3947,-0.391,-0.4183,-0.4338,-0.4377,-0.4613,-0.5118,-0.558,-0.5844,-0.522,-0.4949,-0.5378,-0.5386,-0.558,-0.5693,-0.5848,-0.6032,-0.6097,-0.609,-0.611,-0.6043,-0.6093,-0.6149,-0.6123,-0.6247,-0.6286,-0.6398,-0.6511,-0.6595,-0.6633,-0.6784,-0.6784,-0.6784,-0.678,-0.6553,-0.6398,-0.6402,-0.6363,-0.636,-0.6398,-0.6437,-0.636,-0.6318,-0.6009,-0.5702,-0.4927,-0.4073,-0.3253,-0.247,-0.1766,-0.1217,-0.0667,-0.0118,0.0474,0.1167,0.1932,0.2677,0.3416,0.6874,0.1746,0.1693,0.1484,0.1325,0.1256,0.1063,0.0961,0.0905,0.0864,0.0904,0.106,0.1883,0.2,0.1882,0.1764,0.1491,0.1256,0.1099,0.0825,0.051,0.0353,0.0039,-0.0235,-0.051,-0.0706,-0.0863,-0.0981,-0.102,-0.1099,-0.1215,-0.1371,-0.1567,-0.1763,-0.1959,-0.2116,-0.2194,-0.2273,-0.239,-0.239,-0.2311,-0.1803,-0.1295,-0.0903,-0.0942,-0.1216,-0.1449,-0.1645,-0.192,-0.2234,-0.2585,-0.2974,-0.3638,-0.4142,-0.4533,-0.4996,-0.5345,-0.5461,-0.55,-0.5651,-0.5848,-0.5928,-0.6163,-0.6784,-0.728,-0.7544,-0.7613,-0.7341,-0.7306,-0.7353,-0.7173,-0.7322,-0.749,-0.7661,-0.7791,-0.776,-0.7781,-0.7684,-0.7615,-0.7572,-0.7525,-0.747,-0.748,-0.7525,-0.7632,-0.7599,-0.7638,-0.7633,-0.7672,-0.7672,-0.7629,-0.751,-0.7399,-0.7361,-0.7246,-0.7053,-0.7057,-0.7134,-0.7096,-0.6976,-0.6595,-0.617,-0.5547,-0.4888,-0.4112,-0.3329,-0.2549,-0.1805,-0.1217,-0.0667,-0.0118,0.0635,0.1416,0.2129,0.2855,0.3525,0.1466,0.144,0.1368,0.1214,0.1064,0.0959,0.0828,0.0668,0.0668,0.0668,0.0707,0.0785,0.0982,0.106,0.1099,0.0904,0.0589,0.0354,0.0,-0.0314,-0.0471,-0.0863,-0.1294,-0.1607,-0.1922,-0.2157,-0.2314,-0.247,-0.2468,-0.2584,-0.2779,-0.2976,-0.3013,-0.3249,-0.3638,-0.3677,-0.3679,-0.3717,-0.3795,-0.3754,-0.3405,-0.2781,-0.204,-0.204,-0.2195,-0.2586,-0.2938,-0.3292,-0.3524,-0.3873,-0.4302,-0.5002,-0.5541,-0.5964,-0.6391,-0.6811,-0.6927,-0.708,-0.7234,-0.746,-0.7579,-0.7693,-0.8309,-0.8912,-0.9248,-0.9621,-0.9508,-0.9631,-0.9458,-0.8837,-0.8866,-0.9106,-0.9262,-0.9339,-0.9381,-0.9347,-0.9286,-0.9232,-0.9153,-0.8953,-0.8782,-0.8725,-0.8652,-0.8661,-0.8498,-0.8489,-0.847,-0.847,-0.847,-0.847,-0.847,-0.8394,-0.8284,-0.8016,-0.7744,-0.7753,-0.7791,-0.7791,-0.7676,-0.7288,-0.6826,-0.6321,-0.5661,-0.4885,-0.4109,-0.3331,-0.2588,-0.1766,-0.1099,-0.051,0.0196,0.0958,0.1611,0.2334,0.3028]}]]